<?xml version="1.0" encoding="UTF-8" standalone="no" ?>
<gpx xmlns="http://www.topografix.com/GPX/1/1" xmlns:xsi="http://www.w3.org/2001/XMLSchema-instance" xsi:schemaLocation="http://www.topografix.com/GPX/1/1 http://www.topografix.com/GPX/1/1/gpx.xsd" version="1.1" creator="VisuGPX - https://www.visugpx.com">
  <metadata>
    <name>Sauve Cyclisme</name>
  </metadata>
  <trk>
    <name><![CDATA[Sauve Cyclisme]]></name>
    <trkseg>
      <trkpt lat="43.93977" lon="3.9526">
        <ele>98.400001525879</ele>
        <time>2021-02-02T11:37:05.000Z</time>
      </trkpt>
      <trkpt lat="43.93977" lon="3.9526">
        <ele>99.800003051758</ele>
        <time>2021-02-02T11:37:06.000Z</time>
      </trkpt>
      <trkpt lat="43.93977" lon="3.9526">
        <ele>97.800003051758</ele>
        <time>2021-02-02T11:37:16.000Z</time>
      </trkpt>
      <trkpt lat="43.93977" lon="3.9526">
        <ele>98</ele>
        <time>2021-02-02T11:37:17.000Z</time>
      </trkpt>
      <trkpt lat="43.93974" lon="3.95258">
        <ele>98</ele>
        <time>2021-02-02T11:37:30.000Z</time>
      </trkpt>
      <trkpt lat="43.93969" lon="3.95261">
        <ele>98</ele>
        <time>2021-02-02T11:37:33.000Z</time>
      </trkpt>
      <trkpt lat="43.93954" lon="3.95273">
        <ele>97.800003051758</ele>
        <time>2021-02-02T11:37:39.000Z</time>
      </trkpt>
      <trkpt lat="43.93937" lon="3.95284">
        <ele>98.199996948242</ele>
        <time>2021-02-02T11:37:44.000Z</time>
      </trkpt>
      <trkpt lat="43.93913" lon="3.95299">
        <ele>98.400001525879</ele>
        <time>2021-02-02T11:37:50.000Z</time>
      </trkpt>
      <trkpt lat="43.9389" lon="3.9532">
        <ele>97.800003051758</ele>
        <time>2021-02-02T11:37:57.000Z</time>
      </trkpt>
      <trkpt lat="43.93886" lon="3.95322">
        <ele>97.800003051758</ele>
        <time>2021-02-02T11:37:58.000Z</time>
      </trkpt>
      <trkpt lat="43.93873" lon="3.95331">
        <ele>97.599998474121</ele>
        <time>2021-02-02T11:38:01.000Z</time>
      </trkpt>
      <trkpt lat="43.93869" lon="3.95335">
        <ele>97.400001525879</ele>
        <time>2021-02-02T11:38:02.000Z</time>
      </trkpt>
      <trkpt lat="43.93854" lon="3.95353">
        <ele>97</ele>
        <time>2021-02-02T11:38:06.000Z</time>
      </trkpt>
      <trkpt lat="43.93851" lon="3.95358">
        <ele>96.800003051758</ele>
        <time>2021-02-02T11:38:07.000Z</time>
      </trkpt>
      <trkpt lat="43.93843" lon="3.95368">
        <ele>96.599998474121</ele>
        <time>2021-02-02T11:38:09.000Z</time>
      </trkpt>
      <trkpt lat="43.93833" lon="3.95377">
        <ele>96.199996948242</ele>
        <time>2021-02-02T11:38:11.000Z</time>
      </trkpt>
      <trkpt lat="43.93819" lon="3.95392">
        <ele>95.599998474121</ele>
        <time>2021-02-02T11:38:14.000Z</time>
      </trkpt>
      <trkpt lat="43.93812" lon="3.95403">
        <ele>95.199996948242</ele>
        <time>2021-02-02T11:38:16.000Z</time>
      </trkpt>
      <trkpt lat="43.93809" lon="3.95408">
        <ele>95</ele>
        <time>2021-02-02T11:38:17.000Z</time>
      </trkpt>
      <trkpt lat="43.93795" lon="3.95434">
        <ele>94.599998474121</ele>
        <time>2021-02-02T11:38:22.000Z</time>
      </trkpt>
      <trkpt lat="43.93779" lon="3.95458">
        <ele>95.400001525879</ele>
        <time>2021-02-02T11:38:27.000Z</time>
      </trkpt>
      <trkpt lat="43.93768" lon="3.95477">
        <ele>95.199996948242</ele>
        <time>2021-02-02T11:38:31.000Z</time>
      </trkpt>
      <trkpt lat="43.93756" lon="3.95501">
        <ele>94.400001525879</ele>
        <time>2021-02-02T11:38:36.000Z</time>
      </trkpt>
      <trkpt lat="43.93745" lon="3.95522">
        <ele>94.400001525879</ele>
        <time>2021-02-02T11:38:41.000Z</time>
      </trkpt>
      <trkpt lat="43.9374" lon="3.95532">
        <ele>94.599998474121</ele>
        <time>2021-02-02T11:38:43.000Z</time>
      </trkpt>
      <trkpt lat="43.93732" lon="3.95552">
        <ele>94.199996948242</ele>
        <time>2021-02-02T11:38:46.000Z</time>
      </trkpt>
      <trkpt lat="43.93721" lon="3.95586">
        <ele>95.199996948242</ele>
        <time>2021-02-02T11:38:51.000Z</time>
      </trkpt>
      <trkpt lat="43.93706" lon="3.9563">
        <ele>94.199996948242</ele>
        <time>2021-02-02T11:38:58.000Z</time>
      </trkpt>
      <trkpt lat="43.93701" lon="3.95643">
        <ele>95</ele>
        <time>2021-02-02T11:39:00.000Z</time>
      </trkpt>
      <trkpt lat="43.93693" lon="3.95659">
        <ele>95.400001525879</ele>
        <time>2021-02-02T11:39:03.000Z</time>
      </trkpt>
      <trkpt lat="43.93688" lon="3.9567">
        <ele>95.400001525879</ele>
        <time>2021-02-02T11:39:05.000Z</time>
      </trkpt>
      <trkpt lat="43.93682" lon="3.95682">
        <ele>95.199996948242</ele>
        <time>2021-02-02T11:39:07.000Z</time>
      </trkpt>
      <trkpt lat="43.93676" lon="3.95693">
        <ele>95.199996948242</ele>
        <time>2021-02-02T11:39:09.000Z</time>
      </trkpt>
      <trkpt lat="43.93661" lon="3.95725">
        <ele>95.400001525879</ele>
        <time>2021-02-02T11:39:15.000Z</time>
      </trkpt>
      <trkpt lat="43.93652" lon="3.95747">
        <ele>94.800003051758</ele>
        <time>2021-02-02T11:39:19.000Z</time>
      </trkpt>
      <trkpt lat="43.93646" lon="3.95758">
        <ele>94.199996948242</ele>
        <time>2021-02-02T11:39:21.000Z</time>
      </trkpt>
      <trkpt lat="43.93641" lon="3.95769">
        <ele>94</ele>
        <time>2021-02-02T11:39:23.000Z</time>
      </trkpt>
      <trkpt lat="43.93631" lon="3.95792">
        <ele>94</ele>
        <time>2021-02-02T11:39:27.000Z</time>
      </trkpt>
      <trkpt lat="43.93624" lon="3.95808">
        <ele>94.199996948242</ele>
        <time>2021-02-02T11:39:30.000Z</time>
      </trkpt>
      <trkpt lat="43.93614" lon="3.95828">
        <ele>95</ele>
        <time>2021-02-02T11:39:34.000Z</time>
      </trkpt>
      <trkpt lat="43.93597" lon="3.9586">
        <ele>94.599998474121</ele>
        <time>2021-02-02T11:39:40.000Z</time>
      </trkpt>
      <trkpt lat="43.93594" lon="3.95865">
        <ele>94.599998474121</ele>
        <time>2021-02-02T11:39:41.000Z</time>
      </trkpt>
      <trkpt lat="43.93586" lon="3.9588">
        <ele>94.599998474121</ele>
        <time>2021-02-02T11:39:44.000Z</time>
      </trkpt>
      <trkpt lat="43.93576" lon="3.95895">
        <ele>94.599998474121</ele>
        <time>2021-02-02T11:39:47.000Z</time>
      </trkpt>
      <trkpt lat="43.93569" lon="3.95905">
        <ele>94.599998474121</ele>
        <time>2021-02-02T11:39:49.000Z</time>
      </trkpt>
      <trkpt lat="43.93559" lon="3.95918">
        <ele>94.400001525879</ele>
        <time>2021-02-02T11:39:52.000Z</time>
      </trkpt>
      <trkpt lat="43.93553" lon="3.95927">
        <ele>94</ele>
        <time>2021-02-02T11:39:54.000Z</time>
      </trkpt>
      <trkpt lat="43.93542" lon="3.9594">
        <ele>94</ele>
        <time>2021-02-02T11:39:57.000Z</time>
      </trkpt>
      <trkpt lat="43.93538" lon="3.95944">
        <ele>94</ele>
        <time>2021-02-02T11:39:58.000Z</time>
      </trkpt>
      <trkpt lat="43.93517" lon="3.95962">
        <ele>94</ele>
        <time>2021-02-02T11:40:03.000Z</time>
      </trkpt>
      <trkpt lat="43.93488" lon="3.95988">
        <ele>93.199996948242</ele>
        <time>2021-02-02T11:40:10.000Z</time>
      </trkpt>
      <trkpt lat="43.93485" lon="3.95993">
        <ele>93.199996948242</ele>
        <time>2021-02-02T11:40:11.000Z</time>
      </trkpt>
      <trkpt lat="43.93475" lon="3.96015">
        <ele>93.800003051758</ele>
        <time>2021-02-02T11:40:15.000Z</time>
      </trkpt>
      <trkpt lat="43.93468" lon="3.96031">
        <ele>94.400001525879</ele>
        <time>2021-02-02T11:40:18.000Z</time>
      </trkpt>
      <trkpt lat="43.93461" lon="3.96045">
        <ele>94.599998474121</ele>
        <time>2021-02-02T11:40:21.000Z</time>
      </trkpt>
      <trkpt lat="43.93454" lon="3.96058">
        <ele>95</ele>
        <time>2021-02-02T11:40:24.000Z</time>
      </trkpt>
      <trkpt lat="43.93449" lon="3.96067">
        <ele>95.599998474121</ele>
        <time>2021-02-02T11:40:26.000Z</time>
      </trkpt>
      <trkpt lat="43.93445" lon="3.96077">
        <ele>95.599998474121</ele>
        <time>2021-02-02T11:40:28.000Z</time>
      </trkpt>
      <trkpt lat="43.93439" lon="3.96087">
        <ele>95.800003051758</ele>
        <time>2021-02-02T11:40:30.000Z</time>
      </trkpt>
      <trkpt lat="43.93433" lon="3.96096">
        <ele>96</ele>
        <time>2021-02-02T11:40:32.000Z</time>
      </trkpt>
      <trkpt lat="43.93425" lon="3.9611">
        <ele>96.400001525879</ele>
        <time>2021-02-02T11:40:35.000Z</time>
      </trkpt>
      <trkpt lat="43.93416" lon="3.96126">
        <ele>96.199996948242</ele>
        <time>2021-02-02T11:40:38.000Z</time>
      </trkpt>
      <trkpt lat="43.93411" lon="3.96138">
        <ele>96.199996948242</ele>
        <time>2021-02-02T11:40:40.000Z</time>
      </trkpt>
      <trkpt lat="43.93401" lon="3.96163">
        <ele>96.400001525879</ele>
        <time>2021-02-02T11:40:44.000Z</time>
      </trkpt>
      <trkpt lat="43.93399" lon="3.9617">
        <ele>96.400001525879</ele>
        <time>2021-02-02T11:40:45.000Z</time>
      </trkpt>
      <trkpt lat="43.93386" lon="3.96211">
        <ele>96.199996948242</ele>
        <time>2021-02-02T11:40:51.000Z</time>
      </trkpt>
      <trkpt lat="43.93384" lon="3.96218">
        <ele>96.199996948242</ele>
        <time>2021-02-02T11:40:52.000Z</time>
      </trkpt>
      <trkpt lat="43.9336" lon="3.96288">
        <ele>95.599998474121</ele>
        <time>2021-02-02T11:41:02.000Z</time>
      </trkpt>
      <trkpt lat="43.93343" lon="3.96337">
        <ele>96</ele>
        <time>2021-02-02T11:41:09.000Z</time>
      </trkpt>
      <trkpt lat="43.93336" lon="3.96357">
        <ele>96</ele>
        <time>2021-02-02T11:41:12.000Z</time>
      </trkpt>
      <trkpt lat="43.93321" lon="3.9639">
        <ele>95.199996948242</ele>
        <time>2021-02-02T11:41:17.000Z</time>
      </trkpt>
      <trkpt lat="43.93319" lon="3.96397">
        <ele>95.199996948242</ele>
        <time>2021-02-02T11:41:18.000Z</time>
      </trkpt>
      <trkpt lat="43.93316" lon="3.96403">
        <ele>95.199996948242</ele>
        <time>2021-02-02T11:41:19.000Z</time>
      </trkpt>
      <trkpt lat="43.93306" lon="3.96429">
        <ele>95.199996948242</ele>
        <time>2021-02-02T11:41:23.000Z</time>
      </trkpt>
      <trkpt lat="43.93292" lon="3.96462">
        <ele>95</ele>
        <time>2021-02-02T11:41:28.000Z</time>
      </trkpt>
      <trkpt lat="43.93284" lon="3.96482">
        <ele>95</ele>
        <time>2021-02-02T11:41:31.000Z</time>
      </trkpt>
      <trkpt lat="43.93264" lon="3.96537">
        <ele>94.800003051758</ele>
        <time>2021-02-02T11:41:39.000Z</time>
      </trkpt>
      <trkpt lat="43.93241" lon="3.96592">
        <ele>94.800003051758</ele>
        <time>2021-02-02T11:41:47.000Z</time>
      </trkpt>
      <trkpt lat="43.93217" lon="3.96644">
        <ele>94.800003051758</ele>
        <time>2021-02-02T11:41:55.000Z</time>
      </trkpt>
      <trkpt lat="43.93189" lon="3.96703">
        <ele>94.599998474121</ele>
        <time>2021-02-02T11:42:04.000Z</time>
      </trkpt>
      <trkpt lat="43.93186" lon="3.96709">
        <ele>94.400001525879</ele>
        <time>2021-02-02T11:42:05.000Z</time>
      </trkpt>
      <trkpt lat="43.9318" lon="3.96723">
        <ele>94</ele>
        <time>2021-02-02T11:42:07.000Z</time>
      </trkpt>
      <trkpt lat="43.9317" lon="3.96742">
        <ele>94</ele>
        <time>2021-02-02T11:42:10.000Z</time>
      </trkpt>
      <trkpt lat="43.93161" lon="3.96763">
        <ele>93.800003051758</ele>
        <time>2021-02-02T11:42:13.000Z</time>
      </trkpt>
      <trkpt lat="43.93158" lon="3.96778">
        <ele>93.800003051758</ele>
        <time>2021-02-02T11:42:15.000Z</time>
      </trkpt>
      <trkpt lat="43.9315" lon="3.96831">
        <ele>93.599998474121</ele>
        <time>2021-02-02T11:42:22.000Z</time>
      </trkpt>
      <trkpt lat="43.93145" lon="3.96867">
        <ele>93.400001525879</ele>
        <time>2021-02-02T11:42:27.000Z</time>
      </trkpt>
      <trkpt lat="43.93144" lon="3.96874">
        <ele>93.199996948242</ele>
        <time>2021-02-02T11:42:28.000Z</time>
      </trkpt>
      <trkpt lat="43.93142" lon="3.96897">
        <ele>93.199996948242</ele>
        <time>2021-02-02T11:42:31.000Z</time>
      </trkpt>
      <trkpt lat="43.93138" lon="3.9692">
        <ele>93</ele>
        <time>2021-02-02T11:42:34.000Z</time>
      </trkpt>
      <trkpt lat="43.93133" lon="3.96976">
        <ele>92.400001525879</ele>
        <time>2021-02-02T11:42:41.000Z</time>
      </trkpt>
      <trkpt lat="43.93132" lon="3.96983">
        <ele>92.400001525879</ele>
        <time>2021-02-02T11:42:42.000Z</time>
      </trkpt>
      <trkpt lat="43.93129" lon="3.97023">
        <ele>92.400001525879</ele>
        <time>2021-02-02T11:42:47.000Z</time>
      </trkpt>
      <trkpt lat="43.93129" lon="3.9703">
        <ele>92.400001525879</ele>
        <time>2021-02-02T11:42:48.000Z</time>
      </trkpt>
      <trkpt lat="43.93133" lon="3.97067">
        <ele>92</ele>
        <time>2021-02-02T11:42:53.000Z</time>
      </trkpt>
      <trkpt lat="43.93134" lon="3.97075">
        <ele>92</ele>
        <time>2021-02-02T11:42:54.000Z</time>
      </trkpt>
      <trkpt lat="43.9314" lon="3.97139">
        <ele>92.199996948242</ele>
        <time>2021-02-02T11:43:02.000Z</time>
      </trkpt>
      <trkpt lat="43.93141" lon="3.97146">
        <ele>92</ele>
        <time>2021-02-02T11:43:03.000Z</time>
      </trkpt>
      <trkpt lat="43.93141" lon="3.97153">
        <ele>92</ele>
        <time>2021-02-02T11:43:04.000Z</time>
      </trkpt>
      <trkpt lat="43.93143" lon="3.97176">
        <ele>91.400001525879</ele>
        <time>2021-02-02T11:43:07.000Z</time>
      </trkpt>
      <trkpt lat="43.93144" lon="3.97184">
        <ele>91.400001525879</ele>
        <time>2021-02-02T11:43:08.000Z</time>
      </trkpt>
      <trkpt lat="43.93146" lon="3.972">
        <ele>91.400001525879</ele>
        <time>2021-02-02T11:43:10.000Z</time>
      </trkpt>
      <trkpt lat="43.93147" lon="3.97215">
        <ele>91.400001525879</ele>
        <time>2021-02-02T11:43:12.000Z</time>
      </trkpt>
      <trkpt lat="43.93148" lon="3.97223">
        <ele>91.199996948242</ele>
        <time>2021-02-02T11:43:13.000Z</time>
      </trkpt>
      <trkpt lat="43.93155" lon="3.9726">
        <ele>90.800003051758</ele>
        <time>2021-02-02T11:43:18.000Z</time>
      </trkpt>
      <trkpt lat="43.93155" lon="3.97267">
        <ele>90.800003051758</ele>
        <time>2021-02-02T11:43:19.000Z</time>
      </trkpt>
      <trkpt lat="43.93147" lon="3.97291">
        <ele>91.599998474121</ele>
        <time>2021-02-02T11:43:23.000Z</time>
      </trkpt>
      <trkpt lat="43.93128" lon="3.97303">
        <ele>90.800003051758</ele>
        <time>2021-02-02T11:43:27.000Z</time>
      </trkpt>
      <trkpt lat="43.9312" lon="3.9731">
        <ele>90.800003051758</ele>
        <time>2021-02-02T11:43:29.000Z</time>
      </trkpt>
      <trkpt lat="43.93113" lon="3.97316">
        <ele>91.199996948242</ele>
        <time>2021-02-02T11:43:31.000Z</time>
      </trkpt>
      <trkpt lat="43.93106" lon="3.97322">
        <ele>91.599998474121</ele>
        <time>2021-02-02T11:43:33.000Z</time>
      </trkpt>
      <trkpt lat="43.93087" lon="3.9733">
        <ele>92.800003051758</ele>
        <time>2021-02-02T11:43:38.000Z</time>
      </trkpt>
      <trkpt lat="43.93075" lon="3.97333">
        <ele>93.599998474121</ele>
        <time>2021-02-02T11:43:41.000Z</time>
      </trkpt>
      <trkpt lat="43.93066" lon="3.97332">
        <ele>94.199996948242</ele>
        <time>2021-02-02T11:43:43.000Z</time>
      </trkpt>
      <trkpt lat="43.93037" lon="3.97318">
        <ele>94.800003051758</ele>
        <time>2021-02-02T11:43:50.000Z</time>
      </trkpt>
      <trkpt lat="43.93028" lon="3.97313">
        <ele>94.800003051758</ele>
        <time>2021-02-02T11:43:52.000Z</time>
      </trkpt>
      <trkpt lat="43.93005" lon="3.97308">
        <ele>94.800003051758</ele>
        <time>2021-02-02T11:43:57.000Z</time>
      </trkpt>
      <trkpt lat="43.9299" lon="3.97306">
        <ele>94.599998474121</ele>
        <time>2021-02-02T11:44:00.000Z</time>
      </trkpt>
      <trkpt lat="43.92971" lon="3.97307">
        <ele>94.599998474121</ele>
        <time>2021-02-02T11:44:04.000Z</time>
      </trkpt>
      <trkpt lat="43.92952" lon="3.97307">
        <ele>95.199996948242</ele>
        <time>2021-02-02T11:44:08.000Z</time>
      </trkpt>
      <trkpt lat="43.92933" lon="3.97309">
        <ele>95.199996948242</ele>
        <time>2021-02-02T11:44:12.000Z</time>
      </trkpt>
      <trkpt lat="43.92894" lon="3.97309">
        <ele>95.599998474121</ele>
        <time>2021-02-02T11:44:20.000Z</time>
      </trkpt>
      <trkpt lat="43.92856" lon="3.97303">
        <ele>96</ele>
        <time>2021-02-02T11:44:28.000Z</time>
      </trkpt>
      <trkpt lat="43.92847" lon="3.97301">
        <ele>96.199996948242</ele>
        <time>2021-02-02T11:44:30.000Z</time>
      </trkpt>
      <trkpt lat="43.92833" lon="3.97299">
        <ele>96.599998474121</ele>
        <time>2021-02-02T11:44:33.000Z</time>
      </trkpt>
      <trkpt lat="43.92819" lon="3.973">
        <ele>96.800003051758</ele>
        <time>2021-02-02T11:44:36.000Z</time>
      </trkpt>
      <trkpt lat="43.92815" lon="3.97301">
        <ele>96.800003051758</ele>
        <time>2021-02-02T11:44:37.000Z</time>
      </trkpt>
      <trkpt lat="43.92799" lon="3.97306">
        <ele>96.400001525879</ele>
        <time>2021-02-02T11:44:40.000Z</time>
      </trkpt>
      <trkpt lat="43.92762" lon="3.97309">
        <ele>95.199996948242</ele>
        <time>2021-02-02T11:44:46.000Z</time>
      </trkpt>
      <trkpt lat="43.92726" lon="3.97308">
        <ele>94.400001525879</ele>
        <time>2021-02-02T11:44:52.000Z</time>
      </trkpt>
      <trkpt lat="43.92686" lon="3.97307">
        <ele>94.400001525879</ele>
        <time>2021-02-02T11:44:59.000Z</time>
      </trkpt>
      <trkpt lat="43.92681" lon="3.97306">
        <ele>94.400001525879</ele>
        <time>2021-02-02T11:45:00.000Z</time>
      </trkpt>
      <trkpt lat="43.92667" lon="3.97304">
        <ele>94.400001525879</ele>
        <time>2021-02-02T11:45:03.000Z</time>
      </trkpt>
      <trkpt lat="43.92639" lon="3.97301">
        <ele>95.599998474121</ele>
        <time>2021-02-02T11:45:09.000Z</time>
      </trkpt>
      <trkpt lat="43.92634" lon="3.97301">
        <ele>96</ele>
        <time>2021-02-02T11:45:10.000Z</time>
      </trkpt>
      <trkpt lat="43.92629" lon="3.97301">
        <ele>96.199996948242</ele>
        <time>2021-02-02T11:45:11.000Z</time>
      </trkpt>
      <trkpt lat="43.92613" lon="3.97303">
        <ele>96.400001525879</ele>
        <time>2021-02-02T11:45:14.000Z</time>
      </trkpt>
      <trkpt lat="43.92577" lon="3.9731">
        <ele>96</ele>
        <time>2021-02-02T11:45:20.000Z</time>
      </trkpt>
      <trkpt lat="43.92565" lon="3.97314">
        <ele>95.800003051758</ele>
        <time>2021-02-02T11:45:22.000Z</time>
      </trkpt>
      <trkpt lat="43.92549" lon="3.97325">
        <ele>95.599998474121</ele>
        <time>2021-02-02T11:45:25.000Z</time>
      </trkpt>
      <trkpt lat="43.92523" lon="3.97346">
        <ele>96.400001525879</ele>
        <time>2021-02-02T11:45:31.000Z</time>
      </trkpt>
      <trkpt lat="43.92511" lon="3.97357">
        <ele>96.599998474121</ele>
        <time>2021-02-02T11:45:34.000Z</time>
      </trkpt>
      <trkpt lat="43.92504" lon="3.97363">
        <ele>97.199996948242</ele>
        <time>2021-02-02T11:45:36.000Z</time>
      </trkpt>
      <trkpt lat="43.925" lon="3.97367">
        <ele>97.599998474121</ele>
        <time>2021-02-02T11:45:37.000Z</time>
      </trkpt>
      <trkpt lat="43.9249" lon="3.97378">
        <ele>98.400001525879</ele>
        <time>2021-02-02T11:45:40.000Z</time>
      </trkpt>
      <trkpt lat="43.92474" lon="3.97398">
        <ele>99.800003051758</ele>
        <time>2021-02-02T11:45:45.000Z</time>
      </trkpt>
      <trkpt lat="43.92452" lon="3.97428">
        <ele>101</ele>
        <time>2021-02-02T11:45:52.000Z</time>
      </trkpt>
      <trkpt lat="43.9243" lon="3.97464">
        <ele>101.40000152588</ele>
        <time>2021-02-02T11:45:59.000Z</time>
      </trkpt>
      <trkpt lat="43.924" lon="3.97503">
        <ele>100.59999847412</ele>
        <time>2021-02-02T11:46:07.000Z</time>
      </trkpt>
      <trkpt lat="43.92369" lon="3.97529">
        <ele>100.59999847412</ele>
        <time>2021-02-02T11:46:15.000Z</time>
      </trkpt>
      <trkpt lat="43.92367" lon="3.97529">
        <ele>100.40000152588</ele>
        <time>2021-02-02T11:46:18.000Z</time>
      </trkpt>
      <trkpt lat="43.92365" lon="3.9753">
        <ele>100.59999847412</ele>
        <time>2021-02-02T11:46:36.000Z</time>
      </trkpt>
      <trkpt lat="43.92364" lon="3.97531">
        <ele>100.59999847412</ele>
        <time>2021-02-02T11:46:38.000Z</time>
      </trkpt>
      <trkpt lat="43.92364" lon="3.97531">
        <ele>100.59999847412</ele>
        <time>2021-02-02T11:46:39.000Z</time>
      </trkpt>
      <trkpt lat="43.92362" lon="3.97534">
        <ele>100.19999694824</ele>
        <time>2021-02-02T11:47:10.000Z</time>
      </trkpt>
      <trkpt lat="43.92358" lon="3.97537">
        <ele>100.19999694824</ele>
        <time>2021-02-02T11:47:12.000Z</time>
      </trkpt>
      <trkpt lat="43.92345" lon="3.97547">
        <ele>100</ele>
        <time>2021-02-02T11:47:16.000Z</time>
      </trkpt>
      <trkpt lat="43.92336" lon="3.97553">
        <ele>99.800003051758</ele>
        <time>2021-02-02T11:47:18.000Z</time>
      </trkpt>
      <trkpt lat="43.92316" lon="3.97569">
        <ele>99.400001525879</ele>
        <time>2021-02-02T11:47:22.000Z</time>
      </trkpt>
      <trkpt lat="43.92305" lon="3.97577">
        <ele>98.599998474121</ele>
        <time>2021-02-02T11:47:24.000Z</time>
      </trkpt>
      <trkpt lat="43.92277" lon="3.97599">
        <ele>97.800003051758</ele>
        <time>2021-02-02T11:47:29.000Z</time>
      </trkpt>
      <trkpt lat="43.9226" lon="3.97613">
        <ele>97.599998474121</ele>
        <time>2021-02-02T11:47:32.000Z</time>
      </trkpt>
      <trkpt lat="43.92238" lon="3.9763">
        <ele>97.800003051758</ele>
        <time>2021-02-02T11:47:36.000Z</time>
      </trkpt>
      <trkpt lat="43.92233" lon="3.97632">
        <ele>97.800003051758</ele>
        <time>2021-02-02T11:47:37.000Z</time>
      </trkpt>
      <trkpt lat="43.92209" lon="3.97638">
        <ele>97.800003051758</ele>
        <time>2021-02-02T11:47:41.000Z</time>
      </trkpt>
      <trkpt lat="43.92164" lon="3.97639">
        <ele>98</ele>
        <time>2021-02-02T11:47:49.000Z</time>
      </trkpt>
      <trkpt lat="43.92106" lon="3.97639">
        <ele>97.400001525879</ele>
        <time>2021-02-02T11:47:59.000Z</time>
      </trkpt>
      <trkpt lat="43.92094" lon="3.97638">
        <ele>97.199996948242</ele>
        <time>2021-02-02T11:48:01.000Z</time>
      </trkpt>
      <trkpt lat="43.92073" lon="3.97635">
        <ele>97.199996948242</ele>
        <time>2021-02-02T11:48:05.000Z</time>
      </trkpt>
      <trkpt lat="43.92068" lon="3.97634">
        <ele>97.199996948242</ele>
        <time>2021-02-02T11:48:06.000Z</time>
      </trkpt>
      <trkpt lat="43.92054" lon="3.97626">
        <ele>97.199996948242</ele>
        <time>2021-02-02T11:48:09.000Z</time>
      </trkpt>
      <trkpt lat="43.92049" lon="3.97623">
        <ele>97.199996948242</ele>
        <time>2021-02-02T11:48:10.000Z</time>
      </trkpt>
      <trkpt lat="43.92023" lon="3.97607">
        <ele>97.199996948242</ele>
        <time>2021-02-02T11:48:15.000Z</time>
      </trkpt>
      <trkpt lat="43.92007" lon="3.97602">
        <ele>97.199996948242</ele>
        <time>2021-02-02T11:48:18.000Z</time>
      </trkpt>
      <trkpt lat="43.91997" lon="3.97602">
        <ele>97.199996948242</ele>
        <time>2021-02-02T11:48:20.000Z</time>
      </trkpt>
      <trkpt lat="43.91981" lon="3.97608">
        <ele>97.199996948242</ele>
        <time>2021-02-02T11:48:23.000Z</time>
      </trkpt>
      <trkpt lat="43.91966" lon="3.97615">
        <ele>97</ele>
        <time>2021-02-02T11:48:26.000Z</time>
      </trkpt>
      <trkpt lat="43.91956" lon="3.97618">
        <ele>97.199996948242</ele>
        <time>2021-02-02T11:48:28.000Z</time>
      </trkpt>
      <trkpt lat="43.91941" lon="3.97621">
        <ele>97.800003051758</ele>
        <time>2021-02-02T11:48:31.000Z</time>
      </trkpt>
      <trkpt lat="43.91927" lon="3.97626">
        <ele>98.400001525879</ele>
        <time>2021-02-02T11:48:34.000Z</time>
      </trkpt>
      <trkpt lat="43.91915" lon="3.97634">
        <ele>98.599998474121</ele>
        <time>2021-02-02T11:48:37.000Z</time>
      </trkpt>
      <trkpt lat="43.91907" lon="3.97641">
        <ele>99</ele>
        <time>2021-02-02T11:48:39.000Z</time>
      </trkpt>
      <trkpt lat="43.91891" lon="3.97658">
        <ele>99</ele>
        <time>2021-02-02T11:48:43.000Z</time>
      </trkpt>
      <trkpt lat="43.91853" lon="3.97696">
        <ele>98.599998474121</ele>
        <time>2021-02-02T11:48:52.000Z</time>
      </trkpt>
      <trkpt lat="43.91835" lon="3.97716">
        <ele>97.800003051758</ele>
        <time>2021-02-02T11:48:56.000Z</time>
      </trkpt>
      <trkpt lat="43.91824" lon="3.97727">
        <ele>97.400001525879</ele>
        <time>2021-02-02T11:48:58.000Z</time>
      </trkpt>
      <trkpt lat="43.91805" lon="3.9774">
        <ele>96.599998474121</ele>
        <time>2021-02-02T11:49:01.000Z</time>
      </trkpt>
      <trkpt lat="43.91798" lon="3.97743">
        <ele>96.400001525879</ele>
        <time>2021-02-02T11:49:02.000Z</time>
      </trkpt>
      <trkpt lat="43.91766" lon="3.97749">
        <ele>95.199996948242</ele>
        <time>2021-02-02T11:49:06.000Z</time>
      </trkpt>
      <trkpt lat="43.91759" lon="3.97751">
        <ele>94.599998474121</ele>
        <time>2021-02-02T11:49:07.000Z</time>
      </trkpt>
      <trkpt lat="43.91745" lon="3.97757">
        <ele>94</ele>
        <time>2021-02-02T11:49:09.000Z</time>
      </trkpt>
      <trkpt lat="43.9172" lon="3.97767">
        <ele>94</ele>
        <time>2021-02-02T11:49:13.000Z</time>
      </trkpt>
      <trkpt lat="43.91701" lon="3.97775">
        <ele>95</ele>
        <time>2021-02-02T11:49:17.000Z</time>
      </trkpt>
      <trkpt lat="43.91697" lon="3.97775">
        <ele>95.400001525879</ele>
        <time>2021-02-02T11:49:18.000Z</time>
      </trkpt>
      <trkpt lat="43.91683" lon="3.97772">
        <ele>96</ele>
        <time>2021-02-02T11:49:21.000Z</time>
      </trkpt>
      <trkpt lat="43.91679" lon="3.97769">
        <ele>96.199996948242</ele>
        <time>2021-02-02T11:49:22.000Z</time>
      </trkpt>
      <trkpt lat="43.91666" lon="3.97752">
        <ele>97</ele>
        <time>2021-02-02T11:49:26.000Z</time>
      </trkpt>
      <trkpt lat="43.91663" lon="3.97747">
        <ele>97.400001525879</ele>
        <time>2021-02-02T11:49:27.000Z</time>
      </trkpt>
      <trkpt lat="43.91657" lon="3.97732">
        <ele>98.199996948242</ele>
        <time>2021-02-02T11:49:30.000Z</time>
      </trkpt>
      <trkpt lat="43.91645" lon="3.97708">
        <ele>99</ele>
        <time>2021-02-02T11:49:35.000Z</time>
      </trkpt>
      <trkpt lat="43.91641" lon="3.97699">
        <ele>99.199996948242</ele>
        <time>2021-02-02T11:49:37.000Z</time>
      </trkpt>
      <trkpt lat="43.91629" lon="3.97677">
        <ele>100.40000152588</ele>
        <time>2021-02-02T11:49:42.000Z</time>
      </trkpt>
      <trkpt lat="43.91627" lon="3.97673">
        <ele>100.80000305176</ele>
        <time>2021-02-02T11:49:43.000Z</time>
      </trkpt>
      <trkpt lat="43.91609" lon="3.97653">
        <ele>101.59999847412</ele>
        <time>2021-02-02T11:49:49.000Z</time>
      </trkpt>
      <trkpt lat="43.91599" lon="3.97647">
        <ele>102.80000305176</ele>
        <time>2021-02-02T11:49:52.000Z</time>
      </trkpt>
      <trkpt lat="43.91584" lon="3.97638">
        <ele>103.80000305176</ele>
        <time>2021-02-02T11:49:56.000Z</time>
      </trkpt>
      <trkpt lat="43.9158" lon="3.97636">
        <ele>104.19999694824</ele>
        <time>2021-02-02T11:49:57.000Z</time>
      </trkpt>
      <trkpt lat="43.91569" lon="3.97632">
        <ele>105.19999694824</ele>
        <time>2021-02-02T11:50:00.000Z</time>
      </trkpt>
      <trkpt lat="43.91562" lon="3.97629">
        <ele>105.80000305176</ele>
        <time>2021-02-02T11:50:02.000Z</time>
      </trkpt>
      <trkpt lat="43.91537" lon="3.97621">
        <ele>106.19999694824</ele>
        <time>2021-02-02T11:50:08.000Z</time>
      </trkpt>
      <trkpt lat="43.91518" lon="3.97619">
        <ele>107.59999847412</ele>
        <time>2021-02-02T11:50:13.000Z</time>
      </trkpt>
      <trkpt lat="43.9151" lon="3.97619">
        <ele>108.19999694824</ele>
        <time>2021-02-02T11:50:15.000Z</time>
      </trkpt>
      <trkpt lat="43.91499" lon="3.97619">
        <ele>108.59999847412</ele>
        <time>2021-02-02T11:50:18.000Z</time>
      </trkpt>
      <trkpt lat="43.91488" lon="3.97618">
        <ele>109.59999847412</ele>
        <time>2021-02-02T11:50:21.000Z</time>
      </trkpt>
      <trkpt lat="43.9148" lon="3.97615">
        <ele>110.40000152588</ele>
        <time>2021-02-02T11:50:23.000Z</time>
      </trkpt>
      <trkpt lat="43.9147" lon="3.9761">
        <ele>110.80000305176</ele>
        <time>2021-02-02T11:50:26.000Z</time>
      </trkpt>
      <trkpt lat="43.91455" lon="3.97603">
        <ele>111.59999847412</ele>
        <time>2021-02-02T11:50:30.000Z</time>
      </trkpt>
      <trkpt lat="43.91447" lon="3.976">
        <ele>112.19999694824</ele>
        <time>2021-02-02T11:50:32.000Z</time>
      </trkpt>
      <trkpt lat="43.91416" lon="3.97592">
        <ele>113.19999694824</ele>
        <time>2021-02-02T11:50:40.000Z</time>
      </trkpt>
      <trkpt lat="43.91405" lon="3.97589">
        <ele>114.19999694824</ele>
        <time>2021-02-02T11:50:43.000Z</time>
      </trkpt>
      <trkpt lat="43.91394" lon="3.97586">
        <ele>114.40000152588</ele>
        <time>2021-02-02T11:50:46.000Z</time>
      </trkpt>
      <trkpt lat="43.91375" lon="3.97581">
        <ele>115.19999694824</ele>
        <time>2021-02-02T11:50:51.000Z</time>
      </trkpt>
      <trkpt lat="43.91371" lon="3.9758">
        <ele>115.40000152588</ele>
        <time>2021-02-02T11:50:52.000Z</time>
      </trkpt>
      <trkpt lat="43.91348" lon="3.97575">
        <ele>115.19999694824</ele>
        <time>2021-02-02T11:50:58.000Z</time>
      </trkpt>
      <trkpt lat="43.91334" lon="3.97569">
        <ele>116.40000152588</ele>
        <time>2021-02-02T11:51:02.000Z</time>
      </trkpt>
      <trkpt lat="43.91328" lon="3.97568">
        <ele>116.40000152588</ele>
        <time>2021-02-02T11:51:04.000Z</time>
      </trkpt>
      <trkpt lat="43.91318" lon="3.97569">
        <ele>116</ele>
        <time>2021-02-02T11:51:08.000Z</time>
      </trkpt>
      <trkpt lat="43.91306" lon="3.97559">
        <ele>115.19999694824</ele>
        <time>2021-02-02T11:51:12.000Z</time>
      </trkpt>
      <trkpt lat="43.91301" lon="3.97551">
        <ele>114.19999694824</ele>
        <time>2021-02-02T11:51:14.000Z</time>
      </trkpt>
      <trkpt lat="43.91298" lon="3.97547">
        <ele>114</ele>
        <time>2021-02-02T11:51:15.000Z</time>
      </trkpt>
      <trkpt lat="43.91284" lon="3.97532">
        <ele>114</ele>
        <time>2021-02-02T11:51:19.000Z</time>
      </trkpt>
      <trkpt lat="43.9128" lon="3.97529">
        <ele>114</ele>
        <time>2021-02-02T11:51:20.000Z</time>
      </trkpt>
      <trkpt lat="43.91275" lon="3.97522">
        <ele>114.19999694824</ele>
        <time>2021-02-02T11:51:22.000Z</time>
      </trkpt>
      <trkpt lat="43.91268" lon="3.97513">
        <ele>112.80000305176</ele>
        <time>2021-02-02T11:51:24.000Z</time>
      </trkpt>
      <trkpt lat="43.91263" lon="3.9751">
        <ele>111.80000305176</ele>
        <time>2021-02-02T11:51:25.000Z</time>
      </trkpt>
      <trkpt lat="43.9125" lon="3.97504">
        <ele>111</ele>
        <time>2021-02-02T11:51:28.000Z</time>
      </trkpt>
      <trkpt lat="43.91237" lon="3.97503">
        <ele>111.80000305176</ele>
        <time>2021-02-02T11:51:32.000Z</time>
      </trkpt>
      <trkpt lat="43.91232" lon="3.97504">
        <ele>113.80000305176</ele>
        <time>2021-02-02T11:51:35.000Z</time>
      </trkpt>
      <trkpt lat="43.91228" lon="3.97504">
        <ele>114.80000305176</ele>
        <time>2021-02-02T11:51:37.000Z</time>
      </trkpt>
      <trkpt lat="43.91225" lon="3.97504">
        <ele>115.19999694824</ele>
        <time>2021-02-02T11:51:38.000Z</time>
      </trkpt>
      <trkpt lat="43.91216" lon="3.97504">
        <ele>116.40000152588</ele>
        <time>2021-02-02T11:51:41.000Z</time>
      </trkpt>
      <trkpt lat="43.91213" lon="3.97502">
        <ele>116.40000152588</ele>
        <time>2021-02-02T11:51:42.000Z</time>
      </trkpt>
      <trkpt lat="43.9121" lon="3.975">
        <ele>116.40000152588</ele>
        <time>2021-02-02T11:51:43.000Z</time>
      </trkpt>
      <trkpt lat="43.91199" lon="3.97492">
        <ele>115.80000305176</ele>
        <time>2021-02-02T11:51:46.000Z</time>
      </trkpt>
      <trkpt lat="43.91195" lon="3.97488">
        <ele>115.40000152588</ele>
        <time>2021-02-02T11:51:47.000Z</time>
      </trkpt>
      <trkpt lat="43.9119" lon="3.97485">
        <ele>115.40000152588</ele>
        <time>2021-02-02T11:51:48.000Z</time>
      </trkpt>
      <trkpt lat="43.91185" lon="3.97481">
        <ele>115</ele>
        <time>2021-02-02T11:51:49.000Z</time>
      </trkpt>
      <trkpt lat="43.91179" lon="3.97478">
        <ele>114.80000305176</ele>
        <time>2021-02-02T11:51:50.000Z</time>
      </trkpt>
      <trkpt lat="43.91174" lon="3.97476">
        <ele>114.59999847412</ele>
        <time>2021-02-02T11:51:51.000Z</time>
      </trkpt>
      <trkpt lat="43.9116" lon="3.97479">
        <ele>114</ele>
        <time>2021-02-02T11:51:54.000Z</time>
      </trkpt>
      <trkpt lat="43.91156" lon="3.97482">
        <ele>114</ele>
        <time>2021-02-02T11:51:55.000Z</time>
      </trkpt>
      <trkpt lat="43.91149" lon="3.97489">
        <ele>113.80000305176</ele>
        <time>2021-02-02T11:51:57.000Z</time>
      </trkpt>
      <trkpt lat="43.91138" lon="3.975">
        <ele>115.19999694824</ele>
        <time>2021-02-02T11:52:02.000Z</time>
      </trkpt>
      <trkpt lat="43.91135" lon="3.97504">
        <ele>116.80000305176</ele>
        <time>2021-02-02T11:52:04.000Z</time>
      </trkpt>
      <trkpt lat="43.91134" lon="3.97507">
        <ele>117.80000305176</ele>
        <time>2021-02-02T11:52:05.000Z</time>
      </trkpt>
      <trkpt lat="43.91133" lon="3.97509">
        <ele>118.59999847412</ele>
        <time>2021-02-02T11:52:06.000Z</time>
      </trkpt>
      <trkpt lat="43.91131" lon="3.97511">
        <ele>119.40000152588</ele>
        <time>2021-02-02T11:52:07.000Z</time>
      </trkpt>
      <trkpt lat="43.91124" lon="3.97512">
        <ele>120.40000152588</ele>
        <time>2021-02-02T11:52:10.000Z</time>
      </trkpt>
      <trkpt lat="43.91118" lon="3.97514">
        <ele>120.59999847412</ele>
        <time>2021-02-02T11:52:12.000Z</time>
      </trkpt>
      <trkpt lat="43.91113" lon="3.97517">
        <ele>120.80000305176</ele>
        <time>2021-02-02T11:52:14.000Z</time>
      </trkpt>
      <trkpt lat="43.91105" lon="3.97517">
        <ele>120.80000305176</ele>
        <time>2021-02-02T11:52:17.000Z</time>
      </trkpt>
      <trkpt lat="43.91101" lon="3.97517">
        <ele>121</ele>
        <time>2021-02-02T11:52:19.000Z</time>
      </trkpt>
      <trkpt lat="43.91091" lon="3.97516">
        <ele>121.59999847412</ele>
        <time>2021-02-02T11:52:23.000Z</time>
      </trkpt>
      <trkpt lat="43.91087" lon="3.97516">
        <ele>121.59999847412</ele>
        <time>2021-02-02T11:52:24.000Z</time>
      </trkpt>
      <trkpt lat="43.91071" lon="3.97517">
        <ele>121.80000305176</ele>
        <time>2021-02-02T11:52:29.000Z</time>
      </trkpt>
      <trkpt lat="43.91057" lon="3.97518">
        <ele>122</ele>
        <time>2021-02-02T11:52:33.000Z</time>
      </trkpt>
      <trkpt lat="43.9105" lon="3.97516">
        <ele>122</ele>
        <time>2021-02-02T11:52:36.000Z</time>
      </trkpt>
      <trkpt lat="43.9105" lon="3.97515">
        <ele>122</ele>
        <time>2021-02-02T11:52:37.000Z</time>
      </trkpt>
      <trkpt lat="43.91043" lon="3.97511">
        <ele>122.59999847412</ele>
        <time>2021-02-02T11:52:41.000Z</time>
      </trkpt>
      <trkpt lat="43.91026" lon="3.9751">
        <ele>122.40000152588</ele>
        <time>2021-02-02T11:52:45.000Z</time>
      </trkpt>
      <trkpt lat="43.91014" lon="3.97515">
        <ele>122.59999847412</ele>
        <time>2021-02-02T11:52:48.000Z</time>
      </trkpt>
      <trkpt lat="43.91006" lon="3.97516">
        <ele>122.80000305176</ele>
        <time>2021-02-02T11:52:50.000Z</time>
      </trkpt>
      <trkpt lat="43.90991" lon="3.97518">
        <ele>122.80000305176</ele>
        <time>2021-02-02T11:52:54.000Z</time>
      </trkpt>
      <trkpt lat="43.90975" lon="3.97523">
        <ele>123.40000152588</ele>
        <time>2021-02-02T11:52:58.000Z</time>
      </trkpt>
      <trkpt lat="43.90965" lon="3.97528">
        <ele>123.59999847412</ele>
        <time>2021-02-02T11:53:00.000Z</time>
      </trkpt>
      <trkpt lat="43.9096" lon="3.97531">
        <ele>123.40000152588</ele>
        <time>2021-02-02T11:53:01.000Z</time>
      </trkpt>
      <trkpt lat="43.90946" lon="3.97542">
        <ele>123</ele>
        <time>2021-02-02T11:53:04.000Z</time>
      </trkpt>
      <trkpt lat="43.90941" lon="3.97546">
        <ele>122.40000152588</ele>
        <time>2021-02-02T11:53:05.000Z</time>
      </trkpt>
      <trkpt lat="43.90931" lon="3.9755">
        <ele>122</ele>
        <time>2021-02-02T11:53:07.000Z</time>
      </trkpt>
      <trkpt lat="43.90925" lon="3.97552">
        <ele>121.59999847412</ele>
        <time>2021-02-02T11:53:08.000Z</time>
      </trkpt>
      <trkpt lat="43.90916" lon="3.97556">
        <ele>121.59999847412</ele>
        <time>2021-02-02T11:53:10.000Z</time>
      </trkpt>
      <trkpt lat="43.90906" lon="3.97559">
        <ele>121.40000152588</ele>
        <time>2021-02-02T11:53:12.000Z</time>
      </trkpt>
      <trkpt lat="43.9089" lon="3.97568">
        <ele>120</ele>
        <time>2021-02-02T11:53:15.000Z</time>
      </trkpt>
      <trkpt lat="43.90885" lon="3.97572">
        <ele>119.40000152588</ele>
        <time>2021-02-02T11:53:16.000Z</time>
      </trkpt>
      <trkpt lat="43.90867" lon="3.97582">
        <ele>119</ele>
        <time>2021-02-02T11:53:20.000Z</time>
      </trkpt>
      <trkpt lat="43.90865" lon="3.97583">
        <ele>118.80000305176</ele>
        <time>2021-02-02T11:53:21.000Z</time>
      </trkpt>
      <trkpt lat="43.90861" lon="3.97582">
        <ele>118.80000305176</ele>
        <time>2021-02-02T11:53:25.000Z</time>
      </trkpt>
      <trkpt lat="43.90868" lon="3.97584">
        <ele>118.59999847412</ele>
        <time>2021-02-02T11:54:07.000Z</time>
      </trkpt>
      <trkpt lat="43.90868" lon="3.97584">
        <ele>118.59999847412</ele>
        <time>2021-02-02T11:54:09.000Z</time>
      </trkpt>
      <trkpt lat="43.90868" lon="3.97584">
        <ele>118.40000152588</ele>
        <time>2021-02-02T11:54:10.000Z</time>
      </trkpt>
      <trkpt lat="43.90867" lon="3.9758">
        <ele>118.40000152588</ele>
        <time>2021-02-02T11:54:27.000Z</time>
      </trkpt>
      <trkpt lat="43.90864" lon="3.97575">
        <ele>118.59999847412</ele>
        <time>2021-02-02T11:54:29.000Z</time>
      </trkpt>
      <trkpt lat="43.90861" lon="3.97572">
        <ele>118.59999847412</ele>
        <time>2021-02-02T11:54:30.000Z</time>
      </trkpt>
      <trkpt lat="43.90853" lon="3.97563">
        <ele>119</ele>
        <time>2021-02-02T11:54:32.000Z</time>
      </trkpt>
      <trkpt lat="43.90842" lon="3.97557">
        <ele>119</ele>
        <time>2021-02-02T11:54:35.000Z</time>
      </trkpt>
      <trkpt lat="43.90838" lon="3.97556">
        <ele>119</ele>
        <time>2021-02-02T11:54:36.000Z</time>
      </trkpt>
      <trkpt lat="43.90825" lon="3.9756">
        <ele>118.80000305176</ele>
        <time>2021-02-02T11:54:39.000Z</time>
      </trkpt>
      <trkpt lat="43.9081" lon="3.97566">
        <ele>118.40000152588</ele>
        <time>2021-02-02T11:54:42.000Z</time>
      </trkpt>
      <trkpt lat="43.90797" lon="3.97574">
        <ele>117.19999694824</ele>
        <time>2021-02-02T11:54:44.000Z</time>
      </trkpt>
      <trkpt lat="43.90784" lon="3.97585">
        <ele>116</ele>
        <time>2021-02-02T11:54:46.000Z</time>
      </trkpt>
      <trkpt lat="43.90779" lon="3.97592">
        <ele>115.59999847412</ele>
        <time>2021-02-02T11:54:47.000Z</time>
      </trkpt>
      <trkpt lat="43.9077" lon="3.97605">
        <ele>114.80000305176</ele>
        <time>2021-02-02T11:54:49.000Z</time>
      </trkpt>
      <trkpt lat="43.90765" lon="3.9761">
        <ele>114.40000152588</ele>
        <time>2021-02-02T11:54:50.000Z</time>
      </trkpt>
      <trkpt lat="43.9076" lon="3.97614">
        <ele>113.80000305176</ele>
        <time>2021-02-02T11:54:51.000Z</time>
      </trkpt>
      <trkpt lat="43.90755" lon="3.97619">
        <ele>113.40000152588</ele>
        <time>2021-02-02T11:54:52.000Z</time>
      </trkpt>
      <trkpt lat="43.90747" lon="3.97628">
        <ele>113</ele>
        <time>2021-02-02T11:54:54.000Z</time>
      </trkpt>
      <trkpt lat="43.90743" lon="3.97633">
        <ele>112.40000152588</ele>
        <time>2021-02-02T11:54:55.000Z</time>
      </trkpt>
      <trkpt lat="43.90735" lon="3.97641">
        <ele>112</ele>
        <time>2021-02-02T11:54:57.000Z</time>
      </trkpt>
      <trkpt lat="43.90726" lon="3.97646">
        <ele>111.80000305176</ele>
        <time>2021-02-02T11:54:59.000Z</time>
      </trkpt>
      <trkpt lat="43.90707" lon="3.97657">
        <ele>111.80000305176</ele>
        <time>2021-02-02T11:55:03.000Z</time>
      </trkpt>
      <trkpt lat="43.90701" lon="3.97659">
        <ele>111.59999847412</ele>
        <time>2021-02-02T11:55:04.000Z</time>
      </trkpt>
      <trkpt lat="43.90686" lon="3.97662">
        <ele>111.19999694824</ele>
        <time>2021-02-02T11:55:07.000Z</time>
      </trkpt>
      <trkpt lat="43.90678" lon="3.97662">
        <ele>111</ele>
        <time>2021-02-02T11:55:09.000Z</time>
      </trkpt>
      <trkpt lat="43.90671" lon="3.9767">
        <ele>111</ele>
        <time>2021-02-02T11:55:12.000Z</time>
      </trkpt>
      <trkpt lat="43.90663" lon="3.97672">
        <ele>111</ele>
        <time>2021-02-02T11:55:15.000Z</time>
      </trkpt>
      <trkpt lat="43.90659" lon="3.97678">
        <ele>110.80000305176</ele>
        <time>2021-02-02T11:55:18.000Z</time>
      </trkpt>
      <trkpt lat="43.90658" lon="3.97682">
        <ele>110.80000305176</ele>
        <time>2021-02-02T11:55:20.000Z</time>
      </trkpt>
      <trkpt lat="43.90654" lon="3.97684">
        <ele>110.80000305176</ele>
        <time>2021-02-02T11:55:22.000Z</time>
      </trkpt>
      <trkpt lat="43.90649" lon="3.97696">
        <ele>111.19999694824</ele>
        <time>2021-02-02T11:55:25.000Z</time>
      </trkpt>
      <trkpt lat="43.9064" lon="3.97714">
        <ele>110.80000305176</ele>
        <time>2021-02-02T11:55:29.000Z</time>
      </trkpt>
      <trkpt lat="43.90635" lon="3.9772">
        <ele>110.80000305176</ele>
        <time>2021-02-02T11:55:31.000Z</time>
      </trkpt>
      <trkpt lat="43.90624" lon="3.97725">
        <ele>112</ele>
        <time>2021-02-02T11:55:34.000Z</time>
      </trkpt>
      <trkpt lat="43.9062" lon="3.97726">
        <ele>112</ele>
        <time>2021-02-02T11:55:35.000Z</time>
      </trkpt>
      <trkpt lat="43.90608" lon="3.97732">
        <ele>111.59999847412</ele>
        <time>2021-02-02T11:55:38.000Z</time>
      </trkpt>
      <trkpt lat="43.90596" lon="3.97733">
        <ele>112.40000152588</ele>
        <time>2021-02-02T11:55:42.000Z</time>
      </trkpt>
      <trkpt lat="43.90585" lon="3.97731">
        <ele>113.59999847412</ele>
        <time>2021-02-02T11:55:45.000Z</time>
      </trkpt>
      <trkpt lat="43.90581" lon="3.97731">
        <ele>113.80000305176</ele>
        <time>2021-02-02T11:55:46.000Z</time>
      </trkpt>
      <trkpt lat="43.90577" lon="3.97732">
        <ele>113.40000152588</ele>
        <time>2021-02-02T11:55:47.000Z</time>
      </trkpt>
      <trkpt lat="43.90564" lon="3.97734">
        <ele>112.40000152588</ele>
        <time>2021-02-02T11:55:50.000Z</time>
      </trkpt>
      <trkpt lat="43.90559" lon="3.97734">
        <ele>112.19999694824</ele>
        <time>2021-02-02T11:55:51.000Z</time>
      </trkpt>
      <trkpt lat="43.9055" lon="3.97733">
        <ele>111.19999694824</ele>
        <time>2021-02-02T11:55:53.000Z</time>
      </trkpt>
      <trkpt lat="43.90529" lon="3.9773">
        <ele>110.80000305176</ele>
        <time>2021-02-02T11:55:58.000Z</time>
      </trkpt>
      <trkpt lat="43.90509" lon="3.97724">
        <ele>112</ele>
        <time>2021-02-02T11:56:04.000Z</time>
      </trkpt>
      <trkpt lat="43.90506" lon="3.97723">
        <ele>112.19999694824</ele>
        <time>2021-02-02T11:56:05.000Z</time>
      </trkpt>
      <trkpt lat="43.90501" lon="3.9772">
        <ele>112.40000152588</ele>
        <time>2021-02-02T11:56:07.000Z</time>
      </trkpt>
      <trkpt lat="43.90497" lon="3.97713">
        <ele>112.40000152588</ele>
        <time>2021-02-02T11:56:09.000Z</time>
      </trkpt>
      <trkpt lat="43.90491" lon="3.97701">
        <ele>113</ele>
        <time>2021-02-02T11:56:12.000Z</time>
      </trkpt>
      <trkpt lat="43.90487" lon="3.97695">
        <ele>113.19999694824</ele>
        <time>2021-02-02T11:56:14.000Z</time>
      </trkpt>
      <trkpt lat="43.90476" lon="3.97685">
        <ele>113.59999847412</ele>
        <time>2021-02-02T11:56:19.000Z</time>
      </trkpt>
      <trkpt lat="43.90466" lon="3.97665">
        <ele>114.19999694824</ele>
        <time>2021-02-02T11:56:25.000Z</time>
      </trkpt>
      <trkpt lat="43.90466" lon="3.97661">
        <ele>114.40000152588</ele>
        <time>2021-02-02T11:56:26.000Z</time>
      </trkpt>
      <trkpt lat="43.90463" lon="3.9765">
        <ele>115.40000152588</ele>
        <time>2021-02-02T11:56:30.000Z</time>
      </trkpt>
      <trkpt lat="43.90455" lon="3.97638">
        <ele>116.40000152588</ele>
        <time>2021-02-02T11:56:33.000Z</time>
      </trkpt>
      <trkpt lat="43.90453" lon="3.97635">
        <ele>116.59999847412</ele>
        <time>2021-02-02T11:56:34.000Z</time>
      </trkpt>
      <trkpt lat="43.90447" lon="3.97626">
        <ele>117.59999847412</ele>
        <time>2021-02-02T11:56:37.000Z</time>
      </trkpt>
      <trkpt lat="43.90446" lon="3.97619">
        <ele>118</ele>
        <time>2021-02-02T11:56:39.000Z</time>
      </trkpt>
      <trkpt lat="43.90445" lon="3.97616">
        <ele>118.59999847412</ele>
        <time>2021-02-02T11:56:40.000Z</time>
      </trkpt>
      <trkpt lat="43.90442" lon="3.97609">
        <ele>120.19999694824</ele>
        <time>2021-02-02T11:56:43.000Z</time>
      </trkpt>
      <trkpt lat="43.90439" lon="3.97608">
        <ele>120.59999847412</ele>
        <time>2021-02-02T11:56:44.000Z</time>
      </trkpt>
      <trkpt lat="43.90434" lon="3.97609">
        <ele>121.40000152588</ele>
        <time>2021-02-02T11:56:46.000Z</time>
      </trkpt>
      <trkpt lat="43.9043" lon="3.97612">
        <ele>121.59999847412</ele>
        <time>2021-02-02T11:56:48.000Z</time>
      </trkpt>
      <trkpt lat="43.9042" lon="3.97615">
        <ele>122</ele>
        <time>2021-02-02T11:56:52.000Z</time>
      </trkpt>
      <trkpt lat="43.90417" lon="3.97617">
        <ele>122</ele>
        <time>2021-02-02T11:56:53.000Z</time>
      </trkpt>
      <trkpt lat="43.90412" lon="3.97617">
        <ele>122</ele>
        <time>2021-02-02T11:56:55.000Z</time>
      </trkpt>
      <trkpt lat="43.90411" lon="3.97624">
        <ele>121.59999847412</ele>
        <time>2021-02-02T11:56:57.000Z</time>
      </trkpt>
      <trkpt lat="43.90413" lon="3.97644">
        <ele>121.19999694824</ele>
        <time>2021-02-02T11:57:00.000Z</time>
      </trkpt>
      <trkpt lat="43.90415" lon="3.97661">
        <ele>119.80000305176</ele>
        <time>2021-02-02T11:57:02.000Z</time>
      </trkpt>
      <trkpt lat="43.90418" lon="3.97678">
        <ele>118.19999694824</ele>
        <time>2021-02-02T11:57:04.000Z</time>
      </trkpt>
      <trkpt lat="43.90413" lon="3.97688">
        <ele>117.19999694824</ele>
        <time>2021-02-02T11:57:06.000Z</time>
      </trkpt>
      <trkpt lat="43.90402" lon="3.9769">
        <ele>115.80000305176</ele>
        <time>2021-02-02T11:57:09.000Z</time>
      </trkpt>
      <trkpt lat="43.90398" lon="3.9769">
        <ele>115.80000305176</ele>
        <time>2021-02-02T11:57:10.000Z</time>
      </trkpt>
      <trkpt lat="43.90395" lon="3.9769">
        <ele>115.80000305176</ele>
        <time>2021-02-02T11:57:11.000Z</time>
      </trkpt>
      <trkpt lat="43.90386" lon="3.97691">
        <ele>116</ele>
        <time>2021-02-02T11:57:14.000Z</time>
      </trkpt>
      <trkpt lat="43.9038" lon="3.97693">
        <ele>116.80000305176</ele>
        <time>2021-02-02T11:57:16.000Z</time>
      </trkpt>
      <trkpt lat="43.90377" lon="3.97694">
        <ele>116.80000305176</ele>
        <time>2021-02-02T11:57:17.000Z</time>
      </trkpt>
      <trkpt lat="43.90363" lon="3.977">
        <ele>117.59999847412</ele>
        <time>2021-02-02T11:57:22.000Z</time>
      </trkpt>
      <trkpt lat="43.90357" lon="3.97704">
        <ele>118.19999694824</ele>
        <time>2021-02-02T11:57:24.000Z</time>
      </trkpt>
      <trkpt lat="43.90353" lon="3.97705">
        <ele>118.19999694824</ele>
        <time>2021-02-02T11:57:25.000Z</time>
      </trkpt>
      <trkpt lat="43.90349" lon="3.97705">
        <ele>118.19999694824</ele>
        <time>2021-02-02T11:57:26.000Z</time>
      </trkpt>
      <trkpt lat="43.90341" lon="3.97705">
        <ele>118.19999694824</ele>
        <time>2021-02-02T11:57:28.000Z</time>
      </trkpt>
      <trkpt lat="43.90333" lon="3.977">
        <ele>118</ele>
        <time>2021-02-02T11:57:30.000Z</time>
      </trkpt>
      <trkpt lat="43.90323" lon="3.97692">
        <ele>117</ele>
        <time>2021-02-02T11:57:33.000Z</time>
      </trkpt>
      <trkpt lat="43.90315" lon="3.97684">
        <ele>116.40000152588</ele>
        <time>2021-02-02T11:57:35.000Z</time>
      </trkpt>
      <trkpt lat="43.90302" lon="3.97679">
        <ele>116.80000305176</ele>
        <time>2021-02-02T11:57:39.000Z</time>
      </trkpt>
      <trkpt lat="43.90292" lon="3.97678">
        <ele>118</ele>
        <time>2021-02-02T11:57:43.000Z</time>
      </trkpt>
      <trkpt lat="43.9029" lon="3.97677">
        <ele>118.40000152588</ele>
        <time>2021-02-02T11:57:44.000Z</time>
      </trkpt>
      <trkpt lat="43.90282" lon="3.9767">
        <ele>119.19999694824</ele>
        <time>2021-02-02T11:57:48.000Z</time>
      </trkpt>
      <trkpt lat="43.90278" lon="3.97665">
        <ele>119.40000152588</ele>
        <time>2021-02-02T11:57:50.000Z</time>
      </trkpt>
      <trkpt lat="43.90276" lon="3.97666">
        <ele>119.40000152588</ele>
        <time>2021-02-02T11:57:51.000Z</time>
      </trkpt>
      <trkpt lat="43.90273" lon="3.97673">
        <ele>119.59999847412</ele>
        <time>2021-02-02T11:57:54.000Z</time>
      </trkpt>
      <trkpt lat="43.90271" lon="3.97674">
        <ele>119.80000305176</ele>
        <time>2021-02-02T11:57:55.000Z</time>
      </trkpt>
      <trkpt lat="43.90267" lon="3.97676">
        <ele>120.59999847412</ele>
        <time>2021-02-02T11:57:57.000Z</time>
      </trkpt>
      <trkpt lat="43.90261" lon="3.97678">
        <ele>121.80000305176</ele>
        <time>2021-02-02T11:58:00.000Z</time>
      </trkpt>
      <trkpt lat="43.90255" lon="3.97679">
        <ele>122</ele>
        <time>2021-02-02T11:58:02.000Z</time>
      </trkpt>
      <trkpt lat="43.9025" lon="3.97676">
        <ele>122.59999847412</ele>
        <time>2021-02-02T11:58:04.000Z</time>
      </trkpt>
      <trkpt lat="43.90247" lon="3.97674">
        <ele>122.80000305176</ele>
        <time>2021-02-02T11:58:05.000Z</time>
      </trkpt>
      <trkpt lat="43.90238" lon="3.97671">
        <ele>123</ele>
        <time>2021-02-02T11:58:08.000Z</time>
      </trkpt>
      <trkpt lat="43.90226" lon="3.97669">
        <ele>124</ele>
        <time>2021-02-02T11:58:12.000Z</time>
      </trkpt>
      <trkpt lat="43.90224" lon="3.9767">
        <ele>124.40000152588</ele>
        <time>2021-02-02T11:58:13.000Z</time>
      </trkpt>
      <trkpt lat="43.90218" lon="3.97669">
        <ele>125.19999694824</ele>
        <time>2021-02-02T11:58:16.000Z</time>
      </trkpt>
      <trkpt lat="43.90215" lon="3.97668">
        <ele>125.19999694824</ele>
        <time>2021-02-02T11:58:18.000Z</time>
      </trkpt>
      <trkpt lat="43.90214" lon="3.97668">
        <ele>125.19999694824</ele>
        <time>2021-02-02T11:58:19.000Z</time>
      </trkpt>
      <trkpt lat="43.90214" lon="3.97668">
        <ele>125.19999694824</ele>
        <time>2021-02-02T11:58:20.000Z</time>
      </trkpt>
      <trkpt lat="43.90214" lon="3.97668">
        <ele>127</ele>
        <time>2021-02-02T12:03:21.000Z</time>
      </trkpt>
      <trkpt lat="43.90214" lon="3.97668">
        <ele>127</ele>
        <time>2021-02-02T12:03:22.000Z</time>
      </trkpt>
      <trkpt lat="43.90211" lon="3.97667">
        <ele>127.19999694824</ele>
        <time>2021-02-02T12:03:24.000Z</time>
      </trkpt>
      <trkpt lat="43.90209" lon="3.97666">
        <ele>127.19999694824</ele>
        <time>2021-02-02T12:03:25.000Z</time>
      </trkpt>
      <trkpt lat="43.90199" lon="3.97652">
        <ele>128</ele>
        <time>2021-02-02T12:03:29.000Z</time>
      </trkpt>
      <trkpt lat="43.90195" lon="3.97646">
        <ele>128.19999694824</ele>
        <time>2021-02-02T12:03:31.000Z</time>
      </trkpt>
      <trkpt lat="43.90188" lon="3.97642">
        <ele>128.19999694824</ele>
        <time>2021-02-02T12:03:33.000Z</time>
      </trkpt>
      <trkpt lat="43.90172" lon="3.97642">
        <ele>127.80000305176</ele>
        <time>2021-02-02T12:03:37.000Z</time>
      </trkpt>
      <trkpt lat="43.90169" lon="3.97644">
        <ele>128</ele>
        <time>2021-02-02T12:03:38.000Z</time>
      </trkpt>
      <trkpt lat="43.90161" lon="3.97652">
        <ele>128.39999389648</ele>
        <time>2021-02-02T12:03:41.000Z</time>
      </trkpt>
      <trkpt lat="43.90158" lon="3.97653">
        <ele>128.60000610352</ele>
        <time>2021-02-02T12:03:42.000Z</time>
      </trkpt>
      <trkpt lat="43.90153" lon="3.97653">
        <ele>129.19999694824</ele>
        <time>2021-02-02T12:03:44.000Z</time>
      </trkpt>
      <trkpt lat="43.90148" lon="3.97654">
        <ele>130.39999389648</ele>
        <time>2021-02-02T12:03:46.000Z</time>
      </trkpt>
      <trkpt lat="43.90147" lon="3.97654">
        <ele>131.19999694824</ele>
        <time>2021-02-02T12:03:47.000Z</time>
      </trkpt>
      <trkpt lat="43.90144" lon="3.97655">
        <ele>132</ele>
        <time>2021-02-02T12:03:48.000Z</time>
      </trkpt>
      <trkpt lat="43.90136" lon="3.97659">
        <ele>133.19999694824</ele>
        <time>2021-02-02T12:03:51.000Z</time>
      </trkpt>
      <trkpt lat="43.90134" lon="3.97661">
        <ele>133.39999389648</ele>
        <time>2021-02-02T12:03:52.000Z</time>
      </trkpt>
      <trkpt lat="43.90113" lon="3.97675">
        <ele>133.39999389648</ele>
        <time>2021-02-02T12:03:58.000Z</time>
      </trkpt>
      <trkpt lat="43.90084" lon="3.97688">
        <ele>133.19999694824</ele>
        <time>2021-02-02T12:04:06.000Z</time>
      </trkpt>
      <trkpt lat="43.90072" lon="3.97694">
        <ele>133.39999389648</ele>
        <time>2021-02-02T12:04:09.000Z</time>
      </trkpt>
      <trkpt lat="43.90059" lon="3.97698">
        <ele>133.39999389648</ele>
        <time>2021-02-02T12:04:12.000Z</time>
      </trkpt>
      <trkpt lat="43.9003" lon="3.97705">
        <ele>133.80000305176</ele>
        <time>2021-02-02T12:04:19.000Z</time>
      </trkpt>
      <trkpt lat="43.89993" lon="3.97704">
        <ele>133.39999389648</ele>
        <time>2021-02-02T12:04:28.000Z</time>
      </trkpt>
      <trkpt lat="43.89957" lon="3.97703">
        <ele>133.39999389648</ele>
        <time>2021-02-02T12:04:36.000Z</time>
      </trkpt>
      <trkpt lat="43.89934" lon="3.97703">
        <ele>133</ele>
        <time>2021-02-02T12:04:41.000Z</time>
      </trkpt>
      <trkpt lat="43.8992" lon="3.97704">
        <ele>133</ele>
        <time>2021-02-02T12:04:44.000Z</time>
      </trkpt>
      <trkpt lat="43.89888" lon="3.97699">
        <ele>133</ele>
        <time>2021-02-02T12:04:51.000Z</time>
      </trkpt>
      <trkpt lat="43.89861" lon="3.97691">
        <ele>133.19999694824</ele>
        <time>2021-02-02T12:04:57.000Z</time>
      </trkpt>
      <trkpt lat="43.89857" lon="3.97689">
        <ele>133</ele>
        <time>2021-02-02T12:04:58.000Z</time>
      </trkpt>
      <trkpt lat="43.89853" lon="3.97688">
        <ele>132.80000305176</ele>
        <time>2021-02-02T12:04:59.000Z</time>
      </trkpt>
      <trkpt lat="43.89837" lon="3.97681">
        <ele>133</ele>
        <time>2021-02-02T12:05:03.000Z</time>
      </trkpt>
      <trkpt lat="43.89829" lon="3.97678">
        <ele>133.19999694824</ele>
        <time>2021-02-02T12:05:05.000Z</time>
      </trkpt>
      <trkpt lat="43.89811" lon="3.97668">
        <ele>133.60000610352</ele>
        <time>2021-02-02T12:05:10.000Z</time>
      </trkpt>
      <trkpt lat="43.8979" lon="3.97655">
        <ele>134.19999694824</ele>
        <time>2021-02-02T12:05:17.000Z</time>
      </trkpt>
      <trkpt lat="43.89784" lon="3.97651">
        <ele>134.60000610352</ele>
        <time>2021-02-02T12:05:19.000Z</time>
      </trkpt>
      <trkpt lat="43.89763" lon="3.97639">
        <ele>134.60000610352</ele>
        <time>2021-02-02T12:05:25.000Z</time>
      </trkpt>
      <trkpt lat="43.8973" lon="3.97623">
        <ele>135</ele>
        <time>2021-02-02T12:05:34.000Z</time>
      </trkpt>
      <trkpt lat="43.89709" lon="3.97611">
        <ele>134.19999694824</ele>
        <time>2021-02-02T12:05:39.000Z</time>
      </trkpt>
      <trkpt lat="43.89701" lon="3.97608">
        <ele>133.60000610352</ele>
        <time>2021-02-02T12:05:41.000Z</time>
      </trkpt>
      <trkpt lat="43.89695" lon="3.97607">
        <ele>133.60000610352</ele>
        <time>2021-02-02T12:05:43.000Z</time>
      </trkpt>
      <trkpt lat="43.89678" lon="3.97603">
        <ele>134.39999389648</ele>
        <time>2021-02-02T12:05:48.000Z</time>
      </trkpt>
      <trkpt lat="43.89674" lon="3.97602">
        <ele>134.80000305176</ele>
        <time>2021-02-02T12:05:49.000Z</time>
      </trkpt>
      <trkpt lat="43.89663" lon="3.97603">
        <ele>136</ele>
        <time>2021-02-02T12:05:52.000Z</time>
      </trkpt>
      <trkpt lat="43.89656" lon="3.97604">
        <ele>136.39999389648</ele>
        <time>2021-02-02T12:05:54.000Z</time>
      </trkpt>
      <trkpt lat="43.89642" lon="3.97607">
        <ele>137.19999694824</ele>
        <time>2021-02-02T12:05:58.000Z</time>
      </trkpt>
      <trkpt lat="43.89635" lon="3.97608">
        <ele>137.60000610352</ele>
        <time>2021-02-02T12:06:00.000Z</time>
      </trkpt>
      <trkpt lat="43.89617" lon="3.97612">
        <ele>137.19999694824</ele>
        <time>2021-02-02T12:06:05.000Z</time>
      </trkpt>
      <trkpt lat="43.89604" lon="3.97615">
        <ele>137.19999694824</ele>
        <time>2021-02-02T12:06:08.000Z</time>
      </trkpt>
      <trkpt lat="43.896" lon="3.97617">
        <ele>137.19999694824</ele>
        <time>2021-02-02T12:06:09.000Z</time>
      </trkpt>
      <trkpt lat="43.8957" lon="3.97624">
        <ele>137.39999389648</ele>
        <time>2021-02-02T12:06:15.000Z</time>
      </trkpt>
      <trkpt lat="43.89561" lon="3.97624">
        <ele>137.19999694824</ele>
        <time>2021-02-02T12:06:17.000Z</time>
      </trkpt>
      <trkpt lat="43.89552" lon="3.97621">
        <ele>137</ele>
        <time>2021-02-02T12:06:19.000Z</time>
      </trkpt>
      <trkpt lat="43.89541" lon="3.97619">
        <ele>137</ele>
        <time>2021-02-02T12:06:22.000Z</time>
      </trkpt>
      <trkpt lat="43.89513" lon="3.97617">
        <ele>138</ele>
        <time>2021-02-02T12:06:29.000Z</time>
      </trkpt>
      <trkpt lat="43.89495" lon="3.97616">
        <ele>138.60000610352</ele>
        <time>2021-02-02T12:06:34.000Z</time>
      </trkpt>
      <trkpt lat="43.89491" lon="3.97617">
        <ele>139</ele>
        <time>2021-02-02T12:06:35.000Z</time>
      </trkpt>
      <trkpt lat="43.89474" lon="3.97616">
        <ele>139.19999694824</ele>
        <time>2021-02-02T12:06:39.000Z</time>
      </trkpt>
      <trkpt lat="43.89471" lon="3.97616">
        <ele>138.80000305176</ele>
        <time>2021-02-02T12:06:40.000Z</time>
      </trkpt>
      <trkpt lat="43.89466" lon="3.97619">
        <ele>137.80000305176</ele>
        <time>2021-02-02T12:06:43.000Z</time>
      </trkpt>
      <trkpt lat="43.89466" lon="3.97633">
        <ele>137.19999694824</ele>
        <time>2021-02-02T12:06:47.000Z</time>
      </trkpt>
      <trkpt lat="43.89457" lon="3.97648">
        <ele>137.39999389648</ele>
        <time>2021-02-02T12:06:50.000Z</time>
      </trkpt>
      <trkpt lat="43.89447" lon="3.97653">
        <ele>136.39999389648</ele>
        <time>2021-02-02T12:06:52.000Z</time>
      </trkpt>
      <trkpt lat="43.89441" lon="3.97653">
        <ele>136</ele>
        <time>2021-02-02T12:06:53.000Z</time>
      </trkpt>
      <trkpt lat="43.89431" lon="3.97649">
        <ele>135.39999389648</ele>
        <time>2021-02-02T12:06:55.000Z</time>
      </trkpt>
      <trkpt lat="43.89426" lon="3.97647">
        <ele>135.19999694824</ele>
        <time>2021-02-02T12:06:56.000Z</time>
      </trkpt>
      <trkpt lat="43.8942" lon="3.97648">
        <ele>135.39999389648</ele>
        <time>2021-02-02T12:06:57.000Z</time>
      </trkpt>
      <trkpt lat="43.89408" lon="3.97663">
        <ele>135.39999389648</ele>
        <time>2021-02-02T12:07:00.000Z</time>
      </trkpt>
      <trkpt lat="43.89403" lon="3.97673">
        <ele>135</ele>
        <time>2021-02-02T12:07:02.000Z</time>
      </trkpt>
      <trkpt lat="43.89394" lon="3.97684">
        <ele>135.39999389648</ele>
        <time>2021-02-02T12:07:05.000Z</time>
      </trkpt>
      <trkpt lat="43.89383" lon="3.97693">
        <ele>135.60000610352</ele>
        <time>2021-02-02T12:07:08.000Z</time>
      </trkpt>
      <trkpt lat="43.89376" lon="3.97702">
        <ele>136</ele>
        <time>2021-02-02T12:07:10.000Z</time>
      </trkpt>
      <trkpt lat="43.89362" lon="3.97707">
        <ele>135.80000305176</ele>
        <time>2021-02-02T12:07:14.000Z</time>
      </trkpt>
      <trkpt lat="43.89355" lon="3.97699">
        <ele>135.19999694824</ele>
        <time>2021-02-02T12:07:16.000Z</time>
      </trkpt>
      <trkpt lat="43.89351" lon="3.97696">
        <ele>135.39999389648</ele>
        <time>2021-02-02T12:07:17.000Z</time>
      </trkpt>
      <trkpt lat="43.89339" lon="3.97693">
        <ele>135.60000610352</ele>
        <time>2021-02-02T12:07:20.000Z</time>
      </trkpt>
      <trkpt lat="43.89334" lon="3.97694">
        <ele>136</ele>
        <time>2021-02-02T12:07:21.000Z</time>
      </trkpt>
      <trkpt lat="43.8933" lon="3.97694">
        <ele>136.19999694824</ele>
        <time>2021-02-02T12:07:22.000Z</time>
      </trkpt>
      <trkpt lat="43.89311" lon="3.97694">
        <ele>137.39999389648</ele>
        <time>2021-02-02T12:07:26.000Z</time>
      </trkpt>
      <trkpt lat="43.89298" lon="3.97692">
        <ele>137.19999694824</ele>
        <time>2021-02-02T12:07:29.000Z</time>
      </trkpt>
      <trkpt lat="43.89286" lon="3.97687">
        <ele>136.80000305176</ele>
        <time>2021-02-02T12:07:32.000Z</time>
      </trkpt>
      <trkpt lat="43.89282" lon="3.97685">
        <ele>136.80000305176</ele>
        <time>2021-02-02T12:07:33.000Z</time>
      </trkpt>
      <trkpt lat="43.89257" lon="3.97671">
        <ele>137.19999694824</ele>
        <time>2021-02-02T12:07:39.000Z</time>
      </trkpt>
      <trkpt lat="43.89237" lon="3.97664">
        <ele>137.39999389648</ele>
        <time>2021-02-02T12:07:44.000Z</time>
      </trkpt>
      <trkpt lat="43.89228" lon="3.97657">
        <ele>138</ele>
        <time>2021-02-02T12:07:47.000Z</time>
      </trkpt>
      <trkpt lat="43.89223" lon="3.97652">
        <ele>138.80000305176</ele>
        <time>2021-02-02T12:07:49.000Z</time>
      </trkpt>
      <trkpt lat="43.89215" lon="3.97646">
        <ele>139.80000305176</ele>
        <time>2021-02-02T12:07:52.000Z</time>
      </trkpt>
      <trkpt lat="43.89206" lon="3.9764">
        <ele>140.39999389648</ele>
        <time>2021-02-02T12:07:55.000Z</time>
      </trkpt>
      <trkpt lat="43.89196" lon="3.97636">
        <ele>141</ele>
        <time>2021-02-02T12:07:58.000Z</time>
      </trkpt>
      <trkpt lat="43.89181" lon="3.97633">
        <ele>141.60000610352</ele>
        <time>2021-02-02T12:08:03.000Z</time>
      </trkpt>
      <trkpt lat="43.89154" lon="3.97634">
        <ele>141.80000305176</ele>
        <time>2021-02-02T12:08:10.000Z</time>
      </trkpt>
      <trkpt lat="43.89136" lon="3.97644">
        <ele>141</ele>
        <time>2021-02-02T12:08:14.000Z</time>
      </trkpt>
      <trkpt lat="43.89131" lon="3.97648">
        <ele>140.60000610352</ele>
        <time>2021-02-02T12:08:15.000Z</time>
      </trkpt>
      <trkpt lat="43.89126" lon="3.97651">
        <ele>140</ele>
        <time>2021-02-02T12:08:16.000Z</time>
      </trkpt>
      <trkpt lat="43.89116" lon="3.97657">
        <ele>139.60000610352</ele>
        <time>2021-02-02T12:08:18.000Z</time>
      </trkpt>
      <trkpt lat="43.89112" lon="3.97661">
        <ele>139.39999389648</ele>
        <time>2021-02-02T12:08:19.000Z</time>
      </trkpt>
      <trkpt lat="43.89101" lon="3.97666">
        <ele>139</ele>
        <time>2021-02-02T12:08:21.000Z</time>
      </trkpt>
      <trkpt lat="43.89096" lon="3.97668">
        <ele>139</ele>
        <time>2021-02-02T12:08:22.000Z</time>
      </trkpt>
      <trkpt lat="43.89087" lon="3.97673">
        <ele>138.80000305176</ele>
        <time>2021-02-02T12:08:24.000Z</time>
      </trkpt>
      <trkpt lat="43.89055" lon="3.9769">
        <ele>138.60000610352</ele>
        <time>2021-02-02T12:08:30.000Z</time>
      </trkpt>
      <trkpt lat="43.89028" lon="3.977">
        <ele>139.19999694824</ele>
        <time>2021-02-02T12:08:36.000Z</time>
      </trkpt>
      <trkpt lat="43.89023" lon="3.97701">
        <ele>139</ele>
        <time>2021-02-02T12:08:37.000Z</time>
      </trkpt>
      <trkpt lat="43.89005" lon="3.97702">
        <ele>140.19999694824</ele>
        <time>2021-02-02T12:08:41.000Z</time>
      </trkpt>
      <trkpt lat="43.88984" lon="3.97702">
        <ele>140.80000305176</ele>
        <time>2021-02-02T12:08:46.000Z</time>
      </trkpt>
      <trkpt lat="43.88972" lon="3.97701">
        <ele>141.60000610352</ele>
        <time>2021-02-02T12:08:49.000Z</time>
      </trkpt>
      <trkpt lat="43.88961" lon="3.977">
        <ele>142.80000305176</ele>
        <time>2021-02-02T12:08:52.000Z</time>
      </trkpt>
      <trkpt lat="43.8895" lon="3.977">
        <ele>143.39999389648</ele>
        <time>2021-02-02T12:08:55.000Z</time>
      </trkpt>
      <trkpt lat="43.8894" lon="3.977">
        <ele>144</ele>
        <time>2021-02-02T12:08:58.000Z</time>
      </trkpt>
      <trkpt lat="43.88917" lon="3.97699">
        <ele>144.80000305176</ele>
        <time>2021-02-02T12:09:05.000Z</time>
      </trkpt>
      <trkpt lat="43.88911" lon="3.97698">
        <ele>145.19999694824</ele>
        <time>2021-02-02T12:09:07.000Z</time>
      </trkpt>
      <trkpt lat="43.88904" lon="3.97697">
        <ele>146.39999389648</ele>
        <time>2021-02-02T12:09:09.000Z</time>
      </trkpt>
      <trkpt lat="43.88892" lon="3.97694">
        <ele>147.19999694824</ele>
        <time>2021-02-02T12:09:13.000Z</time>
      </trkpt>
      <trkpt lat="43.88886" lon="3.97691">
        <ele>147.60000610352</ele>
        <time>2021-02-02T12:09:15.000Z</time>
      </trkpt>
      <trkpt lat="43.88874" lon="3.97688">
        <ele>148.39999389648</ele>
        <time>2021-02-02T12:09:19.000Z</time>
      </trkpt>
      <trkpt lat="43.88869" lon="3.97685">
        <ele>148.39999389648</ele>
        <time>2021-02-02T12:09:21.000Z</time>
      </trkpt>
      <trkpt lat="43.88865" lon="3.9768">
        <ele>148.39999389648</ele>
        <time>2021-02-02T12:09:23.000Z</time>
      </trkpt>
      <trkpt lat="43.8886" lon="3.97676">
        <ele>148.80000305176</ele>
        <time>2021-02-02T12:09:25.000Z</time>
      </trkpt>
      <trkpt lat="43.8885" lon="3.97673">
        <ele>149.19999694824</ele>
        <time>2021-02-02T12:09:28.000Z</time>
      </trkpt>
      <trkpt lat="43.88824" lon="3.97659">
        <ele>150</ele>
        <time>2021-02-02T12:09:36.000Z</time>
      </trkpt>
      <trkpt lat="43.88802" lon="3.97634">
        <ele>150.60000610352</ele>
        <time>2021-02-02T12:09:44.000Z</time>
      </trkpt>
      <trkpt lat="43.88779" lon="3.976">
        <ele>150.60000610352</ele>
        <time>2021-02-02T12:09:52.000Z</time>
      </trkpt>
      <trkpt lat="43.8877" lon="3.97587">
        <ele>151</ele>
        <time>2021-02-02T12:09:55.000Z</time>
      </trkpt>
      <trkpt lat="43.88755" lon="3.97565">
        <ele>151.19999694824</ele>
        <time>2021-02-02T12:10:00.000Z</time>
      </trkpt>
      <trkpt lat="43.88745" lon="3.97546">
        <ele>151</ele>
        <time>2021-02-02T12:10:04.000Z</time>
      </trkpt>
      <trkpt lat="43.88743" lon="3.97535">
        <ele>150.80000305176</ele>
        <time>2021-02-02T12:10:06.000Z</time>
      </trkpt>
      <trkpt lat="43.88748" lon="3.97517">
        <ele>150.60000610352</ele>
        <time>2021-02-02T12:10:10.000Z</time>
      </trkpt>
      <trkpt lat="43.8875" lon="3.97514">
        <ele>150.60000610352</ele>
        <time>2021-02-02T12:10:11.000Z</time>
      </trkpt>
      <trkpt lat="43.88764" lon="3.97492">
        <ele>152.60000610352</ele>
        <time>2021-02-02T12:10:17.000Z</time>
      </trkpt>
      <trkpt lat="43.88765" lon="3.97488">
        <ele>153.19999694824</ele>
        <time>2021-02-02T12:10:18.000Z</time>
      </trkpt>
      <trkpt lat="43.88765" lon="3.97483">
        <ele>154.19999694824</ele>
        <time>2021-02-02T12:10:19.000Z</time>
      </trkpt>
      <trkpt lat="43.8876" lon="3.97471">
        <ele>154.80000305176</ele>
        <time>2021-02-02T12:10:22.000Z</time>
      </trkpt>
      <trkpt lat="43.88744" lon="3.97445">
        <ele>154.80000305176</ele>
        <time>2021-02-02T12:10:28.000Z</time>
      </trkpt>
      <trkpt lat="43.88725" lon="3.97413">
        <ele>153.19999694824</ele>
        <time>2021-02-02T12:10:33.000Z</time>
      </trkpt>
      <trkpt lat="43.88721" lon="3.97405">
        <ele>152.80000305176</ele>
        <time>2021-02-02T12:10:34.000Z</time>
      </trkpt>
      <trkpt lat="43.88707" lon="3.97382">
        <ele>151.60000610352</ele>
        <time>2021-02-02T12:10:37.000Z</time>
      </trkpt>
      <trkpt lat="43.88702" lon="3.97375">
        <ele>151.39999389648</ele>
        <time>2021-02-02T12:10:38.000Z</time>
      </trkpt>
      <trkpt lat="43.88691" lon="3.97365">
        <ele>150.39999389648</ele>
        <time>2021-02-02T12:10:40.000Z</time>
      </trkpt>
      <trkpt lat="43.88686" lon="3.9736">
        <ele>150</ele>
        <time>2021-02-02T12:10:41.000Z</time>
      </trkpt>
      <trkpt lat="43.88681" lon="3.97354">
        <ele>150</ele>
        <time>2021-02-02T12:10:42.000Z</time>
      </trkpt>
      <trkpt lat="43.88655" lon="3.97318">
        <ele>149.80000305176</ele>
        <time>2021-02-02T12:10:48.000Z</time>
      </trkpt>
      <trkpt lat="43.88631" lon="3.9729">
        <ele>149.19999694824</ele>
        <time>2021-02-02T12:10:53.000Z</time>
      </trkpt>
      <trkpt lat="43.88626" lon="3.97286">
        <ele>149</ele>
        <time>2021-02-02T12:10:54.000Z</time>
      </trkpt>
      <trkpt lat="43.88614" lon="3.97271">
        <ele>148.80000305176</ele>
        <time>2021-02-02T12:10:57.000Z</time>
      </trkpt>
      <trkpt lat="43.88609" lon="3.97266">
        <ele>148.80000305176</ele>
        <time>2021-02-02T12:10:58.000Z</time>
      </trkpt>
      <trkpt lat="43.88605" lon="3.97262">
        <ele>148.60000610352</ele>
        <time>2021-02-02T12:10:59.000Z</time>
      </trkpt>
      <trkpt lat="43.88597" lon="3.97251">
        <ele>148.60000610352</ele>
        <time>2021-02-02T12:11:01.000Z</time>
      </trkpt>
      <trkpt lat="43.88593" lon="3.97247">
        <ele>148.39999389648</ele>
        <time>2021-02-02T12:11:02.000Z</time>
      </trkpt>
      <trkpt lat="43.88589" lon="3.97243">
        <ele>148</ele>
        <time>2021-02-02T12:11:03.000Z</time>
      </trkpt>
      <trkpt lat="43.88574" lon="3.97222">
        <ele>148.80000305176</ele>
        <time>2021-02-02T12:11:08.000Z</time>
      </trkpt>
      <trkpt lat="43.88571" lon="3.97218">
        <ele>149.19999694824</ele>
        <time>2021-02-02T12:11:09.000Z</time>
      </trkpt>
      <trkpt lat="43.88567" lon="3.97207">
        <ele>149.60000610352</ele>
        <time>2021-02-02T12:11:12.000Z</time>
      </trkpt>
      <trkpt lat="43.88561" lon="3.97187">
        <ele>150.39999389648</ele>
        <time>2021-02-02T12:11:17.000Z</time>
      </trkpt>
      <trkpt lat="43.88559" lon="3.97183">
        <ele>150.60000610352</ele>
        <time>2021-02-02T12:11:18.000Z</time>
      </trkpt>
      <trkpt lat="43.88556" lon="3.97174">
        <ele>151</ele>
        <time>2021-02-02T12:11:20.000Z</time>
      </trkpt>
      <trkpt lat="43.8855" lon="3.9716">
        <ele>151.39999389648</ele>
        <time>2021-02-02T12:11:23.000Z</time>
      </trkpt>
      <trkpt lat="43.88544" lon="3.97145">
        <ele>151.60000610352</ele>
        <time>2021-02-02T12:11:26.000Z</time>
      </trkpt>
      <trkpt lat="43.88542" lon="3.9714">
        <ele>151.60000610352</ele>
        <time>2021-02-02T12:11:27.000Z</time>
      </trkpt>
      <trkpt lat="43.88528" lon="3.97104">
        <ele>151.19999694824</ele>
        <time>2021-02-02T12:11:34.000Z</time>
      </trkpt>
      <trkpt lat="43.88526" lon="3.97099">
        <ele>151.60000610352</ele>
        <time>2021-02-02T12:11:35.000Z</time>
      </trkpt>
      <trkpt lat="43.88516" lon="3.9708">
        <ele>152.39999389648</ele>
        <time>2021-02-02T12:11:39.000Z</time>
      </trkpt>
      <trkpt lat="43.8851" lon="3.97065">
        <ele>152.60000610352</ele>
        <time>2021-02-02T12:11:42.000Z</time>
      </trkpt>
      <trkpt lat="43.88504" lon="3.97051">
        <ele>153.19999694824</ele>
        <time>2021-02-02T12:11:45.000Z</time>
      </trkpt>
      <trkpt lat="43.88501" lon="3.97046">
        <ele>154</ele>
        <time>2021-02-02T12:11:46.000Z</time>
      </trkpt>
      <trkpt lat="43.88493" lon="3.97034">
        <ele>155.19999694824</ele>
        <time>2021-02-02T12:11:49.000Z</time>
      </trkpt>
      <trkpt lat="43.8849" lon="3.97031">
        <ele>155.19999694824</ele>
        <time>2021-02-02T12:11:50.000Z</time>
      </trkpt>
      <trkpt lat="43.88473" lon="3.97016">
        <ele>155</ele>
        <time>2021-02-02T12:11:55.000Z</time>
      </trkpt>
      <trkpt lat="43.88459" lon="3.97002">
        <ele>155</ele>
        <time>2021-02-02T12:11:59.000Z</time>
      </trkpt>
      <trkpt lat="43.88456" lon="3.97">
        <ele>155.39999389648</ele>
        <time>2021-02-02T12:12:00.000Z</time>
      </trkpt>
      <trkpt lat="43.88451" lon="3.96993">
        <ele>156.19999694824</ele>
        <time>2021-02-02T12:12:02.000Z</time>
      </trkpt>
      <trkpt lat="43.88447" lon="3.96989">
        <ele>156.60000610352</ele>
        <time>2021-02-02T12:12:04.000Z</time>
      </trkpt>
      <trkpt lat="43.88445" lon="3.96986">
        <ele>157.19999694824</ele>
        <time>2021-02-02T12:12:05.000Z</time>
      </trkpt>
      <trkpt lat="43.8844" lon="3.96981">
        <ele>158.39999389648</ele>
        <time>2021-02-02T12:12:08.000Z</time>
      </trkpt>
      <trkpt lat="43.88438" lon="3.96979">
        <ele>158.60000610352</ele>
        <time>2021-02-02T12:12:09.000Z</time>
      </trkpt>
      <trkpt lat="43.88426" lon="3.96966">
        <ele>159.60000610352</ele>
        <time>2021-02-02T12:12:14.000Z</time>
      </trkpt>
      <trkpt lat="43.88424" lon="3.96964">
        <ele>160</ele>
        <time>2021-02-02T12:12:15.000Z</time>
      </trkpt>
      <trkpt lat="43.88414" lon="3.96955">
        <ele>160.80000305176</ele>
        <time>2021-02-02T12:12:19.000Z</time>
      </trkpt>
      <trkpt lat="43.88411" lon="3.96952">
        <ele>161</ele>
        <time>2021-02-02T12:12:20.000Z</time>
      </trkpt>
      <trkpt lat="43.88392" lon="3.96939">
        <ele>161.60000610352</ele>
        <time>2021-02-02T12:12:26.000Z</time>
      </trkpt>
      <trkpt lat="43.88388" lon="3.96937">
        <ele>161.80000305176</ele>
        <time>2021-02-02T12:12:27.000Z</time>
      </trkpt>
      <trkpt lat="43.88371" lon="3.96924">
        <ele>162</ele>
        <time>2021-02-02T12:12:32.000Z</time>
      </trkpt>
      <trkpt lat="43.88353" lon="3.96904">
        <ele>161.39999389648</ele>
        <time>2021-02-02T12:12:38.000Z</time>
      </trkpt>
      <trkpt lat="43.88346" lon="3.96894">
        <ele>161.39999389648</ele>
        <time>2021-02-02T12:12:40.000Z</time>
      </trkpt>
      <trkpt lat="43.88343" lon="3.96888">
        <ele>160.80000305176</ele>
        <time>2021-02-02T12:12:41.000Z</time>
      </trkpt>
      <trkpt lat="43.88341" lon="3.96882">
        <ele>160.39999389648</ele>
        <time>2021-02-02T12:12:42.000Z</time>
      </trkpt>
      <trkpt lat="43.88341" lon="3.96869">
        <ele>160.19999694824</ele>
        <time>2021-02-02T12:12:44.000Z</time>
      </trkpt>
      <trkpt lat="43.88341" lon="3.96862">
        <ele>160</ele>
        <time>2021-02-02T12:12:45.000Z</time>
      </trkpt>
      <trkpt lat="43.88342" lon="3.96855">
        <ele>160</ele>
        <time>2021-02-02T12:12:46.000Z</time>
      </trkpt>
      <trkpt lat="43.88343" lon="3.96848">
        <ele>160</ele>
        <time>2021-02-02T12:12:47.000Z</time>
      </trkpt>
      <trkpt lat="43.88343" lon="3.9684">
        <ele>159.39999389648</ele>
        <time>2021-02-02T12:12:48.000Z</time>
      </trkpt>
      <trkpt lat="43.88344" lon="3.96826">
        <ele>158.60000610352</ele>
        <time>2021-02-02T12:12:50.000Z</time>
      </trkpt>
      <trkpt lat="43.88345" lon="3.9682">
        <ele>158.39999389648</ele>
        <time>2021-02-02T12:12:51.000Z</time>
      </trkpt>
      <trkpt lat="43.88347" lon="3.96804">
        <ele>159.60000610352</ele>
        <time>2021-02-02T12:12:54.000Z</time>
      </trkpt>
      <trkpt lat="43.88355" lon="3.96791">
        <ele>160.19999694824</ele>
        <time>2021-02-02T12:12:58.000Z</time>
      </trkpt>
      <trkpt lat="43.88363" lon="3.96767">
        <ele>160.60000610352</ele>
        <time>2021-02-02T12:13:03.000Z</time>
      </trkpt>
      <trkpt lat="43.88364" lon="3.96762">
        <ele>160.80000305176</ele>
        <time>2021-02-02T12:13:04.000Z</time>
      </trkpt>
      <trkpt lat="43.88364" lon="3.96739">
        <ele>161.39999389648</ele>
        <time>2021-02-02T12:13:09.000Z</time>
      </trkpt>
      <trkpt lat="43.88362" lon="3.96717">
        <ele>161.80000305176</ele>
        <time>2021-02-02T12:13:14.000Z</time>
      </trkpt>
      <trkpt lat="43.88361" lon="3.9671">
        <ele>162</ele>
        <time>2021-02-02T12:13:16.000Z</time>
      </trkpt>
      <trkpt lat="43.88357" lon="3.96697">
        <ele>163.39999389648</ele>
        <time>2021-02-02T12:13:20.000Z</time>
      </trkpt>
      <trkpt lat="43.88357" lon="3.96693">
        <ele>164</ele>
        <time>2021-02-02T12:13:21.000Z</time>
      </trkpt>
      <trkpt lat="43.88356" lon="3.96689">
        <ele>164.39999389648</ele>
        <time>2021-02-02T12:13:22.000Z</time>
      </trkpt>
      <trkpt lat="43.88353" lon="3.96681">
        <ele>165.19999694824</ele>
        <time>2021-02-02T12:13:24.000Z</time>
      </trkpt>
      <trkpt lat="43.88352" lon="3.96676">
        <ele>165.39999389648</ele>
        <time>2021-02-02T12:13:25.000Z</time>
      </trkpt>
      <trkpt lat="43.88349" lon="3.96668">
        <ele>165.60000610352</ele>
        <time>2021-02-02T12:13:27.000Z</time>
      </trkpt>
      <trkpt lat="43.8835" lon="3.96664">
        <ele>165.80000305176</ele>
        <time>2021-02-02T12:13:28.000Z</time>
      </trkpt>
      <trkpt lat="43.8835" lon="3.96661">
        <ele>166</ele>
        <time>2021-02-02T12:13:29.000Z</time>
      </trkpt>
      <trkpt lat="43.8835" lon="3.96658">
        <ele>166</ele>
        <time>2021-02-02T12:13:30.000Z</time>
      </trkpt>
      <trkpt lat="43.88348" lon="3.96651">
        <ele>166.60000610352</ele>
        <time>2021-02-02T12:13:32.000Z</time>
      </trkpt>
      <trkpt lat="43.88348" lon="3.96646">
        <ele>167</ele>
        <time>2021-02-02T12:13:33.000Z</time>
      </trkpt>
      <trkpt lat="43.88345" lon="3.96626">
        <ele>167.80000305176</ele>
        <time>2021-02-02T12:13:38.000Z</time>
      </trkpt>
      <trkpt lat="43.88345" lon="3.96621">
        <ele>168</ele>
        <time>2021-02-02T12:13:39.000Z</time>
      </trkpt>
      <trkpt lat="43.88344" lon="3.96607">
        <ele>169</ele>
        <time>2021-02-02T12:13:43.000Z</time>
      </trkpt>
      <trkpt lat="43.88343" lon="3.96605">
        <ele>169.39999389648</ele>
        <time>2021-02-02T12:13:44.000Z</time>
      </trkpt>
      <trkpt lat="43.88339" lon="3.96601">
        <ele>170</ele>
        <time>2021-02-02T12:13:46.000Z</time>
      </trkpt>
      <trkpt lat="43.88337" lon="3.96598">
        <ele>170.19999694824</ele>
        <time>2021-02-02T12:13:47.000Z</time>
      </trkpt>
      <trkpt lat="43.88327" lon="3.96577">
        <ele>171.60000610352</ele>
        <time>2021-02-02T12:13:53.000Z</time>
      </trkpt>
      <trkpt lat="43.88327" lon="3.96561">
        <ele>171.80000305176</ele>
        <time>2021-02-02T12:13:57.000Z</time>
      </trkpt>
      <trkpt lat="43.88328" lon="3.96551">
        <ele>172.39999389648</ele>
        <time>2021-02-02T12:14:00.000Z</time>
      </trkpt>
      <trkpt lat="43.88329" lon="3.96544">
        <ele>172.60000610352</ele>
        <time>2021-02-02T12:14:02.000Z</time>
      </trkpt>
      <trkpt lat="43.88328" lon="3.9653">
        <ele>173.60000610352</ele>
        <time>2021-02-02T12:14:06.000Z</time>
      </trkpt>
      <trkpt lat="43.88329" lon="3.96527">
        <ele>174</ele>
        <time>2021-02-02T12:14:07.000Z</time>
      </trkpt>
      <trkpt lat="43.88331" lon="3.96508">
        <ele>175</ele>
        <time>2021-02-02T12:14:13.000Z</time>
      </trkpt>
      <trkpt lat="43.88332" lon="3.96497">
        <ele>176</ele>
        <time>2021-02-02T12:14:17.000Z</time>
      </trkpt>
      <trkpt lat="43.88331" lon="3.96492">
        <ele>176.80000305176</ele>
        <time>2021-02-02T12:14:19.000Z</time>
      </trkpt>
      <trkpt lat="43.8833" lon="3.96477">
        <ele>177</ele>
        <time>2021-02-02T12:14:24.000Z</time>
      </trkpt>
      <trkpt lat="43.88329" lon="3.96474">
        <ele>177.19999694824</ele>
        <time>2021-02-02T12:14:25.000Z</time>
      </trkpt>
      <trkpt lat="43.88329" lon="3.96467">
        <ele>178.39999389648</ele>
        <time>2021-02-02T12:14:28.000Z</time>
      </trkpt>
      <trkpt lat="43.88329" lon="3.96464">
        <ele>178.60000610352</ele>
        <time>2021-02-02T12:14:29.000Z</time>
      </trkpt>
      <trkpt lat="43.88332" lon="3.96455">
        <ele>179.60000610352</ele>
        <time>2021-02-02T12:14:33.000Z</time>
      </trkpt>
      <trkpt lat="43.88333" lon="3.9645">
        <ele>180.60000610352</ele>
        <time>2021-02-02T12:14:36.000Z</time>
      </trkpt>
      <trkpt lat="43.88334" lon="3.96447">
        <ele>180.60000610352</ele>
        <time>2021-02-02T12:14:37.000Z</time>
      </trkpt>
      <trkpt lat="43.88335" lon="3.96445">
        <ele>180.80000305176</ele>
        <time>2021-02-02T12:14:38.000Z</time>
      </trkpt>
      <trkpt lat="43.88331" lon="3.96435">
        <ele>181.80000305176</ele>
        <time>2021-02-02T12:14:41.000Z</time>
      </trkpt>
      <trkpt lat="43.88324" lon="3.96424">
        <ele>182.19999694824</ele>
        <time>2021-02-02T12:14:45.000Z</time>
      </trkpt>
      <trkpt lat="43.88321" lon="3.96423">
        <ele>182.19999694824</ele>
        <time>2021-02-02T12:14:46.000Z</time>
      </trkpt>
      <trkpt lat="43.88319" lon="3.96421">
        <ele>182.19999694824</ele>
        <time>2021-02-02T12:14:47.000Z</time>
      </trkpt>
      <trkpt lat="43.88317" lon="3.96415">
        <ele>182.19999694824</ele>
        <time>2021-02-02T12:14:49.000Z</time>
      </trkpt>
      <trkpt lat="43.88312" lon="3.96408">
        <ele>182.19999694824</ele>
        <time>2021-02-02T12:14:52.000Z</time>
      </trkpt>
      <trkpt lat="43.883" lon="3.964">
        <ele>181.39999389648</ele>
        <time>2021-02-02T12:14:56.000Z</time>
      </trkpt>
      <trkpt lat="43.88298" lon="3.96393">
        <ele>180.60000610352</ele>
        <time>2021-02-02T12:14:58.000Z</time>
      </trkpt>
      <trkpt lat="43.88297" lon="3.96387">
        <ele>181</ele>
        <time>2021-02-02T12:15:00.000Z</time>
      </trkpt>
      <trkpt lat="43.88297" lon="3.96382">
        <ele>181.80000305176</ele>
        <time>2021-02-02T12:15:02.000Z</time>
      </trkpt>
      <trkpt lat="43.88296" lon="3.96376">
        <ele>182.39999389648</ele>
        <time>2021-02-02T12:15:04.000Z</time>
      </trkpt>
      <trkpt lat="43.88293" lon="3.96372">
        <ele>182.80000305176</ele>
        <time>2021-02-02T12:15:06.000Z</time>
      </trkpt>
      <trkpt lat="43.88291" lon="3.9637">
        <ele>182.80000305176</ele>
        <time>2021-02-02T12:15:07.000Z</time>
      </trkpt>
      <trkpt lat="43.88287" lon="3.96359">
        <ele>182.80000305176</ele>
        <time>2021-02-02T12:15:11.000Z</time>
      </trkpt>
      <trkpt lat="43.88279" lon="3.96347">
        <ele>182.60000610352</ele>
        <time>2021-02-02T12:15:15.000Z</time>
      </trkpt>
      <trkpt lat="43.88272" lon="3.96325">
        <ele>182</ele>
        <time>2021-02-02T12:15:20.000Z</time>
      </trkpt>
      <trkpt lat="43.88264" lon="3.96322">
        <ele>182.39999389648</ele>
        <time>2021-02-02T12:15:23.000Z</time>
      </trkpt>
      <trkpt lat="43.88261" lon="3.96321">
        <ele>182.39999389648</ele>
        <time>2021-02-02T12:15:24.000Z</time>
      </trkpt>
      <trkpt lat="43.88257" lon="3.96317">
        <ele>182.19999694824</ele>
        <time>2021-02-02T12:15:26.000Z</time>
      </trkpt>
      <trkpt lat="43.88259" lon="3.96302">
        <ele>182.19999694824</ele>
        <time>2021-02-02T12:15:31.000Z</time>
      </trkpt>
      <trkpt lat="43.88255" lon="3.96292">
        <ele>182.39999389648</ele>
        <time>2021-02-02T12:15:34.000Z</time>
      </trkpt>
      <trkpt lat="43.88256" lon="3.9628">
        <ele>182.39999389648</ele>
        <time>2021-02-02T12:15:37.000Z</time>
      </trkpt>
      <trkpt lat="43.88256" lon="3.96277">
        <ele>182.39999389648</ele>
        <time>2021-02-02T12:15:38.000Z</time>
      </trkpt>
      <trkpt lat="43.88252" lon="3.96271">
        <ele>182.60000610352</ele>
        <time>2021-02-02T12:15:40.000Z</time>
      </trkpt>
      <trkpt lat="43.88243" lon="3.96263">
        <ele>182.60000610352</ele>
        <time>2021-02-02T12:15:44.000Z</time>
      </trkpt>
      <trkpt lat="43.88238" lon="3.96256">
        <ele>182.39999389648</ele>
        <time>2021-02-02T12:15:46.000Z</time>
      </trkpt>
      <trkpt lat="43.88237" lon="3.96253">
        <ele>182.39999389648</ele>
        <time>2021-02-02T12:15:47.000Z</time>
      </trkpt>
      <trkpt lat="43.88237" lon="3.9625">
        <ele>182.39999389648</ele>
        <time>2021-02-02T12:15:48.000Z</time>
      </trkpt>
      <trkpt lat="43.88236" lon="3.96241">
        <ele>182.80000305176</ele>
        <time>2021-02-02T12:15:51.000Z</time>
      </trkpt>
      <trkpt lat="43.8823" lon="3.96229">
        <ele>183.19999694824</ele>
        <time>2021-02-02T12:15:55.000Z</time>
      </trkpt>
      <trkpt lat="43.88223" lon="3.9622">
        <ele>184.19999694824</ele>
        <time>2021-02-02T12:15:58.000Z</time>
      </trkpt>
      <trkpt lat="43.88219" lon="3.96218">
        <ele>184.39999389648</ele>
        <time>2021-02-02T12:15:59.000Z</time>
      </trkpt>
      <trkpt lat="43.88217" lon="3.96212">
        <ele>184.80000305176</ele>
        <time>2021-02-02T12:16:02.000Z</time>
      </trkpt>
      <trkpt lat="43.88216" lon="3.962">
        <ele>184.80000305176</ele>
        <time>2021-02-02T12:16:05.000Z</time>
      </trkpt>
      <trkpt lat="43.88218" lon="3.96193">
        <ele>185.19999694824</ele>
        <time>2021-02-02T12:16:08.000Z</time>
      </trkpt>
      <trkpt lat="43.88214" lon="3.96184">
        <ele>185.39999389648</ele>
        <time>2021-02-02T12:16:11.000Z</time>
      </trkpt>
      <trkpt lat="43.88208" lon="3.96182">
        <ele>185.60000610352</ele>
        <time>2021-02-02T12:16:14.000Z</time>
      </trkpt>
      <trkpt lat="43.88207" lon="3.96168">
        <ele>185.80000305176</ele>
        <time>2021-02-02T12:16:18.000Z</time>
      </trkpt>
      <trkpt lat="43.8821" lon="3.96163">
        <ele>186</ele>
        <time>2021-02-02T12:16:20.000Z</time>
      </trkpt>
      <trkpt lat="43.88217" lon="3.96158">
        <ele>186.19999694824</ele>
        <time>2021-02-02T12:16:23.000Z</time>
      </trkpt>
      <trkpt lat="43.88218" lon="3.96155">
        <ele>186.39999389648</ele>
        <time>2021-02-02T12:16:24.000Z</time>
      </trkpt>
      <trkpt lat="43.8822" lon="3.96153">
        <ele>186.60000610352</ele>
        <time>2021-02-02T12:16:25.000Z</time>
      </trkpt>
      <trkpt lat="43.88225" lon="3.96149">
        <ele>187</ele>
        <time>2021-02-02T12:16:27.000Z</time>
      </trkpt>
      <trkpt lat="43.88227" lon="3.96146">
        <ele>187</ele>
        <time>2021-02-02T12:16:28.000Z</time>
      </trkpt>
      <trkpt lat="43.88227" lon="3.96142">
        <ele>187.19999694824</ele>
        <time>2021-02-02T12:16:29.000Z</time>
      </trkpt>
      <trkpt lat="43.88225" lon="3.96135">
        <ele>187.60000610352</ele>
        <time>2021-02-02T12:16:31.000Z</time>
      </trkpt>
      <trkpt lat="43.88223" lon="3.96133">
        <ele>187.80000305176</ele>
        <time>2021-02-02T12:16:32.000Z</time>
      </trkpt>
      <trkpt lat="43.88219" lon="3.96127">
        <ele>187.80000305176</ele>
        <time>2021-02-02T12:16:34.000Z</time>
      </trkpt>
      <trkpt lat="43.88214" lon="3.96116">
        <ele>188.19999694824</ele>
        <time>2021-02-02T12:16:37.000Z</time>
      </trkpt>
      <trkpt lat="43.88212" lon="3.96108">
        <ele>188.60000610352</ele>
        <time>2021-02-02T12:16:39.000Z</time>
      </trkpt>
      <trkpt lat="43.88207" lon="3.96096">
        <ele>189.80000305176</ele>
        <time>2021-02-02T12:16:42.000Z</time>
      </trkpt>
      <trkpt lat="43.88204" lon="3.9609">
        <ele>190.19999694824</ele>
        <time>2021-02-02T12:16:44.000Z</time>
      </trkpt>
      <trkpt lat="43.88193" lon="3.96087">
        <ele>190</ele>
        <time>2021-02-02T12:16:47.000Z</time>
      </trkpt>
      <trkpt lat="43.88172" lon="3.96092">
        <ele>189</ele>
        <time>2021-02-02T12:16:52.000Z</time>
      </trkpt>
      <trkpt lat="43.88169" lon="3.9609">
        <ele>188.60000610352</ele>
        <time>2021-02-02T12:16:53.000Z</time>
      </trkpt>
      <trkpt lat="43.88165" lon="3.96082">
        <ele>188.19999694824</ele>
        <time>2021-02-02T12:16:55.000Z</time>
      </trkpt>
      <trkpt lat="43.88164" lon="3.96065">
        <ele>188.19999694824</ele>
        <time>2021-02-02T12:16:59.000Z</time>
      </trkpt>
      <trkpt lat="43.88169" lon="3.96055">
        <ele>189.19999694824</ele>
        <time>2021-02-02T12:17:02.000Z</time>
      </trkpt>
      <trkpt lat="43.88173" lon="3.96048">
        <ele>189.60000610352</ele>
        <time>2021-02-02T12:17:04.000Z</time>
      </trkpt>
      <trkpt lat="43.88175" lon="3.96045">
        <ele>189.80000305176</ele>
        <time>2021-02-02T12:17:05.000Z</time>
      </trkpt>
      <trkpt lat="43.88182" lon="3.96033">
        <ele>190.80000305176</ele>
        <time>2021-02-02T12:17:09.000Z</time>
      </trkpt>
      <trkpt lat="43.88187" lon="3.96025">
        <ele>191.80000305176</ele>
        <time>2021-02-02T12:17:12.000Z</time>
      </trkpt>
      <trkpt lat="43.88188" lon="3.96022">
        <ele>192</ele>
        <time>2021-02-02T12:17:13.000Z</time>
      </trkpt>
      <trkpt lat="43.88195" lon="3.96012">
        <ele>193</ele>
        <time>2021-02-02T12:17:17.000Z</time>
      </trkpt>
      <trkpt lat="43.88198" lon="3.96007">
        <ele>193.60000610352</ele>
        <time>2021-02-02T12:17:19.000Z</time>
      </trkpt>
      <trkpt lat="43.88203" lon="3.95999">
        <ele>194.19999694824</ele>
        <time>2021-02-02T12:17:22.000Z</time>
      </trkpt>
      <trkpt lat="43.88212" lon="3.9599">
        <ele>194.60000610352</ele>
        <time>2021-02-02T12:17:26.000Z</time>
      </trkpt>
      <trkpt lat="43.88223" lon="3.95981">
        <ele>195.39999389648</ele>
        <time>2021-02-02T12:17:32.000Z</time>
      </trkpt>
      <trkpt lat="43.88229" lon="3.95977">
        <ele>196.39999389648</ele>
        <time>2021-02-02T12:17:37.000Z</time>
      </trkpt>
      <trkpt lat="43.88232" lon="3.95974">
        <ele>196.19999694824</ele>
        <time>2021-02-02T12:18:18.000Z</time>
      </trkpt>
      <trkpt lat="43.88236" lon="3.9597">
        <ele>196.39999389648</ele>
        <time>2021-02-02T12:18:21.000Z</time>
      </trkpt>
      <trkpt lat="43.88249" lon="3.95951">
        <ele>197.80000305176</ele>
        <time>2021-02-02T12:18:29.000Z</time>
      </trkpt>
      <trkpt lat="43.88263" lon="3.95925">
        <ele>198.39999389648</ele>
        <time>2021-02-02T12:18:37.000Z</time>
      </trkpt>
      <trkpt lat="43.88268" lon="3.95917">
        <ele>199</ele>
        <time>2021-02-02T12:18:40.000Z</time>
      </trkpt>
      <trkpt lat="43.88276" lon="3.95906">
        <ele>199.60000610352</ele>
        <time>2021-02-02T12:18:44.000Z</time>
      </trkpt>
      <trkpt lat="43.88281" lon="3.95901">
        <ele>200</ele>
        <time>2021-02-02T12:18:46.000Z</time>
      </trkpt>
      <trkpt lat="43.88299" lon="3.95882">
        <ele>201.19999694824</ele>
        <time>2021-02-02T12:18:53.000Z</time>
      </trkpt>
      <trkpt lat="43.88301" lon="3.9588">
        <ele>201.19999694824</ele>
        <time>2021-02-02T12:18:54.000Z</time>
      </trkpt>
      <trkpt lat="43.88313" lon="3.95862">
        <ele>202.19999694824</ele>
        <time>2021-02-02T12:19:00.000Z</time>
      </trkpt>
      <trkpt lat="43.88315" lon="3.95859">
        <ele>202.39999389648</ele>
        <time>2021-02-02T12:19:01.000Z</time>
      </trkpt>
      <trkpt lat="43.88324" lon="3.95845">
        <ele>202.60000610352</ele>
        <time>2021-02-02T12:19:05.000Z</time>
      </trkpt>
      <trkpt lat="43.88327" lon="3.95841">
        <ele>202.39999389648</ele>
        <time>2021-02-02T12:19:06.000Z</time>
      </trkpt>
      <trkpt lat="43.88348" lon="3.95822">
        <ele>201.39999389648</ele>
        <time>2021-02-02T12:19:12.000Z</time>
      </trkpt>
      <trkpt lat="43.88352" lon="3.95819">
        <ele>201.39999389648</ele>
        <time>2021-02-02T12:19:13.000Z</time>
      </trkpt>
      <trkpt lat="43.88373" lon="3.9579">
        <ele>201.19999694824</ele>
        <time>2021-02-02T12:19:21.000Z</time>
      </trkpt>
      <trkpt lat="43.8839" lon="3.95779">
        <ele>201.19999694824</ele>
        <time>2021-02-02T12:19:26.000Z</time>
      </trkpt>
      <trkpt lat="43.88424" lon="3.95778">
        <ele>202.60000610352</ele>
        <time>2021-02-02T12:19:35.000Z</time>
      </trkpt>
      <trkpt lat="43.88427" lon="3.95778">
        <ele>202.80000305176</ele>
        <time>2021-02-02T12:19:36.000Z</time>
      </trkpt>
      <trkpt lat="43.88454" lon="3.9578">
        <ele>204</ele>
        <time>2021-02-02T12:19:44.000Z</time>
      </trkpt>
      <trkpt lat="43.88457" lon="3.9578">
        <ele>204.19999694824</ele>
        <time>2021-02-02T12:19:45.000Z</time>
      </trkpt>
      <trkpt lat="43.88481" lon="3.95781">
        <ele>204.80000305176</ele>
        <time>2021-02-02T12:19:52.000Z</time>
      </trkpt>
      <trkpt lat="43.88487" lon="3.95781">
        <ele>205</ele>
        <time>2021-02-02T12:19:54.000Z</time>
      </trkpt>
      <trkpt lat="43.88511" lon="3.95781">
        <ele>206.19999694824</ele>
        <time>2021-02-02T12:20:01.000Z</time>
      </trkpt>
      <trkpt lat="43.88539" lon="3.95782">
        <ele>207.19999694824</ele>
        <time>2021-02-02T12:20:10.000Z</time>
      </trkpt>
      <trkpt lat="43.88542" lon="3.95782">
        <ele>207.39999389648</ele>
        <time>2021-02-02T12:20:11.000Z</time>
      </trkpt>
      <trkpt lat="43.88564" lon="3.95781">
        <ele>208.39999389648</ele>
        <time>2021-02-02T12:20:19.000Z</time>
      </trkpt>
      <trkpt lat="43.88568" lon="3.95781">
        <ele>208.60000610352</ele>
        <time>2021-02-02T12:20:24.000Z</time>
      </trkpt>
      <trkpt lat="43.88573" lon="3.95781">
        <ele>208.80000305176</ele>
        <time>2021-02-02T12:21:26.000Z</time>
      </trkpt>
      <trkpt lat="43.88577" lon="3.9578">
        <ele>208.80000305176</ele>
        <time>2021-02-02T12:21:28.000Z</time>
      </trkpt>
      <trkpt lat="43.88594" lon="3.95772">
        <ele>209.19999694824</ele>
        <time>2021-02-02T12:21:35.000Z</time>
      </trkpt>
      <trkpt lat="43.88599" lon="3.95768">
        <ele>209.80000305176</ele>
        <time>2021-02-02T12:21:37.000Z</time>
      </trkpt>
      <trkpt lat="43.88611" lon="3.95755">
        <ele>210.60000610352</ele>
        <time>2021-02-02T12:21:42.000Z</time>
      </trkpt>
      <trkpt lat="43.88621" lon="3.95738">
        <ele>211</ele>
        <time>2021-02-02T12:21:47.000Z</time>
      </trkpt>
      <trkpt lat="43.88625" lon="3.95731">
        <ele>211.39999389648</ele>
        <time>2021-02-02T12:21:49.000Z</time>
      </trkpt>
      <trkpt lat="43.8863" lon="3.9572">
        <ele>212</ele>
        <time>2021-02-02T12:21:52.000Z</time>
      </trkpt>
      <trkpt lat="43.88639" lon="3.95702">
        <ele>213</ele>
        <time>2021-02-02T12:21:57.000Z</time>
      </trkpt>
      <trkpt lat="43.88642" lon="3.95695">
        <ele>213.19999694824</ele>
        <time>2021-02-02T12:21:59.000Z</time>
      </trkpt>
      <trkpt lat="43.88651" lon="3.95676">
        <ele>214</ele>
        <time>2021-02-02T12:22:04.000Z</time>
      </trkpt>
      <trkpt lat="43.88655" lon="3.9567">
        <ele>214.60000610352</ele>
        <time>2021-02-02T12:22:06.000Z</time>
      </trkpt>
      <trkpt lat="43.88663" lon="3.95654">
        <ele>215.60000610352</ele>
        <time>2021-02-02T12:22:11.000Z</time>
      </trkpt>
      <trkpt lat="43.88668" lon="3.95644">
        <ele>215.60000610352</ele>
        <time>2021-02-02T12:22:14.000Z</time>
      </trkpt>
      <trkpt lat="43.88675" lon="3.95632">
        <ele>216</ele>
        <time>2021-02-02T12:22:18.000Z</time>
      </trkpt>
      <trkpt lat="43.88687" lon="3.95611">
        <ele>216.80000305176</ele>
        <time>2021-02-02T12:22:25.000Z</time>
      </trkpt>
      <trkpt lat="43.88691" lon="3.95605">
        <ele>217</ele>
        <time>2021-02-02T12:22:27.000Z</time>
      </trkpt>
      <trkpt lat="43.88699" lon="3.95592">
        <ele>218</ele>
        <time>2021-02-02T12:22:31.000Z</time>
      </trkpt>
      <trkpt lat="43.88705" lon="3.95584">
        <ele>218.39999389648</ele>
        <time>2021-02-02T12:22:34.000Z</time>
      </trkpt>
      <trkpt lat="43.88712" lon="3.95572">
        <ele>219</ele>
        <time>2021-02-02T12:22:38.000Z</time>
      </trkpt>
      <trkpt lat="43.88717" lon="3.95564">
        <ele>219.39999389648</ele>
        <time>2021-02-02T12:22:41.000Z</time>
      </trkpt>
      <trkpt lat="43.88725" lon="3.95553">
        <ele>220.19999694824</ele>
        <time>2021-02-02T12:22:45.000Z</time>
      </trkpt>
      <trkpt lat="43.88729" lon="3.95547">
        <ele>220.60000610352</ele>
        <time>2021-02-02T12:22:47.000Z</time>
      </trkpt>
      <trkpt lat="43.88737" lon="3.95535">
        <ele>221.60000610352</ele>
        <time>2021-02-02T12:22:51.000Z</time>
      </trkpt>
      <trkpt lat="43.88746" lon="3.9552">
        <ele>222</ele>
        <time>2021-02-02T12:22:56.000Z</time>
      </trkpt>
      <trkpt lat="43.8875" lon="3.95514">
        <ele>222.60000610352</ele>
        <time>2021-02-02T12:22:58.000Z</time>
      </trkpt>
      <trkpt lat="43.88757" lon="3.95502">
        <ele>223.60000610352</ele>
        <time>2021-02-02T12:23:02.000Z</time>
      </trkpt>
      <trkpt lat="43.88759" lon="3.95498">
        <ele>223.80000305176</ele>
        <time>2021-02-02T12:23:03.000Z</time>
      </trkpt>
      <trkpt lat="43.88775" lon="3.95478">
        <ele>224.60000610352</ele>
        <time>2021-02-02T12:23:10.000Z</time>
      </trkpt>
      <trkpt lat="43.88777" lon="3.95475">
        <ele>224.80000305176</ele>
        <time>2021-02-02T12:23:11.000Z</time>
      </trkpt>
      <trkpt lat="43.88788" lon="3.95462">
        <ele>225.60000610352</ele>
        <time>2021-02-02T12:23:16.000Z</time>
      </trkpt>
      <trkpt lat="43.88796" lon="3.9545">
        <ele>225.80000305176</ele>
        <time>2021-02-02T12:23:20.000Z</time>
      </trkpt>
      <trkpt lat="43.88798" lon="3.95447">
        <ele>226</ele>
        <time>2021-02-02T12:23:21.000Z</time>
      </trkpt>
      <trkpt lat="43.88803" lon="3.95441">
        <ele>227</ele>
        <time>2021-02-02T12:23:23.000Z</time>
      </trkpt>
      <trkpt lat="43.88812" lon="3.95433">
        <ele>227</ele>
        <time>2021-02-02T12:23:27.000Z</time>
      </trkpt>
      <trkpt lat="43.88826" lon="3.95419">
        <ele>228.19999694824</ele>
        <time>2021-02-02T12:23:33.000Z</time>
      </trkpt>
      <trkpt lat="43.88829" lon="3.95416">
        <ele>228.39999389648</ele>
        <time>2021-02-02T12:23:34.000Z</time>
      </trkpt>
      <trkpt lat="43.8884" lon="3.95397">
        <ele>229</ele>
        <time>2021-02-02T12:23:40.000Z</time>
      </trkpt>
      <trkpt lat="43.88843" lon="3.95391">
        <ele>229.19999694824</ele>
        <time>2021-02-02T12:23:42.000Z</time>
      </trkpt>
      <trkpt lat="43.88851" lon="3.95375">
        <ele>230.19999694824</ele>
        <time>2021-02-02T12:23:47.000Z</time>
      </trkpt>
      <trkpt lat="43.88853" lon="3.95371">
        <ele>230.60000610352</ele>
        <time>2021-02-02T12:23:48.000Z</time>
      </trkpt>
      <trkpt lat="43.88865" lon="3.95348">
        <ele>231.60000610352</ele>
        <time>2021-02-02T12:23:55.000Z</time>
      </trkpt>
      <trkpt lat="43.88877" lon="3.95328">
        <ele>233</ele>
        <time>2021-02-02T12:24:02.000Z</time>
      </trkpt>
      <trkpt lat="43.88878" lon="3.95325">
        <ele>233.39999389648</ele>
        <time>2021-02-02T12:24:03.000Z</time>
      </trkpt>
      <trkpt lat="43.88886" lon="3.95312">
        <ele>233.80000305176</ele>
        <time>2021-02-02T12:24:08.000Z</time>
      </trkpt>
      <trkpt lat="43.88889" lon="3.95306">
        <ele>234</ele>
        <time>2021-02-02T12:24:10.000Z</time>
      </trkpt>
      <trkpt lat="43.88897" lon="3.95295">
        <ele>234.60000610352</ele>
        <time>2021-02-02T12:24:15.000Z</time>
      </trkpt>
      <trkpt lat="43.88902" lon="3.95287">
        <ele>235.39999389648</ele>
        <time>2021-02-02T12:24:18.000Z</time>
      </trkpt>
      <trkpt lat="43.88908" lon="3.95275">
        <ele>235.80000305176</ele>
        <time>2021-02-02T12:24:21.000Z</time>
      </trkpt>
      <trkpt lat="43.88915" lon="3.95255">
        <ele>236.80000305176</ele>
        <time>2021-02-02T12:24:26.000Z</time>
      </trkpt>
      <trkpt lat="43.88916" lon="3.95251">
        <ele>237</ele>
        <time>2021-02-02T12:24:27.000Z</time>
      </trkpt>
      <trkpt lat="43.88919" lon="3.95224">
        <ele>237.80000305176</ele>
        <time>2021-02-02T12:24:33.000Z</time>
      </trkpt>
      <trkpt lat="43.8892" lon="3.95211">
        <ele>238.60000610352</ele>
        <time>2021-02-02T12:24:36.000Z</time>
      </trkpt>
      <trkpt lat="43.8892" lon="3.95203">
        <ele>239.19999694824</ele>
        <time>2021-02-02T12:24:38.000Z</time>
      </trkpt>
      <trkpt lat="43.88925" lon="3.95184">
        <ele>239.60000610352</ele>
        <time>2021-02-02T12:24:43.000Z</time>
      </trkpt>
      <trkpt lat="43.88929" lon="3.95171">
        <ele>240.19999694824</ele>
        <time>2021-02-02T12:24:47.000Z</time>
      </trkpt>
      <trkpt lat="43.88932" lon="3.9516">
        <ele>241</ele>
        <time>2021-02-02T12:24:50.000Z</time>
      </trkpt>
      <trkpt lat="43.88938" lon="3.95137">
        <ele>241.39999389648</ele>
        <time>2021-02-02T12:24:57.000Z</time>
      </trkpt>
      <trkpt lat="43.88939" lon="3.95134">
        <ele>241.60000610352</ele>
        <time>2021-02-02T12:24:58.000Z</time>
      </trkpt>
      <trkpt lat="43.88943" lon="3.95117">
        <ele>242.60000610352</ele>
        <time>2021-02-02T12:25:03.000Z</time>
      </trkpt>
      <trkpt lat="43.88945" lon="3.95107">
        <ele>243.39999389648</ele>
        <time>2021-02-02T12:25:06.000Z</time>
      </trkpt>
      <trkpt lat="43.88947" lon="3.95104">
        <ele>243.80000305176</ele>
        <time>2021-02-02T12:25:07.000Z</time>
      </trkpt>
      <trkpt lat="43.88952" lon="3.95097">
        <ele>245.19999694824</ele>
        <time>2021-02-02T12:25:10.000Z</time>
      </trkpt>
      <trkpt lat="43.88954" lon="3.95095">
        <ele>245.60000610352</ele>
        <time>2021-02-02T12:25:11.000Z</time>
      </trkpt>
      <trkpt lat="43.88962" lon="3.95083">
        <ele>246.39999389648</ele>
        <time>2021-02-02T12:25:16.000Z</time>
      </trkpt>
      <trkpt lat="43.88965" lon="3.95078">
        <ele>247.19999694824</ele>
        <time>2021-02-02T12:25:18.000Z</time>
      </trkpt>
      <trkpt lat="43.88969" lon="3.9507">
        <ele>247.60000610352</ele>
        <time>2021-02-02T12:25:21.000Z</time>
      </trkpt>
      <trkpt lat="43.88975" lon="3.95061">
        <ele>249.19999694824</ele>
        <time>2021-02-02T12:25:25.000Z</time>
      </trkpt>
      <trkpt lat="43.88977" lon="3.95059">
        <ele>249.39999389648</ele>
        <time>2021-02-02T12:25:26.000Z</time>
      </trkpt>
      <trkpt lat="43.88991" lon="3.95044">
        <ele>250</ele>
        <time>2021-02-02T12:25:34.000Z</time>
      </trkpt>
      <trkpt lat="43.88992" lon="3.95042">
        <ele>250.39999389648</ele>
        <time>2021-02-02T12:25:35.000Z</time>
      </trkpt>
      <trkpt lat="43.89" lon="3.95031">
        <ele>251.60000610352</ele>
        <time>2021-02-02T12:25:40.000Z</time>
      </trkpt>
      <trkpt lat="43.89003" lon="3.95027">
        <ele>251.80000305176</ele>
        <time>2021-02-02T12:25:42.000Z</time>
      </trkpt>
      <trkpt lat="43.89007" lon="3.95021">
        <ele>252.60000610352</ele>
        <time>2021-02-02T12:25:45.000Z</time>
      </trkpt>
      <trkpt lat="43.89012" lon="3.95011">
        <ele>252.80000305176</ele>
        <time>2021-02-02T12:25:49.000Z</time>
      </trkpt>
      <trkpt lat="43.89023" lon="3.94997">
        <ele>253.39999389648</ele>
        <time>2021-02-02T12:25:56.000Z</time>
      </trkpt>
      <trkpt lat="43.89027" lon="3.94992">
        <ele>253.60000610352</ele>
        <time>2021-02-02T12:25:58.000Z</time>
      </trkpt>
      <trkpt lat="43.89036" lon="3.94985">
        <ele>254.60000610352</ele>
        <time>2021-02-02T12:26:03.000Z</time>
      </trkpt>
      <trkpt lat="43.89038" lon="3.94984">
        <ele>254.60000610352</ele>
        <time>2021-02-02T12:26:04.000Z</time>
      </trkpt>
      <trkpt lat="43.89047" lon="3.94976">
        <ele>255.80000305176</ele>
        <time>2021-02-02T12:26:09.000Z</time>
      </trkpt>
      <trkpt lat="43.89049" lon="3.94974">
        <ele>256</ele>
        <time>2021-02-02T12:26:10.000Z</time>
      </trkpt>
      <trkpt lat="43.89054" lon="3.94959">
        <ele>257</ele>
        <time>2021-02-02T12:26:15.000Z</time>
      </trkpt>
      <trkpt lat="43.89056" lon="3.94957">
        <ele>257.20001220703</ele>
        <time>2021-02-02T12:26:16.000Z</time>
      </trkpt>
      <trkpt lat="43.8906" lon="3.94947">
        <ele>258.20001220703</ele>
        <time>2021-02-02T12:26:20.000Z</time>
      </trkpt>
      <trkpt lat="43.89064" lon="3.94944">
        <ele>258.60000610352</ele>
        <time>2021-02-02T12:26:22.000Z</time>
      </trkpt>
      <trkpt lat="43.89072" lon="3.94939">
        <ele>259.39999389648</ele>
        <time>2021-02-02T12:26:27.000Z</time>
      </trkpt>
      <trkpt lat="43.89074" lon="3.94938">
        <ele>259.39999389648</ele>
        <time>2021-02-02T12:26:28.000Z</time>
      </trkpt>
      <trkpt lat="43.89079" lon="3.94929">
        <ele>260.60000610352</ele>
        <time>2021-02-02T12:26:33.000Z</time>
      </trkpt>
      <trkpt lat="43.89082" lon="3.94915">
        <ele>261.60000610352</ele>
        <time>2021-02-02T12:26:38.000Z</time>
      </trkpt>
      <trkpt lat="43.89084" lon="3.94914">
        <ele>261.79998779297</ele>
        <time>2021-02-02T12:26:39.000Z</time>
      </trkpt>
      <trkpt lat="43.89087" lon="3.94913">
        <ele>261.79998779297</ele>
        <time>2021-02-02T12:26:41.000Z</time>
      </trkpt>
      <trkpt lat="43.89089" lon="3.94913">
        <ele>262</ele>
        <time>2021-02-02T12:26:42.000Z</time>
      </trkpt>
      <trkpt lat="43.89099" lon="3.94921">
        <ele>262.79998779297</ele>
        <time>2021-02-02T12:26:49.000Z</time>
      </trkpt>
      <trkpt lat="43.89106" lon="3.94923">
        <ele>263.79998779297</ele>
        <time>2021-02-02T12:26:53.000Z</time>
      </trkpt>
      <trkpt lat="43.89108" lon="3.94923">
        <ele>264</ele>
        <time>2021-02-02T12:26:54.000Z</time>
      </trkpt>
      <trkpt lat="43.89124" lon="3.94923">
        <ele>264.60000610352</ele>
        <time>2021-02-02T12:27:01.000Z</time>
      </trkpt>
      <trkpt lat="43.89126" lon="3.94924">
        <ele>264.79998779297</ele>
        <time>2021-02-02T12:27:02.000Z</time>
      </trkpt>
      <trkpt lat="43.89136" lon="3.94926">
        <ele>266</ele>
        <time>2021-02-02T12:27:08.000Z</time>
      </trkpt>
      <trkpt lat="43.89149" lon="3.9493">
        <ele>267</ele>
        <time>2021-02-02T12:27:14.000Z</time>
      </trkpt>
      <trkpt lat="43.89153" lon="3.94931">
        <ele>267.39999389648</ele>
        <time>2021-02-02T12:27:16.000Z</time>
      </trkpt>
      <trkpt lat="43.89162" lon="3.94933">
        <ele>268</ele>
        <time>2021-02-02T12:27:20.000Z</time>
      </trkpt>
      <trkpt lat="43.89169" lon="3.94935">
        <ele>268.39999389648</ele>
        <time>2021-02-02T12:27:23.000Z</time>
      </trkpt>
      <trkpt lat="43.89183" lon="3.94945">
        <ele>268.60000610352</ele>
        <time>2021-02-02T12:27:30.000Z</time>
      </trkpt>
      <trkpt lat="43.89188" lon="3.94949">
        <ele>269.20001220703</ele>
        <time>2021-02-02T12:27:33.000Z</time>
      </trkpt>
      <trkpt lat="43.89197" lon="3.94952">
        <ele>270.39999389648</ele>
        <time>2021-02-02T12:27:37.000Z</time>
      </trkpt>
      <trkpt lat="43.89206" lon="3.94954">
        <ele>271.39999389648</ele>
        <time>2021-02-02T12:27:41.000Z</time>
      </trkpt>
      <trkpt lat="43.89207" lon="3.94955">
        <ele>271.60000610352</ele>
        <time>2021-02-02T12:27:42.000Z</time>
      </trkpt>
      <trkpt lat="43.89215" lon="3.94963">
        <ele>272.60000610352</ele>
        <time>2021-02-02T12:27:47.000Z</time>
      </trkpt>
      <trkpt lat="43.89217" lon="3.94965">
        <ele>272.79998779297</ele>
        <time>2021-02-02T12:27:48.000Z</time>
      </trkpt>
      <trkpt lat="43.89223" lon="3.9497">
        <ele>274</ele>
        <time>2021-02-02T12:27:51.000Z</time>
      </trkpt>
      <trkpt lat="43.8923" lon="3.94971">
        <ele>274.60000610352</ele>
        <time>2021-02-02T12:27:54.000Z</time>
      </trkpt>
      <trkpt lat="43.89241" lon="3.94969">
        <ele>275.20001220703</ele>
        <time>2021-02-02T12:27:59.000Z</time>
      </trkpt>
      <trkpt lat="43.89243" lon="3.94968">
        <ele>275.60000610352</ele>
        <time>2021-02-02T12:28:00.000Z</time>
      </trkpt>
      <trkpt lat="43.89256" lon="3.94964">
        <ele>275.79998779297</ele>
        <time>2021-02-02T12:28:06.000Z</time>
      </trkpt>
      <trkpt lat="43.89259" lon="3.94963">
        <ele>276.39999389648</ele>
        <time>2021-02-02T12:28:07.000Z</time>
      </trkpt>
      <trkpt lat="43.89269" lon="3.94959">
        <ele>277.39999389648</ele>
        <time>2021-02-02T12:28:12.000Z</time>
      </trkpt>
      <trkpt lat="43.89271" lon="3.94958">
        <ele>277.39999389648</ele>
        <time>2021-02-02T12:28:13.000Z</time>
      </trkpt>
      <trkpt lat="43.89286" lon="3.94958">
        <ele>277.60000610352</ele>
        <time>2021-02-02T12:28:20.000Z</time>
      </trkpt>
      <trkpt lat="43.89295" lon="3.94958">
        <ele>278.39999389648</ele>
        <time>2021-02-02T12:28:24.000Z</time>
      </trkpt>
      <trkpt lat="43.89303" lon="3.94956">
        <ele>279.60000610352</ele>
        <time>2021-02-02T12:28:28.000Z</time>
      </trkpt>
      <trkpt lat="43.89314" lon="3.94953">
        <ele>280.39999389648</ele>
        <time>2021-02-02T12:28:34.000Z</time>
      </trkpt>
      <trkpt lat="43.89318" lon="3.94952">
        <ele>280.60000610352</ele>
        <time>2021-02-02T12:28:36.000Z</time>
      </trkpt>
      <trkpt lat="43.89337" lon="3.94951">
        <ele>281.79998779297</ele>
        <time>2021-02-02T12:28:45.000Z</time>
      </trkpt>
      <trkpt lat="43.89346" lon="3.94951">
        <ele>283</ele>
        <time>2021-02-02T12:28:50.000Z</time>
      </trkpt>
      <trkpt lat="43.8935" lon="3.94952">
        <ele>283.20001220703</ele>
        <time>2021-02-02T12:28:52.000Z</time>
      </trkpt>
      <trkpt lat="43.8936" lon="3.94956">
        <ele>284</ele>
        <time>2021-02-02T12:28:57.000Z</time>
      </trkpt>
      <trkpt lat="43.89366" lon="3.9496">
        <ele>284.79998779297</ele>
        <time>2021-02-02T12:29:00.000Z</time>
      </trkpt>
      <trkpt lat="43.89367" lon="3.94963">
        <ele>285</ele>
        <time>2021-02-02T12:29:01.000Z</time>
      </trkpt>
      <trkpt lat="43.89372" lon="3.94974">
        <ele>286</ele>
        <time>2021-02-02T12:29:06.000Z</time>
      </trkpt>
      <trkpt lat="43.89374" lon="3.94979">
        <ele>286.20001220703</ele>
        <time>2021-02-02T12:29:08.000Z</time>
      </trkpt>
      <trkpt lat="43.89381" lon="3.94987">
        <ele>287</ele>
        <time>2021-02-02T12:29:12.000Z</time>
      </trkpt>
      <trkpt lat="43.89385" lon="3.94989">
        <ele>287.20001220703</ele>
        <time>2021-02-02T12:29:14.000Z</time>
      </trkpt>
      <trkpt lat="43.89395" lon="3.94994">
        <ele>288</ele>
        <time>2021-02-02T12:29:19.000Z</time>
      </trkpt>
      <trkpt lat="43.89399" lon="3.94995">
        <ele>288.39999389648</ele>
        <time>2021-02-02T12:29:21.000Z</time>
      </trkpt>
      <trkpt lat="43.89408" lon="3.94997">
        <ele>289</ele>
        <time>2021-02-02T12:29:25.000Z</time>
      </trkpt>
      <trkpt lat="43.89417" lon="3.94999">
        <ele>289.39999389648</ele>
        <time>2021-02-02T12:29:29.000Z</time>
      </trkpt>
      <trkpt lat="43.89421" lon="3.95">
        <ele>289.79998779297</ele>
        <time>2021-02-02T12:29:31.000Z</time>
      </trkpt>
      <trkpt lat="43.89427" lon="3.95002">
        <ele>290.39999389648</ele>
        <time>2021-02-02T12:29:34.000Z</time>
      </trkpt>
      <trkpt lat="43.89435" lon="3.95003">
        <ele>291.20001220703</ele>
        <time>2021-02-02T12:29:38.000Z</time>
      </trkpt>
      <trkpt lat="43.89437" lon="3.95003">
        <ele>291.20001220703</ele>
        <time>2021-02-02T12:29:39.000Z</time>
      </trkpt>
      <trkpt lat="43.89442" lon="3.95002">
        <ele>291.60000610352</ele>
        <time>2021-02-02T12:29:41.000Z</time>
      </trkpt>
      <trkpt lat="43.89444" lon="3.95001">
        <ele>291.60000610352</ele>
        <time>2021-02-02T12:29:42.000Z</time>
      </trkpt>
      <trkpt lat="43.89457" lon="3.94995">
        <ele>292.60000610352</ele>
        <time>2021-02-02T12:29:48.000Z</time>
      </trkpt>
      <trkpt lat="43.89459" lon="3.94994">
        <ele>292.79998779297</ele>
        <time>2021-02-02T12:29:49.000Z</time>
      </trkpt>
      <trkpt lat="43.89471" lon="3.94993">
        <ele>293.79998779297</ele>
        <time>2021-02-02T12:29:55.000Z</time>
      </trkpt>
      <trkpt lat="43.89482" lon="3.94996">
        <ele>294.79998779297</ele>
        <time>2021-02-02T12:30:00.000Z</time>
      </trkpt>
      <trkpt lat="43.8949" lon="3.94996">
        <ele>295</ele>
        <time>2021-02-02T12:30:04.000Z</time>
      </trkpt>
      <trkpt lat="43.89492" lon="3.94995">
        <ele>295</ele>
        <time>2021-02-02T12:30:05.000Z</time>
      </trkpt>
      <trkpt lat="43.89494" lon="3.94988">
        <ele>295.39999389648</ele>
        <time>2021-02-02T12:30:08.000Z</time>
      </trkpt>
      <trkpt lat="43.8949" lon="3.94981">
        <ele>295.79998779297</ele>
        <time>2021-02-02T12:30:11.000Z</time>
      </trkpt>
      <trkpt lat="43.89488" lon="3.94979">
        <ele>295.79998779297</ele>
        <time>2021-02-02T12:30:12.000Z</time>
      </trkpt>
      <trkpt lat="43.89476" lon="3.94974">
        <ele>297</ele>
        <time>2021-02-02T12:30:17.000Z</time>
      </trkpt>
      <trkpt lat="43.89464" lon="3.9497">
        <ele>297.39999389648</ele>
        <time>2021-02-02T12:30:22.000Z</time>
      </trkpt>
      <trkpt lat="43.89443" lon="3.94964">
        <ele>298</ele>
        <time>2021-02-02T12:30:30.000Z</time>
      </trkpt>
      <trkpt lat="43.89436" lon="3.94964">
        <ele>299.20001220703</ele>
        <time>2021-02-02T12:30:33.000Z</time>
      </trkpt>
      <trkpt lat="43.89425" lon="3.94965">
        <ele>299.79998779297</ele>
        <time>2021-02-02T12:30:38.000Z</time>
      </trkpt>
      <trkpt lat="43.89423" lon="3.94964">
        <ele>300.20001220703</ele>
        <time>2021-02-02T12:30:39.000Z</time>
      </trkpt>
      <trkpt lat="43.89418" lon="3.94954">
        <ele>300.79998779297</ele>
        <time>2021-02-02T12:30:44.000Z</time>
      </trkpt>
      <trkpt lat="43.89417" lon="3.94946">
        <ele>301.20001220703</ele>
        <time>2021-02-02T12:30:47.000Z</time>
      </trkpt>
      <trkpt lat="43.89416" lon="3.94938">
        <ele>301.79998779297</ele>
        <time>2021-02-02T12:30:50.000Z</time>
      </trkpt>
      <trkpt lat="43.89414" lon="3.94931">
        <ele>302.39999389648</ele>
        <time>2021-02-02T12:30:53.000Z</time>
      </trkpt>
      <trkpt lat="43.89412" lon="3.94922">
        <ele>303.20001220703</ele>
        <time>2021-02-02T12:30:56.000Z</time>
      </trkpt>
      <trkpt lat="43.89412" lon="3.94919">
        <ele>303.39999389648</ele>
        <time>2021-02-02T12:30:57.000Z</time>
      </trkpt>
      <trkpt lat="43.89408" lon="3.94906">
        <ele>304.20001220703</ele>
        <time>2021-02-02T12:31:02.000Z</time>
      </trkpt>
      <trkpt lat="43.89406" lon="3.94904">
        <ele>304.39999389648</ele>
        <time>2021-02-02T12:31:03.000Z</time>
      </trkpt>
      <trkpt lat="43.89403" lon="3.94892">
        <ele>304.60000610352</ele>
        <time>2021-02-02T12:31:07.000Z</time>
      </trkpt>
      <trkpt lat="43.89398" lon="3.9488">
        <ele>305.79998779297</ele>
        <time>2021-02-02T12:31:12.000Z</time>
      </trkpt>
      <trkpt lat="43.89394" lon="3.94875">
        <ele>306.20001220703</ele>
        <time>2021-02-02T12:31:14.000Z</time>
      </trkpt>
      <trkpt lat="43.89389" lon="3.94869">
        <ele>307.20001220703</ele>
        <time>2021-02-02T12:31:17.000Z</time>
      </trkpt>
      <trkpt lat="43.89383" lon="3.94864">
        <ele>307.20001220703</ele>
        <time>2021-02-02T12:31:20.000Z</time>
      </trkpt>
      <trkpt lat="43.89365" lon="3.94849">
        <ele>308</ele>
        <time>2021-02-02T12:31:30.000Z</time>
      </trkpt>
      <trkpt lat="43.89363" lon="3.94848">
        <ele>308.20001220703</ele>
        <time>2021-02-02T12:31:31.000Z</time>
      </trkpt>
      <trkpt lat="43.89355" lon="3.94844">
        <ele>309.39999389648</ele>
        <time>2021-02-02T12:31:35.000Z</time>
      </trkpt>
      <trkpt lat="43.89348" lon="3.94842">
        <ele>309.60000610352</ele>
        <time>2021-02-02T12:31:38.000Z</time>
      </trkpt>
      <trkpt lat="43.89339" lon="3.94843">
        <ele>310.39999389648</ele>
        <time>2021-02-02T12:31:42.000Z</time>
      </trkpt>
      <trkpt lat="43.89335" lon="3.94844">
        <ele>310.79998779297</ele>
        <time>2021-02-02T12:31:44.000Z</time>
      </trkpt>
      <trkpt lat="43.89323" lon="3.94845">
        <ele>311.60000610352</ele>
        <time>2021-02-02T12:31:50.000Z</time>
      </trkpt>
      <trkpt lat="43.89321" lon="3.94845">
        <ele>311.79998779297</ele>
        <time>2021-02-02T12:31:51.000Z</time>
      </trkpt>
      <trkpt lat="43.89307" lon="3.9484">
        <ele>312.60000610352</ele>
        <time>2021-02-02T12:31:58.000Z</time>
      </trkpt>
      <trkpt lat="43.89297" lon="3.94835">
        <ele>313.79998779297</ele>
        <time>2021-02-02T12:32:04.000Z</time>
      </trkpt>
      <trkpt lat="43.89293" lon="3.94832">
        <ele>314</ele>
        <time>2021-02-02T12:32:06.000Z</time>
      </trkpt>
      <trkpt lat="43.89285" lon="3.94823">
        <ele>314.79998779297</ele>
        <time>2021-02-02T12:32:10.000Z</time>
      </trkpt>
      <trkpt lat="43.89279" lon="3.94817">
        <ele>315.60000610352</ele>
        <time>2021-02-02T12:32:13.000Z</time>
      </trkpt>
      <trkpt lat="43.89277" lon="3.94815">
        <ele>316.20001220703</ele>
        <time>2021-02-02T12:32:14.000Z</time>
      </trkpt>
      <trkpt lat="43.89274" lon="3.94811">
        <ele>317.39999389648</ele>
        <time>2021-02-02T12:32:16.000Z</time>
      </trkpt>
      <trkpt lat="43.8927" lon="3.94806">
        <ele>318.20001220703</ele>
        <time>2021-02-02T12:32:19.000Z</time>
      </trkpt>
      <trkpt lat="43.89268" lon="3.94804">
        <ele>318.39999389648</ele>
        <time>2021-02-02T12:32:20.000Z</time>
      </trkpt>
      <trkpt lat="43.89265" lon="3.94797">
        <ele>319.39999389648</ele>
        <time>2021-02-02T12:32:23.000Z</time>
      </trkpt>
      <trkpt lat="43.89261" lon="3.94791">
        <ele>320.39999389648</ele>
        <time>2021-02-02T12:32:26.000Z</time>
      </trkpt>
      <trkpt lat="43.89254" lon="3.94783">
        <ele>321.79998779297</ele>
        <time>2021-02-02T12:32:31.000Z</time>
      </trkpt>
      <trkpt lat="43.89252" lon="3.9478">
        <ele>322</ele>
        <time>2021-02-02T12:32:33.000Z</time>
      </trkpt>
      <trkpt lat="43.89251" lon="3.94778">
        <ele>322.20001220703</ele>
        <time>2021-02-02T12:32:34.000Z</time>
      </trkpt>
      <trkpt lat="43.8925" lon="3.94774">
        <ele>322.60000610352</ele>
        <time>2021-02-02T12:32:38.000Z</time>
      </trkpt>
      <trkpt lat="43.8925" lon="3.94774">
        <ele>322.60000610352</ele>
        <time>2021-02-02T12:32:39.000Z</time>
      </trkpt>
      <trkpt lat="43.89251" lon="3.94768">
        <ele>323.20001220703</ele>
        <time>2021-02-02T12:40:45.000Z</time>
      </trkpt>
      <trkpt lat="43.89253" lon="3.94763">
        <ele>323.39999389648</ele>
        <time>2021-02-02T12:40:47.000Z</time>
      </trkpt>
      <trkpt lat="43.89255" lon="3.94754">
        <ele>324.20001220703</ele>
        <time>2021-02-02T12:40:50.000Z</time>
      </trkpt>
      <trkpt lat="43.89257" lon="3.94741">
        <ele>324.79998779297</ele>
        <time>2021-02-02T12:40:54.000Z</time>
      </trkpt>
      <trkpt lat="43.89258" lon="3.94734">
        <ele>325.20001220703</ele>
        <time>2021-02-02T12:40:56.000Z</time>
      </trkpt>
      <trkpt lat="43.89262" lon="3.9472">
        <ele>326</ele>
        <time>2021-02-02T12:41:00.000Z</time>
      </trkpt>
      <trkpt lat="43.89263" lon="3.94716">
        <ele>326.39999389648</ele>
        <time>2021-02-02T12:41:01.000Z</time>
      </trkpt>
      <trkpt lat="43.89266" lon="3.94702">
        <ele>327.39999389648</ele>
        <time>2021-02-02T12:41:05.000Z</time>
      </trkpt>
      <trkpt lat="43.89268" lon="3.94695">
        <ele>328</ele>
        <time>2021-02-02T12:41:07.000Z</time>
      </trkpt>
      <trkpt lat="43.89269" lon="3.94692">
        <ele>328.60000610352</ele>
        <time>2021-02-02T12:41:08.000Z</time>
      </trkpt>
      <trkpt lat="43.8927" lon="3.94685">
        <ele>329.79998779297</ele>
        <time>2021-02-02T12:41:10.000Z</time>
      </trkpt>
      <trkpt lat="43.89271" lon="3.94678">
        <ele>331.20001220703</ele>
        <time>2021-02-02T12:41:13.000Z</time>
      </trkpt>
      <trkpt lat="43.89275" lon="3.94662">
        <ele>332.20001220703</ele>
        <time>2021-02-02T12:41:18.000Z</time>
      </trkpt>
      <trkpt lat="43.89276" lon="3.94659">
        <ele>332.20001220703</ele>
        <time>2021-02-02T12:41:19.000Z</time>
      </trkpt>
      <trkpt lat="43.89278" lon="3.94652">
        <ele>333.60000610352</ele>
        <time>2021-02-02T12:41:21.000Z</time>
      </trkpt>
      <trkpt lat="43.89283" lon="3.94634">
        <ele>334</ele>
        <time>2021-02-02T12:41:27.000Z</time>
      </trkpt>
      <trkpt lat="43.89287" lon="3.94626">
        <ele>334.79998779297</ele>
        <time>2021-02-02T12:41:30.000Z</time>
      </trkpt>
      <trkpt lat="43.89293" lon="3.94621">
        <ele>335.79998779297</ele>
        <time>2021-02-02T12:41:33.000Z</time>
      </trkpt>
      <trkpt lat="43.89304" lon="3.94608">
        <ele>337</ele>
        <time>2021-02-02T12:41:40.000Z</time>
      </trkpt>
      <trkpt lat="43.89306" lon="3.94606">
        <ele>337.39999389648</ele>
        <time>2021-02-02T12:41:41.000Z</time>
      </trkpt>
      <trkpt lat="43.89314" lon="3.94597">
        <ele>338.39999389648</ele>
        <time>2021-02-02T12:41:46.000Z</time>
      </trkpt>
      <trkpt lat="43.8932" lon="3.94592">
        <ele>338.79998779297</ele>
        <time>2021-02-02T12:41:49.000Z</time>
      </trkpt>
      <trkpt lat="43.89327" lon="3.94591">
        <ele>339.60000610352</ele>
        <time>2021-02-02T12:41:53.000Z</time>
      </trkpt>
      <trkpt lat="43.89332" lon="3.94589">
        <ele>340</ele>
        <time>2021-02-02T12:41:56.000Z</time>
      </trkpt>
      <trkpt lat="43.89339" lon="3.94585">
        <ele>340.79998779297</ele>
        <time>2021-02-02T12:42:00.000Z</time>
      </trkpt>
      <trkpt lat="43.89346" lon="3.94582">
        <ele>342</ele>
        <time>2021-02-02T12:42:04.000Z</time>
      </trkpt>
      <trkpt lat="43.89352" lon="3.9458">
        <ele>343</ele>
        <time>2021-02-02T12:42:07.000Z</time>
      </trkpt>
      <trkpt lat="43.89359" lon="3.94579">
        <ele>343.20001220703</ele>
        <time>2021-02-02T12:42:11.000Z</time>
      </trkpt>
      <trkpt lat="43.89366" lon="3.94578">
        <ele>344.39999389648</ele>
        <time>2021-02-02T12:42:15.000Z</time>
      </trkpt>
      <trkpt lat="43.8937" lon="3.94576">
        <ele>344.79998779297</ele>
        <time>2021-02-02T12:42:17.000Z</time>
      </trkpt>
      <trkpt lat="43.89375" lon="3.94575">
        <ele>345.60000610352</ele>
        <time>2021-02-02T12:42:20.000Z</time>
      </trkpt>
      <trkpt lat="43.8938" lon="3.94573">
        <ele>346.20001220703</ele>
        <time>2021-02-02T12:42:23.000Z</time>
      </trkpt>
      <trkpt lat="43.89382" lon="3.94573">
        <ele>346.20001220703</ele>
        <time>2021-02-02T12:42:24.000Z</time>
      </trkpt>
      <trkpt lat="43.89385" lon="3.94572">
        <ele>346.79998779297</ele>
        <time>2021-02-02T12:42:26.000Z</time>
      </trkpt>
      <trkpt lat="43.89388" lon="3.9457">
        <ele>346.79998779297</ele>
        <time>2021-02-02T12:42:28.000Z</time>
      </trkpt>
      <trkpt lat="43.89393" lon="3.9457">
        <ele>347.39999389648</ele>
        <time>2021-02-02T12:42:30.000Z</time>
      </trkpt>
      <trkpt lat="43.89394" lon="3.94569">
        <ele>348</ele>
        <time>2021-02-02T12:42:31.000Z</time>
      </trkpt>
      <trkpt lat="43.89402" lon="3.94568">
        <ele>348.79998779297</ele>
        <time>2021-02-02T12:42:35.000Z</time>
      </trkpt>
      <trkpt lat="43.89406" lon="3.94568">
        <ele>349</ele>
        <time>2021-02-02T12:42:37.000Z</time>
      </trkpt>
      <trkpt lat="43.89413" lon="3.94568">
        <ele>350.39999389648</ele>
        <time>2021-02-02T12:42:40.000Z</time>
      </trkpt>
      <trkpt lat="43.89424" lon="3.94569">
        <ele>351.60000610352</ele>
        <time>2021-02-02T12:42:46.000Z</time>
      </trkpt>
      <trkpt lat="43.8943" lon="3.94569">
        <ele>352.60000610352</ele>
        <time>2021-02-02T12:42:49.000Z</time>
      </trkpt>
      <trkpt lat="43.89436" lon="3.94572">
        <ele>353.60000610352</ele>
        <time>2021-02-02T12:42:53.000Z</time>
      </trkpt>
      <trkpt lat="43.89438" lon="3.94575">
        <ele>354.39999389648</ele>
        <time>2021-02-02T12:42:55.000Z</time>
      </trkpt>
      <trkpt lat="43.89439" lon="3.94577">
        <ele>354.79998779297</ele>
        <time>2021-02-02T12:42:56.000Z</time>
      </trkpt>
      <trkpt lat="43.8944" lon="3.94578">
        <ele>355</ele>
        <time>2021-02-02T12:42:57.000Z</time>
      </trkpt>
      <trkpt lat="43.89435" lon="3.94586">
        <ele>355.39999389648</ele>
        <time>2021-02-02T12:43:02.000Z</time>
      </trkpt>
      <trkpt lat="43.89433" lon="3.94589">
        <ele>355.60000610352</ele>
        <time>2021-02-02T12:43:04.000Z</time>
      </trkpt>
      <trkpt lat="43.89432" lon="3.94591">
        <ele>356</ele>
        <time>2021-02-02T12:43:05.000Z</time>
      </trkpt>
      <trkpt lat="43.8943" lon="3.94597">
        <ele>357</ele>
        <time>2021-02-02T12:43:08.000Z</time>
      </trkpt>
      <trkpt lat="43.89428" lon="3.94603">
        <ele>357.60000610352</ele>
        <time>2021-02-02T12:43:11.000Z</time>
      </trkpt>
      <trkpt lat="43.89425" lon="3.94611">
        <ele>358</ele>
        <time>2021-02-02T12:43:15.000Z</time>
      </trkpt>
      <trkpt lat="43.89422" lon="3.94618">
        <ele>358.60000610352</ele>
        <time>2021-02-02T12:43:18.000Z</time>
      </trkpt>
      <trkpt lat="43.89419" lon="3.94625">
        <ele>359</ele>
        <time>2021-02-02T12:43:21.000Z</time>
      </trkpt>
      <trkpt lat="43.89416" lon="3.94632">
        <ele>359.79998779297</ele>
        <time>2021-02-02T12:43:24.000Z</time>
      </trkpt>
      <trkpt lat="43.89415" lon="3.9464">
        <ele>360.39999389648</ele>
        <time>2021-02-02T12:43:27.000Z</time>
      </trkpt>
      <trkpt lat="43.89415" lon="3.94648">
        <ele>360.60000610352</ele>
        <time>2021-02-02T12:43:30.000Z</time>
      </trkpt>
      <trkpt lat="43.89415" lon="3.94662">
        <ele>360.79998779297</ele>
        <time>2021-02-02T12:43:35.000Z</time>
      </trkpt>
      <trkpt lat="43.89417" lon="3.94677">
        <ele>361.39999389648</ele>
        <time>2021-02-02T12:43:40.000Z</time>
      </trkpt>
      <trkpt lat="43.89418" lon="3.94686">
        <ele>362</ele>
        <time>2021-02-02T12:43:43.000Z</time>
      </trkpt>
      <trkpt lat="43.89419" lon="3.94691">
        <ele>362.79998779297</ele>
        <time>2021-02-02T12:43:45.000Z</time>
      </trkpt>
      <trkpt lat="43.89424" lon="3.94704">
        <ele>363.39999389648</ele>
        <time>2021-02-02T12:43:50.000Z</time>
      </trkpt>
      <trkpt lat="43.89425" lon="3.94706">
        <ele>363.79998779297</ele>
        <time>2021-02-02T12:43:51.000Z</time>
      </trkpt>
      <trkpt lat="43.89432" lon="3.94716">
        <ele>365</ele>
        <time>2021-02-02T12:43:56.000Z</time>
      </trkpt>
      <trkpt lat="43.89433" lon="3.94718">
        <ele>365</ele>
        <time>2021-02-02T12:43:57.000Z</time>
      </trkpt>
      <trkpt lat="43.8944" lon="3.94729">
        <ele>365.60000610352</ele>
        <time>2021-02-02T12:44:02.000Z</time>
      </trkpt>
      <trkpt lat="43.89441" lon="3.94731">
        <ele>366</ele>
        <time>2021-02-02T12:44:03.000Z</time>
      </trkpt>
      <trkpt lat="43.8945" lon="3.9474">
        <ele>367</ele>
        <time>2021-02-02T12:44:09.000Z</time>
      </trkpt>
      <trkpt lat="43.89452" lon="3.94741">
        <ele>367.20001220703</ele>
        <time>2021-02-02T12:44:10.000Z</time>
      </trkpt>
      <trkpt lat="43.89462" lon="3.94746">
        <ele>368.20001220703</ele>
        <time>2021-02-02T12:44:16.000Z</time>
      </trkpt>
      <trkpt lat="43.89466" lon="3.94748">
        <ele>368.39999389648</ele>
        <time>2021-02-02T12:44:18.000Z</time>
      </trkpt>
      <trkpt lat="43.89475" lon="3.94753">
        <ele>369</ele>
        <time>2021-02-02T12:44:23.000Z</time>
      </trkpt>
      <trkpt lat="43.89481" lon="3.94757">
        <ele>369.39999389648</ele>
        <time>2021-02-02T12:44:26.000Z</time>
      </trkpt>
      <trkpt lat="43.89486" lon="3.94759">
        <ele>370</ele>
        <time>2021-02-02T12:44:29.000Z</time>
      </trkpt>
      <trkpt lat="43.89492" lon="3.94761">
        <ele>370.60000610352</ele>
        <time>2021-02-02T12:44:32.000Z</time>
      </trkpt>
      <trkpt lat="43.89496" lon="3.94762">
        <ele>370.60000610352</ele>
        <time>2021-02-02T12:44:34.000Z</time>
      </trkpt>
      <trkpt lat="43.8951" lon="3.94764">
        <ele>371.39999389648</ele>
        <time>2021-02-02T12:44:41.000Z</time>
      </trkpt>
      <trkpt lat="43.89512" lon="3.94763">
        <ele>371.60000610352</ele>
        <time>2021-02-02T12:44:42.000Z</time>
      </trkpt>
      <trkpt lat="43.89526" lon="3.94761">
        <ele>372.39999389648</ele>
        <time>2021-02-02T12:44:49.000Z</time>
      </trkpt>
      <trkpt lat="43.8953" lon="3.94761">
        <ele>372.79998779297</ele>
        <time>2021-02-02T12:44:51.000Z</time>
      </trkpt>
      <trkpt lat="43.89542" lon="3.94758">
        <ele>373.60000610352</ele>
        <time>2021-02-02T12:44:57.000Z</time>
      </trkpt>
      <trkpt lat="43.89544" lon="3.94757">
        <ele>373.79998779297</ele>
        <time>2021-02-02T12:44:58.000Z</time>
      </trkpt>
      <trkpt lat="43.89553" lon="3.94751">
        <ele>373.79998779297</ele>
        <time>2021-02-02T12:45:03.000Z</time>
      </trkpt>
      <trkpt lat="43.89565" lon="3.94741">
        <ele>373.79998779297</ele>
        <time>2021-02-02T12:45:10.000Z</time>
      </trkpt>
      <trkpt lat="43.89574" lon="3.9473">
        <ele>374.39999389648</ele>
        <time>2021-02-02T12:45:15.000Z</time>
      </trkpt>
      <trkpt lat="43.89578" lon="3.94726">
        <ele>374.39999389648</ele>
        <time>2021-02-02T12:45:17.000Z</time>
      </trkpt>
      <trkpt lat="43.89583" lon="3.9472">
        <ele>375</ele>
        <time>2021-02-02T12:45:20.000Z</time>
      </trkpt>
      <trkpt lat="43.89585" lon="3.94716">
        <ele>375.60000610352</ele>
        <time>2021-02-02T12:45:22.000Z</time>
      </trkpt>
      <trkpt lat="43.89592" lon="3.94703">
        <ele>376</ele>
        <time>2021-02-02T12:45:27.000Z</time>
      </trkpt>
      <trkpt lat="43.89594" lon="3.94698">
        <ele>376.60000610352</ele>
        <time>2021-02-02T12:45:29.000Z</time>
      </trkpt>
      <trkpt lat="43.89598" lon="3.94687">
        <ele>377.20001220703</ele>
        <time>2021-02-02T12:45:33.000Z</time>
      </trkpt>
      <trkpt lat="43.896" lon="3.94682">
        <ele>377.39999389648</ele>
        <time>2021-02-02T12:45:35.000Z</time>
      </trkpt>
      <trkpt lat="43.89603" lon="3.94675">
        <ele>378.39999389648</ele>
        <time>2021-02-02T12:45:38.000Z</time>
      </trkpt>
      <trkpt lat="43.89607" lon="3.94669">
        <ele>378.60000610352</ele>
        <time>2021-02-02T12:45:41.000Z</time>
      </trkpt>
      <trkpt lat="43.89615" lon="3.94654">
        <ele>379.39999389648</ele>
        <time>2021-02-02T12:45:47.000Z</time>
      </trkpt>
      <trkpt lat="43.89618" lon="3.94648">
        <ele>379.60000610352</ele>
        <time>2021-02-02T12:45:49.000Z</time>
      </trkpt>
      <trkpt lat="43.89626" lon="3.94632">
        <ele>380.60000610352</ele>
        <time>2021-02-02T12:45:55.000Z</time>
      </trkpt>
      <trkpt lat="43.8963" lon="3.94625">
        <ele>381</ele>
        <time>2021-02-02T12:45:58.000Z</time>
      </trkpt>
      <trkpt lat="43.89638" lon="3.94607">
        <ele>381.20001220703</ele>
        <time>2021-02-02T12:46:05.000Z</time>
      </trkpt>
      <trkpt lat="43.89642" lon="3.94599">
        <ele>381.60000610352</ele>
        <time>2021-02-02T12:46:08.000Z</time>
      </trkpt>
      <trkpt lat="43.89647" lon="3.94591">
        <ele>382.79998779297</ele>
        <time>2021-02-02T12:46:12.000Z</time>
      </trkpt>
      <trkpt lat="43.89657" lon="3.94576">
        <ele>384</ele>
        <time>2021-02-02T12:46:19.000Z</time>
      </trkpt>
      <trkpt lat="43.89665" lon="3.94563">
        <ele>384.79998779297</ele>
        <time>2021-02-02T12:46:25.000Z</time>
      </trkpt>
      <trkpt lat="43.89667" lon="3.9456">
        <ele>385</ele>
        <time>2021-02-02T12:46:26.000Z</time>
      </trkpt>
      <trkpt lat="43.89676" lon="3.94546">
        <ele>386</ele>
        <time>2021-02-02T12:46:32.000Z</time>
      </trkpt>
      <trkpt lat="43.89678" lon="3.94543">
        <ele>386.20001220703</ele>
        <time>2021-02-02T12:46:33.000Z</time>
      </trkpt>
      <trkpt lat="43.89685" lon="3.94529">
        <ele>387</ele>
        <time>2021-02-02T12:46:39.000Z</time>
      </trkpt>
      <trkpt lat="43.89687" lon="3.94526">
        <ele>387.20001220703</ele>
        <time>2021-02-02T12:46:40.000Z</time>
      </trkpt>
      <trkpt lat="43.89695" lon="3.94509">
        <ele>387.79998779297</ele>
        <time>2021-02-02T12:46:47.000Z</time>
      </trkpt>
      <trkpt lat="43.89702" lon="3.94492">
        <ele>388.39999389648</ele>
        <time>2021-02-02T12:46:53.000Z</time>
      </trkpt>
      <trkpt lat="43.89709" lon="3.94479">
        <ele>388.60000610352</ele>
        <time>2021-02-02T12:46:58.000Z</time>
      </trkpt>
      <trkpt lat="43.89716" lon="3.94471">
        <ele>389.60000610352</ele>
        <time>2021-02-02T12:47:02.000Z</time>
      </trkpt>
      <trkpt lat="43.89718" lon="3.9447">
        <ele>389.60000610352</ele>
        <time>2021-02-02T12:47:03.000Z</time>
      </trkpt>
      <trkpt lat="43.89728" lon="3.9446">
        <ele>390.20001220703</ele>
        <time>2021-02-02T12:47:08.000Z</time>
      </trkpt>
      <trkpt lat="43.89742" lon="3.94445">
        <ele>390.39999389648</ele>
        <time>2021-02-02T12:47:14.000Z</time>
      </trkpt>
      <trkpt lat="43.89743" lon="3.94442">
        <ele>390.79998779297</ele>
        <time>2021-02-02T12:47:15.000Z</time>
      </trkpt>
      <trkpt lat="43.89751" lon="3.94427">
        <ele>391.39999389648</ele>
        <time>2021-02-02T12:47:20.000Z</time>
      </trkpt>
      <trkpt lat="43.89763" lon="3.94407">
        <ele>391.39999389648</ele>
        <time>2021-02-02T12:47:27.000Z</time>
      </trkpt>
      <trkpt lat="43.89766" lon="3.944">
        <ele>391.79998779297</ele>
        <time>2021-02-02T12:47:29.000Z</time>
      </trkpt>
      <trkpt lat="43.89774" lon="3.94381">
        <ele>392.20001220703</ele>
        <time>2021-02-02T12:47:34.000Z</time>
      </trkpt>
      <trkpt lat="43.89785" lon="3.94365">
        <ele>392.20001220703</ele>
        <time>2021-02-02T12:47:40.000Z</time>
      </trkpt>
      <trkpt lat="43.89796" lon="3.94356">
        <ele>392</ele>
        <time>2021-02-02T12:47:45.000Z</time>
      </trkpt>
      <trkpt lat="43.89807" lon="3.94354">
        <ele>391.39999389648</ele>
        <time>2021-02-02T12:47:50.000Z</time>
      </trkpt>
      <trkpt lat="43.89818" lon="3.94355">
        <ele>391.60000610352</ele>
        <time>2021-02-02T12:47:54.000Z</time>
      </trkpt>
      <trkpt lat="43.89832" lon="3.9436">
        <ele>392.20001220703</ele>
        <time>2021-02-02T12:48:00.000Z</time>
      </trkpt>
      <trkpt lat="43.89842" lon="3.94363">
        <ele>392.79998779297</ele>
        <time>2021-02-02T12:48:04.000Z</time>
      </trkpt>
      <trkpt lat="43.89844" lon="3.94364">
        <ele>392.79998779297</ele>
        <time>2021-02-02T12:48:05.000Z</time>
      </trkpt>
      <trkpt lat="43.89857" lon="3.94369">
        <ele>394.20001220703</ele>
        <time>2021-02-02T12:48:10.000Z</time>
      </trkpt>
      <trkpt lat="43.89869" lon="3.94375">
        <ele>394.60000610352</ele>
        <time>2021-02-02T12:48:15.000Z</time>
      </trkpt>
      <trkpt lat="43.89885" lon="3.94386">
        <ele>395.39999389648</ele>
        <time>2021-02-02T12:48:21.000Z</time>
      </trkpt>
      <trkpt lat="43.89888" lon="3.94387">
        <ele>395.39999389648</ele>
        <time>2021-02-02T12:48:22.000Z</time>
      </trkpt>
      <trkpt lat="43.89894" lon="3.94387">
        <ele>395.79998779297</ele>
        <time>2021-02-02T12:48:24.000Z</time>
      </trkpt>
      <trkpt lat="43.89899" lon="3.94386">
        <ele>396</ele>
        <time>2021-02-02T12:48:26.000Z</time>
      </trkpt>
      <trkpt lat="43.89904" lon="3.94385">
        <ele>396.60000610352</ele>
        <time>2021-02-02T12:48:28.000Z</time>
      </trkpt>
      <trkpt lat="43.89914" lon="3.94382">
        <ele>397.39999389648</ele>
        <time>2021-02-02T12:48:32.000Z</time>
      </trkpt>
      <trkpt lat="43.89929" lon="3.94383">
        <ele>397</ele>
        <time>2021-02-02T12:48:38.000Z</time>
      </trkpt>
      <trkpt lat="43.89939" lon="3.94382">
        <ele>397.60000610352</ele>
        <time>2021-02-02T12:48:42.000Z</time>
      </trkpt>
      <trkpt lat="43.89944" lon="3.94381">
        <ele>398</ele>
        <time>2021-02-02T12:48:44.000Z</time>
      </trkpt>
      <trkpt lat="43.89958" lon="3.9438">
        <ele>398.79998779297</ele>
        <time>2021-02-02T12:48:50.000Z</time>
      </trkpt>
      <trkpt lat="43.89976" lon="3.94385">
        <ele>400</ele>
        <time>2021-02-02T12:48:57.000Z</time>
      </trkpt>
      <trkpt lat="43.89993" lon="3.94389">
        <ele>400.39999389648</ele>
        <time>2021-02-02T12:49:03.000Z</time>
      </trkpt>
      <trkpt lat="43.90012" lon="3.9439">
        <ele>400</ele>
        <time>2021-02-02T12:49:09.000Z</time>
      </trkpt>
      <trkpt lat="43.90032" lon="3.94392">
        <ele>400</ele>
        <time>2021-02-02T12:49:15.000Z</time>
      </trkpt>
      <trkpt lat="43.90049" lon="3.94398">
        <ele>399.20001220703</ele>
        <time>2021-02-02T12:49:20.000Z</time>
      </trkpt>
      <trkpt lat="43.90071" lon="3.94407">
        <ele>399.39999389648</ele>
        <time>2021-02-02T12:49:27.000Z</time>
      </trkpt>
      <trkpt lat="43.90087" lon="3.94416">
        <ele>400.79998779297</ele>
        <time>2021-02-02T12:49:34.000Z</time>
      </trkpt>
      <trkpt lat="43.90095" lon="3.94419">
        <ele>402</ele>
        <time>2021-02-02T12:49:37.000Z</time>
      </trkpt>
      <trkpt lat="43.90106" lon="3.94422">
        <ele>402.79998779297</ele>
        <time>2021-02-02T12:49:41.000Z</time>
      </trkpt>
      <trkpt lat="43.90113" lon="3.94425">
        <ele>403</ele>
        <time>2021-02-02T12:49:44.000Z</time>
      </trkpt>
      <trkpt lat="43.90121" lon="3.94428">
        <ele>403.20001220703</ele>
        <time>2021-02-02T12:49:47.000Z</time>
      </trkpt>
      <trkpt lat="43.90131" lon="3.94432">
        <ele>404.20001220703</ele>
        <time>2021-02-02T12:49:51.000Z</time>
      </trkpt>
      <trkpt lat="43.90136" lon="3.94433">
        <ele>404.39999389648</ele>
        <time>2021-02-02T12:49:53.000Z</time>
      </trkpt>
      <trkpt lat="43.90157" lon="3.94435">
        <ele>405</ele>
        <time>2021-02-02T12:50:01.000Z</time>
      </trkpt>
      <trkpt lat="43.90164" lon="3.94438">
        <ele>405.39999389648</ele>
        <time>2021-02-02T12:50:04.000Z</time>
      </trkpt>
      <trkpt lat="43.90175" lon="3.94439">
        <ele>406.39999389648</ele>
        <time>2021-02-02T12:50:08.000Z</time>
      </trkpt>
      <trkpt lat="43.90178" lon="3.94438">
        <ele>406.20001220703</ele>
        <time>2021-02-02T12:50:09.000Z</time>
      </trkpt>
      <trkpt lat="43.90194" lon="3.94434">
        <ele>407</ele>
        <time>2021-02-02T12:50:15.000Z</time>
      </trkpt>
      <trkpt lat="43.90198" lon="3.94431">
        <ele>407.60000610352</ele>
        <time>2021-02-02T12:50:17.000Z</time>
      </trkpt>
      <trkpt lat="43.90205" lon="3.94423">
        <ele>407.60000610352</ele>
        <time>2021-02-02T12:50:21.000Z</time>
      </trkpt>
      <trkpt lat="43.90218" lon="3.94417">
        <ele>408.39999389648</ele>
        <time>2021-02-02T12:50:27.000Z</time>
      </trkpt>
      <trkpt lat="43.90232" lon="3.94416">
        <ele>409.39999389648</ele>
        <time>2021-02-02T12:50:33.000Z</time>
      </trkpt>
      <trkpt lat="43.90242" lon="3.94417">
        <ele>410</ele>
        <time>2021-02-02T12:50:37.000Z</time>
      </trkpt>
      <trkpt lat="43.90248" lon="3.94419">
        <ele>410.20001220703</ele>
        <time>2021-02-02T12:50:40.000Z</time>
      </trkpt>
      <trkpt lat="43.90261" lon="3.9442">
        <ele>410.20001220703</ele>
        <time>2021-02-02T12:50:46.000Z</time>
      </trkpt>
      <trkpt lat="43.90262" lon="3.9442">
        <ele>409.60000610352</ele>
        <time>2021-02-02T12:50:48.000Z</time>
      </trkpt>
      <trkpt lat="43.90268" lon="3.94419">
        <ele>409.20001220703</ele>
        <time>2021-02-02T12:59:42.000Z</time>
      </trkpt>
      <trkpt lat="43.90276" lon="3.94418">
        <ele>409.60000610352</ele>
        <time>2021-02-02T12:59:44.000Z</time>
      </trkpt>
      <trkpt lat="43.90286" lon="3.94416">
        <ele>409.39999389648</ele>
        <time>2021-02-02T12:59:46.000Z</time>
      </trkpt>
      <trkpt lat="43.90299" lon="3.94412">
        <ele>409</ele>
        <time>2021-02-02T12:59:48.000Z</time>
      </trkpt>
      <trkpt lat="43.90306" lon="3.94409">
        <ele>408.20001220703</ele>
        <time>2021-02-02T12:59:49.000Z</time>
      </trkpt>
      <trkpt lat="43.90313" lon="3.94406">
        <ele>407</ele>
        <time>2021-02-02T12:59:50.000Z</time>
      </trkpt>
      <trkpt lat="43.9032" lon="3.94402">
        <ele>406</ele>
        <time>2021-02-02T12:59:51.000Z</time>
      </trkpt>
      <trkpt lat="43.90327" lon="3.94399">
        <ele>405.20001220703</ele>
        <time>2021-02-02T12:59:52.000Z</time>
      </trkpt>
      <trkpt lat="43.90335" lon="3.94397">
        <ele>404.60000610352</ele>
        <time>2021-02-02T12:59:53.000Z</time>
      </trkpt>
      <trkpt lat="43.90342" lon="3.94394">
        <ele>404</ele>
        <time>2021-02-02T12:59:54.000Z</time>
      </trkpt>
      <trkpt lat="43.9035" lon="3.94391">
        <ele>403.20001220703</ele>
        <time>2021-02-02T12:59:55.000Z</time>
      </trkpt>
      <trkpt lat="43.90374" lon="3.94379">
        <ele>402</ele>
        <time>2021-02-02T12:59:58.000Z</time>
      </trkpt>
      <trkpt lat="43.90391" lon="3.9437">
        <ele>400.79998779297</ele>
        <time>2021-02-02T13:00:00.000Z</time>
      </trkpt>
      <trkpt lat="43.904" lon="3.94365">
        <ele>399</ele>
        <time>2021-02-02T13:00:01.000Z</time>
      </trkpt>
      <trkpt lat="43.90408" lon="3.94359">
        <ele>396.39999389648</ele>
        <time>2021-02-02T13:00:02.000Z</time>
      </trkpt>
      <trkpt lat="43.90417" lon="3.94354">
        <ele>395.20001220703</ele>
        <time>2021-02-02T13:00:03.000Z</time>
      </trkpt>
      <trkpt lat="43.90425" lon="3.94352">
        <ele>393.39999389648</ele>
        <time>2021-02-02T13:00:04.000Z</time>
      </trkpt>
      <trkpt lat="43.90434" lon="3.94351">
        <ele>392</ele>
        <time>2021-02-02T13:00:05.000Z</time>
      </trkpt>
      <trkpt lat="43.90452" lon="3.94351">
        <ele>390.79998779297</ele>
        <time>2021-02-02T13:00:07.000Z</time>
      </trkpt>
      <trkpt lat="43.90468" lon="3.94356">
        <ele>389.39999389648</ele>
        <time>2021-02-02T13:00:09.000Z</time>
      </trkpt>
      <trkpt lat="43.90482" lon="3.94364">
        <ele>387.79998779297</ele>
        <time>2021-02-02T13:00:11.000Z</time>
      </trkpt>
      <trkpt lat="43.90496" lon="3.94376">
        <ele>385.79998779297</ele>
        <time>2021-02-02T13:00:13.000Z</time>
      </trkpt>
      <trkpt lat="43.90509" lon="3.94388">
        <ele>384.20001220703</ele>
        <time>2021-02-02T13:00:15.000Z</time>
      </trkpt>
      <trkpt lat="43.90522" lon="3.94401">
        <ele>383.39999389648</ele>
        <time>2021-02-02T13:00:17.000Z</time>
      </trkpt>
      <trkpt lat="43.90528" lon="3.94407">
        <ele>382.60000610352</ele>
        <time>2021-02-02T13:00:18.000Z</time>
      </trkpt>
      <trkpt lat="43.90534" lon="3.94414">
        <ele>381.60000610352</ele>
        <time>2021-02-02T13:00:19.000Z</time>
      </trkpt>
      <trkpt lat="43.90539" lon="3.94422">
        <ele>381</ele>
        <time>2021-02-02T13:00:20.000Z</time>
      </trkpt>
      <trkpt lat="43.90544" lon="3.9443">
        <ele>381.20001220703</ele>
        <time>2021-02-02T13:00:21.000Z</time>
      </trkpt>
      <trkpt lat="43.90552" lon="3.94449">
        <ele>380.79998779297</ele>
        <time>2021-02-02T13:00:23.000Z</time>
      </trkpt>
      <trkpt lat="43.90569" lon="3.94489">
        <ele>379.79998779297</ele>
        <time>2021-02-02T13:00:27.000Z</time>
      </trkpt>
      <trkpt lat="43.90572" lon="3.94498">
        <ele>379.39999389648</ele>
        <time>2021-02-02T13:00:28.000Z</time>
      </trkpt>
      <trkpt lat="43.90574" lon="3.94509">
        <ele>379.39999389648</ele>
        <time>2021-02-02T13:00:29.000Z</time>
      </trkpt>
      <trkpt lat="43.90576" lon="3.94519">
        <ele>378.60000610352</ele>
        <time>2021-02-02T13:00:30.000Z</time>
      </trkpt>
      <trkpt lat="43.90577" lon="3.9453">
        <ele>377.60000610352</ele>
        <time>2021-02-02T13:00:31.000Z</time>
      </trkpt>
      <trkpt lat="43.90578" lon="3.9454">
        <ele>377</ele>
        <time>2021-02-02T13:00:32.000Z</time>
      </trkpt>
      <trkpt lat="43.90579" lon="3.9455">
        <ele>376.79998779297</ele>
        <time>2021-02-02T13:00:33.000Z</time>
      </trkpt>
      <trkpt lat="43.90579" lon="3.9456">
        <ele>375.60000610352</ele>
        <time>2021-02-02T13:00:34.000Z</time>
      </trkpt>
      <trkpt lat="43.90582" lon="3.9458">
        <ele>374.60000610352</ele>
        <time>2021-02-02T13:00:36.000Z</time>
      </trkpt>
      <trkpt lat="43.90585" lon="3.94589">
        <ele>374.20001220703</ele>
        <time>2021-02-02T13:00:37.000Z</time>
      </trkpt>
      <trkpt lat="43.90588" lon="3.94595">
        <ele>373.79998779297</ele>
        <time>2021-02-02T13:00:38.000Z</time>
      </trkpt>
      <trkpt lat="43.90596" lon="3.94598">
        <ele>373.20001220703</ele>
        <time>2021-02-02T13:00:40.000Z</time>
      </trkpt>
      <trkpt lat="43.90599" lon="3.94594">
        <ele>372.20001220703</ele>
        <time>2021-02-02T13:00:41.000Z</time>
      </trkpt>
      <trkpt lat="43.90601" lon="3.94587">
        <ele>371</ele>
        <time>2021-02-02T13:00:42.000Z</time>
      </trkpt>
      <trkpt lat="43.90607" lon="3.94573">
        <ele>369.39999389648</ele>
        <time>2021-02-02T13:00:44.000Z</time>
      </trkpt>
      <trkpt lat="43.9062" lon="3.94566">
        <ele>368.20001220703</ele>
        <time>2021-02-02T13:00:46.000Z</time>
      </trkpt>
      <trkpt lat="43.90627" lon="3.94565">
        <ele>367.60000610352</ele>
        <time>2021-02-02T13:00:47.000Z</time>
      </trkpt>
      <trkpt lat="43.90642" lon="3.94563">
        <ele>366.79998779297</ele>
        <time>2021-02-02T13:00:49.000Z</time>
      </trkpt>
      <trkpt lat="43.90655" lon="3.94568">
        <ele>366.20001220703</ele>
        <time>2021-02-02T13:00:51.000Z</time>
      </trkpt>
      <trkpt lat="43.90661" lon="3.94572">
        <ele>365.79998779297</ele>
        <time>2021-02-02T13:00:52.000Z</time>
      </trkpt>
      <trkpt lat="43.90667" lon="3.94577">
        <ele>365.39999389648</ele>
        <time>2021-02-02T13:00:53.000Z</time>
      </trkpt>
      <trkpt lat="43.90678" lon="3.94589">
        <ele>365</ele>
        <time>2021-02-02T13:00:55.000Z</time>
      </trkpt>
      <trkpt lat="43.90685" lon="3.94604">
        <ele>364.39999389648</ele>
        <time>2021-02-02T13:00:57.000Z</time>
      </trkpt>
      <trkpt lat="43.90686" lon="3.94611">
        <ele>364</ele>
        <time>2021-02-02T13:00:58.000Z</time>
      </trkpt>
      <trkpt lat="43.90688" lon="3.94618">
        <ele>363.20001220703</ele>
        <time>2021-02-02T13:00:59.000Z</time>
      </trkpt>
      <trkpt lat="43.90691" lon="3.94639">
        <ele>362.20001220703</ele>
        <time>2021-02-02T13:01:02.000Z</time>
      </trkpt>
      <trkpt lat="43.90693" lon="3.94646">
        <ele>362</ele>
        <time>2021-02-02T13:01:03.000Z</time>
      </trkpt>
      <trkpt lat="43.90695" lon="3.94654">
        <ele>361.79998779297</ele>
        <time>2021-02-02T13:01:04.000Z</time>
      </trkpt>
      <trkpt lat="43.90701" lon="3.94675">
        <ele>361.79998779297</ele>
        <time>2021-02-02T13:01:07.000Z</time>
      </trkpt>
      <trkpt lat="43.90709" lon="3.94701">
        <ele>361.79998779297</ele>
        <time>2021-02-02T13:01:11.000Z</time>
      </trkpt>
      <trkpt lat="43.90711" lon="3.94707">
        <ele>361.79998779297</ele>
        <time>2021-02-02T13:01:12.000Z</time>
      </trkpt>
      <trkpt lat="43.90714" lon="3.94719">
        <ele>362</ele>
        <time>2021-02-02T13:01:14.000Z</time>
      </trkpt>
      <trkpt lat="43.90719" lon="3.94736">
        <ele>362.20001220703</ele>
        <time>2021-02-02T13:01:17.000Z</time>
      </trkpt>
      <trkpt lat="43.90724" lon="3.94745">
        <ele>362.20001220703</ele>
        <time>2021-02-02T13:01:19.000Z</time>
      </trkpt>
      <trkpt lat="43.9073" lon="3.9475">
        <ele>362</ele>
        <time>2021-02-02T13:01:21.000Z</time>
      </trkpt>
      <trkpt lat="43.90743" lon="3.94762">
        <ele>362.60000610352</ele>
        <time>2021-02-02T13:01:26.000Z</time>
      </trkpt>
      <trkpt lat="43.90747" lon="3.94766">
        <ele>363.39999389648</ele>
        <time>2021-02-02T13:01:28.000Z</time>
      </trkpt>
      <trkpt lat="43.90754" lon="3.94773">
        <ele>364.79998779297</ele>
        <time>2021-02-02T13:01:31.000Z</time>
      </trkpt>
      <trkpt lat="43.90758" lon="3.94776">
        <ele>365</ele>
        <time>2021-02-02T13:01:33.000Z</time>
      </trkpt>
      <trkpt lat="43.90768" lon="3.94784">
        <ele>365.79998779297</ele>
        <time>2021-02-02T13:01:38.000Z</time>
      </trkpt>
      <trkpt lat="43.90771" lon="3.94788">
        <ele>366.20001220703</ele>
        <time>2021-02-02T13:01:40.000Z</time>
      </trkpt>
      <trkpt lat="43.90773" lon="3.94789">
        <ele>366.79998779297</ele>
        <time>2021-02-02T13:01:42.000Z</time>
      </trkpt>
      <trkpt lat="43.90777" lon="3.94793">
        <ele>367.39999389648</ele>
        <time>2021-02-02T13:01:51.000Z</time>
      </trkpt>
      <trkpt lat="43.90778" lon="3.94794">
        <ele>367.79998779297</ele>
        <time>2021-02-02T13:01:52.000Z</time>
      </trkpt>
      <trkpt lat="43.90783" lon="3.948">
        <ele>368.60000610352</ele>
        <time>2021-02-02T13:01:57.000Z</time>
      </trkpt>
      <trkpt lat="43.90784" lon="3.94802">
        <ele>368.79998779297</ele>
        <time>2021-02-02T13:01:58.000Z</time>
      </trkpt>
      <trkpt lat="43.90789" lon="3.94809">
        <ele>369.60000610352</ele>
        <time>2021-02-02T13:02:02.000Z</time>
      </trkpt>
      <trkpt lat="43.90793" lon="3.94813">
        <ele>370.20001220703</ele>
        <time>2021-02-02T13:02:04.000Z</time>
      </trkpt>
      <trkpt lat="43.90797" lon="3.94819">
        <ele>370.79998779297</ele>
        <time>2021-02-02T13:02:07.000Z</time>
      </trkpt>
      <trkpt lat="43.90802" lon="3.94824">
        <ele>371.20001220703</ele>
        <time>2021-02-02T13:02:10.000Z</time>
      </trkpt>
      <trkpt lat="43.90811" lon="3.94833">
        <ele>371.79998779297</ele>
        <time>2021-02-02T13:02:14.000Z</time>
      </trkpt>
      <trkpt lat="43.90815" lon="3.94841">
        <ele>372.39999389648</ele>
        <time>2021-02-02T13:02:17.000Z</time>
      </trkpt>
      <trkpt lat="43.90819" lon="3.94858">
        <ele>372.79998779297</ele>
        <time>2021-02-02T13:02:23.000Z</time>
      </trkpt>
      <trkpt lat="43.9082" lon="3.94861">
        <ele>373</ele>
        <time>2021-02-02T13:02:24.000Z</time>
      </trkpt>
      <trkpt lat="43.90826" lon="3.94878">
        <ele>372.79998779297</ele>
        <time>2021-02-02T13:02:30.000Z</time>
      </trkpt>
      <trkpt lat="43.90833" lon="3.949">
        <ele>372.39999389648</ele>
        <time>2021-02-02T13:02:37.000Z</time>
      </trkpt>
      <trkpt lat="43.90844" lon="3.9492">
        <ele>373.60000610352</ele>
        <time>2021-02-02T13:02:44.000Z</time>
      </trkpt>
      <trkpt lat="43.90859" lon="3.94935">
        <ele>373</ele>
        <time>2021-02-02T13:02:51.000Z</time>
      </trkpt>
      <trkpt lat="43.90875" lon="3.94949">
        <ele>373.60000610352</ele>
        <time>2021-02-02T13:02:58.000Z</time>
      </trkpt>
      <trkpt lat="43.90883" lon="3.94958">
        <ele>374</ele>
        <time>2021-02-02T13:03:02.000Z</time>
      </trkpt>
      <trkpt lat="43.90892" lon="3.94966">
        <ele>374.39999389648</ele>
        <time>2021-02-02T13:03:06.000Z</time>
      </trkpt>
      <trkpt lat="43.90905" lon="3.94978">
        <ele>374.79998779297</ele>
        <time>2021-02-02T13:03:12.000Z</time>
      </trkpt>
      <trkpt lat="43.90913" lon="3.94988">
        <ele>374.39999389648</ele>
        <time>2021-02-02T13:03:17.000Z</time>
      </trkpt>
      <trkpt lat="43.90924" lon="3.94996">
        <ele>374.79998779297</ele>
        <time>2021-02-02T13:03:22.000Z</time>
      </trkpt>
      <trkpt lat="43.90936" lon="3.95004">
        <ele>375.20001220703</ele>
        <time>2021-02-02T13:03:27.000Z</time>
      </trkpt>
      <trkpt lat="43.90939" lon="3.95005">
        <ele>375.39999389648</ele>
        <time>2021-02-02T13:03:28.000Z</time>
      </trkpt>
      <trkpt lat="43.90951" lon="3.95011">
        <ele>375.79998779297</ele>
        <time>2021-02-02T13:03:33.000Z</time>
      </trkpt>
      <trkpt lat="43.9097" lon="3.95012">
        <ele>375.60000610352</ele>
        <time>2021-02-02T13:03:39.000Z</time>
      </trkpt>
      <trkpt lat="43.90993" lon="3.95011">
        <ele>374.60000610352</ele>
        <time>2021-02-02T13:03:45.000Z</time>
      </trkpt>
      <trkpt lat="43.9102" lon="3.95009">
        <ele>375</ele>
        <time>2021-02-02T13:03:52.000Z</time>
      </trkpt>
      <trkpt lat="43.9105" lon="3.95015">
        <ele>374.79998779297</ele>
        <time>2021-02-02T13:03:59.000Z</time>
      </trkpt>
      <trkpt lat="43.91068" lon="3.95034">
        <ele>374.39999389648</ele>
        <time>2021-02-02T13:04:05.000Z</time>
      </trkpt>
      <trkpt lat="43.91073" lon="3.95047">
        <ele>374</ele>
        <time>2021-02-02T13:04:08.000Z</time>
      </trkpt>
      <trkpt lat="43.91075" lon="3.95057">
        <ele>374</ele>
        <time>2021-02-02T13:04:10.000Z</time>
      </trkpt>
      <trkpt lat="43.91081" lon="3.95086">
        <ele>373.79998779297</ele>
        <time>2021-02-02T13:04:16.000Z</time>
      </trkpt>
      <trkpt lat="43.91082" lon="3.95112">
        <ele>374.20001220703</ele>
        <time>2021-02-02T13:04:21.000Z</time>
      </trkpt>
      <trkpt lat="43.91085" lon="3.95142">
        <ele>373.20001220703</ele>
        <time>2021-02-02T13:04:27.000Z</time>
      </trkpt>
      <trkpt lat="43.9109" lon="3.9516">
        <ele>373.60000610352</ele>
        <time>2021-02-02T13:04:31.000Z</time>
      </trkpt>
      <trkpt lat="43.91103" lon="3.95173">
        <ele>373.39999389648</ele>
        <time>2021-02-02T13:04:36.000Z</time>
      </trkpt>
      <trkpt lat="43.91115" lon="3.95177">
        <ele>373.20001220703</ele>
        <time>2021-02-02T13:04:41.000Z</time>
      </trkpt>
      <trkpt lat="43.91118" lon="3.95177">
        <ele>373.39999389648</ele>
        <time>2021-02-02T13:04:42.000Z</time>
      </trkpt>
      <trkpt lat="43.91132" lon="3.95176">
        <ele>375</ele>
        <time>2021-02-02T13:04:47.000Z</time>
      </trkpt>
      <trkpt lat="43.91147" lon="3.95176">
        <ele>376.20001220703</ele>
        <time>2021-02-02T13:04:52.000Z</time>
      </trkpt>
      <trkpt lat="43.91153" lon="3.95175">
        <ele>375.60000610352</ele>
        <time>2021-02-02T13:04:54.000Z</time>
      </trkpt>
      <trkpt lat="43.91158" lon="3.95175">
        <ele>376</ele>
        <time>2021-02-02T13:04:56.000Z</time>
      </trkpt>
      <trkpt lat="43.91171" lon="3.95174">
        <ele>377</ele>
        <time>2021-02-02T13:05:01.000Z</time>
      </trkpt>
      <trkpt lat="43.91173" lon="3.95175">
        <ele>377.20001220703</ele>
        <time>2021-02-02T13:05:02.000Z</time>
      </trkpt>
      <trkpt lat="43.91186" lon="3.95176">
        <ele>378.20001220703</ele>
        <time>2021-02-02T13:05:07.000Z</time>
      </trkpt>
      <trkpt lat="43.91202" lon="3.95178">
        <ele>377.79998779297</ele>
        <time>2021-02-02T13:05:13.000Z</time>
      </trkpt>
      <trkpt lat="43.91209" lon="3.95179">
        <ele>378.20001220703</ele>
        <time>2021-02-02T13:05:16.000Z</time>
      </trkpt>
      <trkpt lat="43.91216" lon="3.95178">
        <ele>378.79998779297</ele>
        <time>2021-02-02T13:05:19.000Z</time>
      </trkpt>
      <trkpt lat="43.91218" lon="3.95178">
        <ele>379.39999389648</ele>
        <time>2021-02-02T13:05:20.000Z</time>
      </trkpt>
      <trkpt lat="43.91224" lon="3.95174">
        <ele>380</ele>
        <time>2021-02-02T13:05:24.000Z</time>
      </trkpt>
      <trkpt lat="43.91231" lon="3.95169">
        <ele>380.20001220703</ele>
        <time>2021-02-02T13:05:28.000Z</time>
      </trkpt>
      <trkpt lat="43.91233" lon="3.95169">
        <ele>380.39999389648</ele>
        <time>2021-02-02T13:05:29.000Z</time>
      </trkpt>
      <trkpt lat="43.91234" lon="3.95171">
        <ele>380.60000610352</ele>
        <time>2021-02-02T13:05:30.000Z</time>
      </trkpt>
      <trkpt lat="43.91234" lon="3.95177">
        <ele>381.39999389648</ele>
        <time>2021-02-02T13:05:34.000Z</time>
      </trkpt>
      <trkpt lat="43.91231" lon="3.95189">
        <ele>382.20001220703</ele>
        <time>2021-02-02T13:05:39.000Z</time>
      </trkpt>
      <trkpt lat="43.91229" lon="3.95194">
        <ele>382.60000610352</ele>
        <time>2021-02-02T13:05:42.000Z</time>
      </trkpt>
      <trkpt lat="43.91227" lon="3.95198">
        <ele>382.60000610352</ele>
        <time>2021-02-02T13:05:44.000Z</time>
      </trkpt>
      <trkpt lat="43.91224" lon="3.95205">
        <ele>383.60000610352</ele>
        <time>2021-02-02T13:05:47.000Z</time>
      </trkpt>
      <trkpt lat="43.91221" lon="3.95211">
        <ele>384.60000610352</ele>
        <time>2021-02-02T13:05:50.000Z</time>
      </trkpt>
      <trkpt lat="43.9122" lon="3.95213">
        <ele>384.79998779297</ele>
        <time>2021-02-02T13:05:51.000Z</time>
      </trkpt>
      <trkpt lat="43.91212" lon="3.95224">
        <ele>386</ele>
        <time>2021-02-02T13:05:57.000Z</time>
      </trkpt>
      <trkpt lat="43.91211" lon="3.95226">
        <ele>386.20001220703</ele>
        <time>2021-02-02T13:05:58.000Z</time>
      </trkpt>
      <trkpt lat="43.91206" lon="3.95238">
        <ele>387.20001220703</ele>
        <time>2021-02-02T13:06:02.000Z</time>
      </trkpt>
      <trkpt lat="43.91202" lon="3.95248">
        <ele>388</ele>
        <time>2021-02-02T13:06:05.000Z</time>
      </trkpt>
      <trkpt lat="43.91201" lon="3.95251">
        <ele>388.20001220703</ele>
        <time>2021-02-02T13:06:06.000Z</time>
      </trkpt>
      <trkpt lat="43.912" lon="3.95265">
        <ele>389.39999389648</ele>
        <time>2021-02-02T13:06:10.000Z</time>
      </trkpt>
      <trkpt lat="43.912" lon="3.95269">
        <ele>390</ele>
        <time>2021-02-02T13:06:11.000Z</time>
      </trkpt>
      <trkpt lat="43.91202" lon="3.95276">
        <ele>390.60000610352</ele>
        <time>2021-02-02T13:06:13.000Z</time>
      </trkpt>
      <trkpt lat="43.91207" lon="3.95292">
        <ele>391.60000610352</ele>
        <time>2021-02-02T13:06:18.000Z</time>
      </trkpt>
      <trkpt lat="43.91209" lon="3.95297">
        <ele>392</ele>
        <time>2021-02-02T13:06:20.000Z</time>
      </trkpt>
      <trkpt lat="43.91213" lon="3.95302">
        <ele>392.39999389648</ele>
        <time>2021-02-02T13:06:23.000Z</time>
      </trkpt>
      <trkpt lat="43.9122" lon="3.95309">
        <ele>393.39999389648</ele>
        <time>2021-02-02T13:06:27.000Z</time>
      </trkpt>
      <trkpt lat="43.91225" lon="3.95316">
        <ele>394.39999389648</ele>
        <time>2021-02-02T13:06:30.000Z</time>
      </trkpt>
      <trkpt lat="43.91226" lon="3.95318">
        <ele>394.60000610352</ele>
        <time>2021-02-02T13:06:31.000Z</time>
      </trkpt>
      <trkpt lat="43.91236" lon="3.95332">
        <ele>394.79998779297</ele>
        <time>2021-02-02T13:06:37.000Z</time>
      </trkpt>
      <trkpt lat="43.91246" lon="3.95346">
        <ele>395.60000610352</ele>
        <time>2021-02-02T13:06:43.000Z</time>
      </trkpt>
      <trkpt lat="43.91248" lon="3.95348">
        <ele>395.79998779297</ele>
        <time>2021-02-02T13:06:44.000Z</time>
      </trkpt>
      <trkpt lat="43.91257" lon="3.95358">
        <ele>396.20001220703</ele>
        <time>2021-02-02T13:06:49.000Z</time>
      </trkpt>
      <trkpt lat="43.9126" lon="3.95362">
        <ele>396.79998779297</ele>
        <time>2021-02-02T13:06:51.000Z</time>
      </trkpt>
      <trkpt lat="43.91269" lon="3.95373">
        <ele>397.20001220703</ele>
        <time>2021-02-02T13:06:56.000Z</time>
      </trkpt>
      <trkpt lat="43.91275" lon="3.95378">
        <ele>397.79998779297</ele>
        <time>2021-02-02T13:06:59.000Z</time>
      </trkpt>
      <trkpt lat="43.91283" lon="3.95388">
        <ele>398</ele>
        <time>2021-02-02T13:07:04.000Z</time>
      </trkpt>
      <trkpt lat="43.91294" lon="3.95399">
        <ele>399.20001220703</ele>
        <time>2021-02-02T13:07:10.000Z</time>
      </trkpt>
      <trkpt lat="43.91298" lon="3.95404">
        <ele>399.20001220703</ele>
        <time>2021-02-02T13:07:12.000Z</time>
      </trkpt>
      <trkpt lat="43.91311" lon="3.95415">
        <ele>400.39999389648</ele>
        <time>2021-02-02T13:07:18.000Z</time>
      </trkpt>
      <trkpt lat="43.91325" lon="3.95429">
        <ele>401.60000610352</ele>
        <time>2021-02-02T13:07:25.000Z</time>
      </trkpt>
      <trkpt lat="43.91341" lon="3.95442">
        <ele>401.39999389648</ele>
        <time>2021-02-02T13:07:32.000Z</time>
      </trkpt>
      <trkpt lat="43.91353" lon="3.95455">
        <ele>401.60000610352</ele>
        <time>2021-02-02T13:07:37.000Z</time>
      </trkpt>
      <trkpt lat="43.91361" lon="3.95461">
        <ele>401.60000610352</ele>
        <time>2021-02-02T13:07:41.000Z</time>
      </trkpt>
      <trkpt lat="43.91372" lon="3.95469">
        <ele>402</ele>
        <time>2021-02-02T13:07:46.000Z</time>
      </trkpt>
      <trkpt lat="43.91376" lon="3.95474">
        <ele>402.60000610352</ele>
        <time>2021-02-02T13:07:48.000Z</time>
      </trkpt>
      <trkpt lat="43.91381" lon="3.95485">
        <ele>402.79998779297</ele>
        <time>2021-02-02T13:07:51.000Z</time>
      </trkpt>
      <trkpt lat="43.91385" lon="3.95506">
        <ele>403.79998779297</ele>
        <time>2021-02-02T13:07:56.000Z</time>
      </trkpt>
      <trkpt lat="43.91385" lon="3.9553">
        <ele>403.79998779297</ele>
        <time>2021-02-02T13:08:02.000Z</time>
      </trkpt>
      <trkpt lat="43.91384" lon="3.95552">
        <ele>404</ele>
        <time>2021-02-02T13:08:08.000Z</time>
      </trkpt>
      <trkpt lat="43.9138" lon="3.95576">
        <ele>403.60000610352</ele>
        <time>2021-02-02T13:08:14.000Z</time>
      </trkpt>
      <trkpt lat="43.91378" lon="3.95599">
        <ele>403.79998779297</ele>
        <time>2021-02-02T13:08:20.000Z</time>
      </trkpt>
      <trkpt lat="43.91379" lon="3.95619">
        <ele>404.39999389648</ele>
        <time>2021-02-02T13:08:26.000Z</time>
      </trkpt>
      <trkpt lat="43.91379" lon="3.95641">
        <ele>404.60000610352</ele>
        <time>2021-02-02T13:08:32.000Z</time>
      </trkpt>
      <trkpt lat="43.91374" lon="3.95653">
        <ele>404.60000610352</ele>
        <time>2021-02-02T13:08:37.000Z</time>
      </trkpt>
      <trkpt lat="43.91363" lon="3.95663">
        <ele>404.79998779297</ele>
        <time>2021-02-02T13:08:42.000Z</time>
      </trkpt>
      <trkpt lat="43.91361" lon="3.95665">
        <ele>404.79998779297</ele>
        <time>2021-02-02T13:08:43.000Z</time>
      </trkpt>
      <trkpt lat="43.9135" lon="3.95673">
        <ele>404.39999389648</ele>
        <time>2021-02-02T13:08:47.000Z</time>
      </trkpt>
      <trkpt lat="43.91342" lon="3.9568">
        <ele>403.79998779297</ele>
        <time>2021-02-02T13:08:50.000Z</time>
      </trkpt>
      <trkpt lat="43.9133" lon="3.95686">
        <ele>403.60000610352</ele>
        <time>2021-02-02T13:08:54.000Z</time>
      </trkpt>
      <trkpt lat="43.91311" lon="3.95687">
        <ele>404</ele>
        <time>2021-02-02T13:09:00.000Z</time>
      </trkpt>
      <trkpt lat="43.9129" lon="3.95681">
        <ele>404.60000610352</ele>
        <time>2021-02-02T13:09:06.000Z</time>
      </trkpt>
      <trkpt lat="43.91277" lon="3.95675">
        <ele>405.20001220703</ele>
        <time>2021-02-02T13:09:10.000Z</time>
      </trkpt>
      <trkpt lat="43.91271" lon="3.95672">
        <ele>405.60000610352</ele>
        <time>2021-02-02T13:09:12.000Z</time>
      </trkpt>
      <trkpt lat="43.91244" lon="3.95658">
        <ele>405.60000610352</ele>
        <time>2021-02-02T13:09:21.000Z</time>
      </trkpt>
      <trkpt lat="43.91218" lon="3.95642">
        <ele>406.39999389648</ele>
        <time>2021-02-02T13:09:30.000Z</time>
      </trkpt>
      <trkpt lat="43.91196" lon="3.95638">
        <ele>405.79998779297</ele>
        <time>2021-02-02T13:09:37.000Z</time>
      </trkpt>
      <trkpt lat="43.9118" lon="3.9564">
        <ele>406.79998779297</ele>
        <time>2021-02-02T13:09:43.000Z</time>
      </trkpt>
      <trkpt lat="43.9117" lon="3.9565">
        <ele>407.60000610352</ele>
        <time>2021-02-02T13:09:47.000Z</time>
      </trkpt>
      <trkpt lat="43.91168" lon="3.95653">
        <ele>407.79998779297</ele>
        <time>2021-02-02T13:09:48.000Z</time>
      </trkpt>
      <trkpt lat="43.91161" lon="3.95665">
        <ele>408.60000610352</ele>
        <time>2021-02-02T13:09:52.000Z</time>
      </trkpt>
      <trkpt lat="43.9116" lon="3.95669">
        <ele>409.39999389648</ele>
        <time>2021-02-02T13:09:53.000Z</time>
      </trkpt>
      <trkpt lat="43.91159" lon="3.95673">
        <ele>409.60000610352</ele>
        <time>2021-02-02T13:09:54.000Z</time>
      </trkpt>
      <trkpt lat="43.91154" lon="3.95694">
        <ele>410</ele>
        <time>2021-02-02T13:09:59.000Z</time>
      </trkpt>
      <trkpt lat="43.91154" lon="3.95699">
        <ele>410.20001220703</ele>
        <time>2021-02-02T13:10:00.000Z</time>
      </trkpt>
      <trkpt lat="43.91159" lon="3.95711">
        <ele>410</ele>
        <time>2021-02-02T13:10:03.000Z</time>
      </trkpt>
      <trkpt lat="43.91161" lon="3.95714">
        <ele>410.20001220703</ele>
        <time>2021-02-02T13:10:04.000Z</time>
      </trkpt>
      <trkpt lat="43.91164" lon="3.95719">
        <ele>410.60000610352</ele>
        <time>2021-02-02T13:10:06.000Z</time>
      </trkpt>
      <trkpt lat="43.91169" lon="3.95727">
        <ele>411.20001220703</ele>
        <time>2021-02-02T13:10:09.000Z</time>
      </trkpt>
      <trkpt lat="43.91184" lon="3.9574">
        <ele>411.60000610352</ele>
        <time>2021-02-02T13:10:15.000Z</time>
      </trkpt>
      <trkpt lat="43.912" lon="3.95747">
        <ele>411</ele>
        <time>2021-02-02T13:10:20.000Z</time>
      </trkpt>
      <trkpt lat="43.91212" lon="3.95752">
        <ele>411</ele>
        <time>2021-02-02T13:10:24.000Z</time>
      </trkpt>
      <trkpt lat="43.91231" lon="3.95759">
        <ele>410.39999389648</ele>
        <time>2021-02-02T13:10:29.000Z</time>
      </trkpt>
      <trkpt lat="43.91252" lon="3.95767">
        <ele>410.20001220703</ele>
        <time>2021-02-02T13:10:35.000Z</time>
      </trkpt>
      <trkpt lat="43.91272" lon="3.9578">
        <ele>410.20001220703</ele>
        <time>2021-02-02T13:10:41.000Z</time>
      </trkpt>
      <trkpt lat="43.91288" lon="3.95804">
        <ele>409.79998779297</ele>
        <time>2021-02-02T13:10:48.000Z</time>
      </trkpt>
      <trkpt lat="43.9129" lon="3.95806">
        <ele>409.79998779297</ele>
        <time>2021-02-02T13:10:49.000Z</time>
      </trkpt>
      <trkpt lat="43.91301" lon="3.95819">
        <ele>411</ele>
        <time>2021-02-02T13:10:55.000Z</time>
      </trkpt>
      <trkpt lat="43.91306" lon="3.95825">
        <ele>411.60000610352</ele>
        <time>2021-02-02T13:10:58.000Z</time>
      </trkpt>
      <trkpt lat="43.91309" lon="3.9583">
        <ele>412.20001220703</ele>
        <time>2021-02-02T13:11:00.000Z</time>
      </trkpt>
      <trkpt lat="43.9131" lon="3.95834">
        <ele>412.60000610352</ele>
        <time>2021-02-02T13:11:01.000Z</time>
      </trkpt>
      <trkpt lat="43.91314" lon="3.95844">
        <ele>413.60000610352</ele>
        <time>2021-02-02T13:11:05.000Z</time>
      </trkpt>
      <trkpt lat="43.91315" lon="3.95847">
        <ele>413.60000610352</ele>
        <time>2021-02-02T13:11:06.000Z</time>
      </trkpt>
      <trkpt lat="43.9132" lon="3.95872">
        <ele>414.79998779297</ele>
        <time>2021-02-02T13:11:13.000Z</time>
      </trkpt>
      <trkpt lat="43.91321" lon="3.95874">
        <ele>415</ele>
        <time>2021-02-02T13:11:14.000Z</time>
      </trkpt>
      <trkpt lat="43.91326" lon="3.95891">
        <ele>416</ele>
        <time>2021-02-02T13:11:20.000Z</time>
      </trkpt>
      <trkpt lat="43.91327" lon="3.95893">
        <ele>416.20001220703</ele>
        <time>2021-02-02T13:11:21.000Z</time>
      </trkpt>
      <trkpt lat="43.9133" lon="3.95897">
        <ele>417.20001220703</ele>
        <time>2021-02-02T13:11:23.000Z</time>
      </trkpt>
      <trkpt lat="43.91333" lon="3.959">
        <ele>418.20001220703</ele>
        <time>2021-02-02T13:11:25.000Z</time>
      </trkpt>
      <trkpt lat="43.91337" lon="3.95905">
        <ele>419.60000610352</ele>
        <time>2021-02-02T13:11:28.000Z</time>
      </trkpt>
      <trkpt lat="43.91342" lon="3.95908">
        <ele>420.79998779297</ele>
        <time>2021-02-02T13:11:31.000Z</time>
      </trkpt>
      <trkpt lat="43.91344" lon="3.95911">
        <ele>421.79998779297</ele>
        <time>2021-02-02T13:11:33.000Z</time>
      </trkpt>
      <trkpt lat="43.91346" lon="3.95914">
        <ele>422.39999389648</ele>
        <time>2021-02-02T13:11:35.000Z</time>
      </trkpt>
      <trkpt lat="43.91348" lon="3.95918">
        <ele>423</ele>
        <time>2021-02-02T13:11:37.000Z</time>
      </trkpt>
      <trkpt lat="43.9135" lon="3.95924">
        <ele>424.39999389648</ele>
        <time>2021-02-02T13:11:40.000Z</time>
      </trkpt>
      <trkpt lat="43.91353" lon="3.95929">
        <ele>425</ele>
        <time>2021-02-02T13:11:43.000Z</time>
      </trkpt>
      <trkpt lat="43.91354" lon="3.95932">
        <ele>425.39999389648</ele>
        <time>2021-02-02T13:11:45.000Z</time>
      </trkpt>
      <trkpt lat="43.91357" lon="3.95937">
        <ele>426.20001220703</ele>
        <time>2021-02-02T13:11:48.000Z</time>
      </trkpt>
      <trkpt lat="43.91359" lon="3.95938">
        <ele>426.39999389648</ele>
        <time>2021-02-02T13:11:49.000Z</time>
      </trkpt>
      <trkpt lat="43.91364" lon="3.95944">
        <ele>427.79998779297</ele>
        <time>2021-02-02T13:11:53.000Z</time>
      </trkpt>
      <trkpt lat="43.91368" lon="3.95948">
        <ele>428.60000610352</ele>
        <time>2021-02-02T13:11:55.000Z</time>
      </trkpt>
      <trkpt lat="43.9137" lon="3.9595">
        <ele>429.20001220703</ele>
        <time>2021-02-02T13:11:56.000Z</time>
      </trkpt>
      <trkpt lat="43.91374" lon="3.95956">
        <ele>430.39999389648</ele>
        <time>2021-02-02T13:11:59.000Z</time>
      </trkpt>
      <trkpt lat="43.91378" lon="3.95964">
        <ele>432</ele>
        <time>2021-02-02T13:12:02.000Z</time>
      </trkpt>
      <trkpt lat="43.91382" lon="3.95971">
        <ele>433.20001220703</ele>
        <time>2021-02-02T13:12:06.000Z</time>
      </trkpt>
      <trkpt lat="43.91383" lon="3.95974">
        <ele>433.39999389648</ele>
        <time>2021-02-02T13:12:08.000Z</time>
      </trkpt>
      <trkpt lat="43.91385" lon="3.95982">
        <ele>433.79998779297</ele>
        <time>2021-02-02T13:12:15.000Z</time>
      </trkpt>
      <trkpt lat="43.91385" lon="3.95986">
        <ele>434.20001220703</ele>
        <time>2021-02-02T13:12:19.000Z</time>
      </trkpt>
      <trkpt lat="43.91385" lon="3.95991">
        <ele>434.79998779297</ele>
        <time>2021-02-02T13:12:23.000Z</time>
      </trkpt>
      <trkpt lat="43.91385" lon="3.95992">
        <ele>434.79998779297</ele>
        <time>2021-02-02T13:12:25.000Z</time>
      </trkpt>
      <trkpt lat="43.91383" lon="3.95998">
        <ele>435.39999389648</ele>
        <time>2021-02-02T13:15:09.000Z</time>
      </trkpt>
      <trkpt lat="43.91383" lon="3.96">
        <ele>435.60000610352</ele>
        <time>2021-02-02T13:15:10.000Z</time>
      </trkpt>
      <trkpt lat="43.91381" lon="3.96012">
        <ele>436.60000610352</ele>
        <time>2021-02-02T13:15:15.000Z</time>
      </trkpt>
      <trkpt lat="43.9138" lon="3.96017">
        <ele>437.60000610352</ele>
        <time>2021-02-02T13:15:17.000Z</time>
      </trkpt>
      <trkpt lat="43.9138" lon="3.96019">
        <ele>438</ele>
        <time>2021-02-02T13:15:18.000Z</time>
      </trkpt>
      <trkpt lat="43.91379" lon="3.96032">
        <ele>439.39999389648</ele>
        <time>2021-02-02T13:15:23.000Z</time>
      </trkpt>
      <trkpt lat="43.91378" lon="3.96039">
        <ele>440.20001220703</ele>
        <time>2021-02-02T13:15:26.000Z</time>
      </trkpt>
      <trkpt lat="43.91378" lon="3.96042">
        <ele>440.60000610352</ele>
        <time>2021-02-02T13:15:27.000Z</time>
      </trkpt>
      <trkpt lat="43.91378" lon="3.96049">
        <ele>441.79998779297</ele>
        <time>2021-02-02T13:15:30.000Z</time>
      </trkpt>
      <trkpt lat="43.91378" lon="3.96058">
        <ele>443</ele>
        <time>2021-02-02T13:15:34.000Z</time>
      </trkpt>
      <trkpt lat="43.91377" lon="3.96063">
        <ele>443.60000610352</ele>
        <time>2021-02-02T13:15:36.000Z</time>
      </trkpt>
      <trkpt lat="43.91377" lon="3.96065">
        <ele>444</ele>
        <time>2021-02-02T13:15:37.000Z</time>
      </trkpt>
      <trkpt lat="43.91377" lon="3.96073">
        <ele>445.20001220703</ele>
        <time>2021-02-02T13:15:41.000Z</time>
      </trkpt>
      <trkpt lat="43.91378" lon="3.96078">
        <ele>445.79998779297</ele>
        <time>2021-02-02T13:15:44.000Z</time>
      </trkpt>
      <trkpt lat="43.91377" lon="3.96082">
        <ele>446.39999389648</ele>
        <time>2021-02-02T13:15:46.000Z</time>
      </trkpt>
      <trkpt lat="43.91378" lon="3.96087">
        <ele>447.60000610352</ele>
        <time>2021-02-02T13:15:49.000Z</time>
      </trkpt>
      <trkpt lat="43.91378" lon="3.96092">
        <ele>448</ele>
        <time>2021-02-02T13:15:52.000Z</time>
      </trkpt>
      <trkpt lat="43.91378" lon="3.96097">
        <ele>448.79998779297</ele>
        <time>2021-02-02T13:15:55.000Z</time>
      </trkpt>
      <trkpt lat="43.91377" lon="3.96103">
        <ele>450</ele>
        <time>2021-02-02T13:15:58.000Z</time>
      </trkpt>
      <trkpt lat="43.91377" lon="3.96109">
        <ele>451.20001220703</ele>
        <time>2021-02-02T13:16:02.000Z</time>
      </trkpt>
      <trkpt lat="43.91376" lon="3.96116">
        <ele>452.39999389648</ele>
        <time>2021-02-02T13:16:06.000Z</time>
      </trkpt>
      <trkpt lat="43.91376" lon="3.9612">
        <ele>453.60000610352</ele>
        <time>2021-02-02T13:16:09.000Z</time>
      </trkpt>
      <trkpt lat="43.91376" lon="3.96123">
        <ele>454</ele>
        <time>2021-02-02T13:16:11.000Z</time>
      </trkpt>
      <trkpt lat="43.91376" lon="3.9613">
        <ele>454.79998779297</ele>
        <time>2021-02-02T13:16:15.000Z</time>
      </trkpt>
      <trkpt lat="43.91377" lon="3.96134">
        <ele>455.39999389648</ele>
        <time>2021-02-02T13:16:17.000Z</time>
      </trkpt>
      <trkpt lat="43.91377" lon="3.96136">
        <ele>456</ele>
        <time>2021-02-02T13:16:18.000Z</time>
      </trkpt>
      <trkpt lat="43.91377" lon="3.9614">
        <ele>457</ele>
        <time>2021-02-02T13:16:20.000Z</time>
      </trkpt>
      <trkpt lat="43.91377" lon="3.96146">
        <ele>458.20001220703</ele>
        <time>2021-02-02T13:16:24.000Z</time>
      </trkpt>
      <trkpt lat="43.91377" lon="3.96148">
        <ele>458.39999389648</ele>
        <time>2021-02-02T13:16:25.000Z</time>
      </trkpt>
      <trkpt lat="43.91376" lon="3.96149">
        <ele>458.79998779297</ele>
        <time>2021-02-02T13:16:26.000Z</time>
      </trkpt>
      <trkpt lat="43.91376" lon="3.96152">
        <ele>459.39999389648</ele>
        <time>2021-02-02T13:16:28.000Z</time>
      </trkpt>
      <trkpt lat="43.91375" lon="3.96156">
        <ele>460</ele>
        <time>2021-02-02T13:16:31.000Z</time>
      </trkpt>
      <trkpt lat="43.91374" lon="3.96159">
        <ele>460.39999389648</ele>
        <time>2021-02-02T13:16:33.000Z</time>
      </trkpt>
      <trkpt lat="43.91373" lon="3.96166">
        <ele>461.20001220703</ele>
        <time>2021-02-02T13:16:38.000Z</time>
      </trkpt>
      <trkpt lat="43.91373" lon="3.96167">
        <ele>461.60000610352</ele>
        <time>2021-02-02T13:16:39.000Z</time>
      </trkpt>
      <trkpt lat="43.9137" lon="3.96174">
        <ele>462.79998779297</ele>
        <time>2021-02-02T13:16:45.000Z</time>
      </trkpt>
      <trkpt lat="43.9137" lon="3.96175">
        <ele>463</ele>
        <time>2021-02-02T13:16:46.000Z</time>
      </trkpt>
      <trkpt lat="43.91368" lon="3.96182">
        <ele>463.79998779297</ele>
        <time>2021-02-02T13:16:51.000Z</time>
      </trkpt>
      <trkpt lat="43.91368" lon="3.96184">
        <ele>464</ele>
        <time>2021-02-02T13:16:52.000Z</time>
      </trkpt>
      <trkpt lat="43.91368" lon="3.96189">
        <ele>464.79998779297</ele>
        <time>2021-02-02T13:16:55.000Z</time>
      </trkpt>
      <trkpt lat="43.91368" lon="3.9619">
        <ele>465.20001220703</ele>
        <time>2021-02-02T13:16:56.000Z</time>
      </trkpt>
      <trkpt lat="43.91368" lon="3.96193">
        <ele>465.39999389648</ele>
        <time>2021-02-02T13:16:58.000Z</time>
      </trkpt>
      <trkpt lat="43.91369" lon="3.96196">
        <ele>466</ele>
        <time>2021-02-02T13:17:00.000Z</time>
      </trkpt>
      <trkpt lat="43.91369" lon="3.96198">
        <ele>466.39999389648</ele>
        <time>2021-02-02T13:17:01.000Z</time>
      </trkpt>
      <trkpt lat="43.9137" lon="3.96199">
        <ele>466.79998779297</ele>
        <time>2021-02-02T13:17:02.000Z</time>
      </trkpt>
      <trkpt lat="43.91372" lon="3.96202">
        <ele>467</ele>
        <time>2021-02-02T13:17:04.000Z</time>
      </trkpt>
      <trkpt lat="43.91373" lon="3.96204">
        <ele>467.39999389648</ele>
        <time>2021-02-02T13:17:05.000Z</time>
      </trkpt>
      <trkpt lat="43.91375" lon="3.96207">
        <ele>468.20001220703</ele>
        <time>2021-02-02T13:17:07.000Z</time>
      </trkpt>
      <trkpt lat="43.91377" lon="3.96212">
        <ele>469.20001220703</ele>
        <time>2021-02-02T13:17:10.000Z</time>
      </trkpt>
      <trkpt lat="43.91378" lon="3.96214">
        <ele>469.60000610352</ele>
        <time>2021-02-02T13:17:11.000Z</time>
      </trkpt>
      <trkpt lat="43.91381" lon="3.96219">
        <ele>470.39999389648</ele>
        <time>2021-02-02T13:17:14.000Z</time>
      </trkpt>
      <trkpt lat="43.91384" lon="3.96224">
        <ele>471.39999389648</ele>
        <time>2021-02-02T13:17:17.000Z</time>
      </trkpt>
      <trkpt lat="43.91386" lon="3.96225">
        <ele>471.60000610352</ele>
        <time>2021-02-02T13:17:18.000Z</time>
      </trkpt>
      <trkpt lat="43.91391" lon="3.96235">
        <ele>472.60000610352</ele>
        <time>2021-02-02T13:17:24.000Z</time>
      </trkpt>
      <trkpt lat="43.91392" lon="3.96237">
        <ele>472.79998779297</ele>
        <time>2021-02-02T13:17:25.000Z</time>
      </trkpt>
      <trkpt lat="43.91393" lon="3.9624">
        <ele>473.39999389648</ele>
        <time>2021-02-02T13:17:29.000Z</time>
      </trkpt>
      <trkpt lat="43.91392" lon="3.96246">
        <ele>473.60000610352</ele>
        <time>2021-02-02T13:17:50.000Z</time>
      </trkpt>
      <trkpt lat="43.91384" lon="3.96264">
        <ele>474</ele>
        <time>2021-02-02T13:17:56.000Z</time>
      </trkpt>
      <trkpt lat="43.91374" lon="3.96273">
        <ele>474.60000610352</ele>
        <time>2021-02-02T13:18:01.000Z</time>
      </trkpt>
      <trkpt lat="43.91372" lon="3.96274">
        <ele>475</ele>
        <time>2021-02-02T13:18:02.000Z</time>
      </trkpt>
      <trkpt lat="43.91365" lon="3.96284">
        <ele>475.20001220703</ele>
        <time>2021-02-02T13:18:06.000Z</time>
      </trkpt>
      <trkpt lat="43.91358" lon="3.96307">
        <ele>473.60000610352</ele>
        <time>2021-02-02T13:18:12.000Z</time>
      </trkpt>
      <trkpt lat="43.91357" lon="3.96311">
        <ele>473.20001220703</ele>
        <time>2021-02-02T13:18:13.000Z</time>
      </trkpt>
      <trkpt lat="43.91351" lon="3.96323">
        <ele>472.39999389648</ele>
        <time>2021-02-02T13:18:16.000Z</time>
      </trkpt>
      <trkpt lat="43.91348" lon="3.96331">
        <ele>471.60000610352</ele>
        <time>2021-02-02T13:18:18.000Z</time>
      </trkpt>
      <trkpt lat="43.91344" lon="3.9634">
        <ele>471.20001220703</ele>
        <time>2021-02-02T13:18:20.000Z</time>
      </trkpt>
      <trkpt lat="43.91338" lon="3.96353">
        <ele>469.79998779297</ele>
        <time>2021-02-02T13:18:23.000Z</time>
      </trkpt>
      <trkpt lat="43.91337" lon="3.96357">
        <ele>469.39999389648</ele>
        <time>2021-02-02T13:18:24.000Z</time>
      </trkpt>
      <trkpt lat="43.91335" lon="3.96363">
        <ele>468.79998779297</ele>
        <time>2021-02-02T13:18:26.000Z</time>
      </trkpt>
      <trkpt lat="43.91332" lon="3.9637">
        <ele>467.79998779297</ele>
        <time>2021-02-02T13:18:29.000Z</time>
      </trkpt>
      <trkpt lat="43.9133" lon="3.96372">
        <ele>467.60000610352</ele>
        <time>2021-02-02T13:18:30.000Z</time>
      </trkpt>
      <trkpt lat="43.91326" lon="3.96373">
        <ele>467</ele>
        <time>2021-02-02T13:18:32.000Z</time>
      </trkpt>
      <trkpt lat="43.91324" lon="3.96373">
        <ele>466.39999389648</ele>
        <time>2021-02-02T13:18:34.000Z</time>
      </trkpt>
      <trkpt lat="43.91324" lon="3.96373">
        <ele>466.20001220703</ele>
        <time>2021-02-02T13:18:35.000Z</time>
      </trkpt>
      <trkpt lat="43.91336" lon="3.9636">
        <ele>467.79998779297</ele>
        <time>2021-02-02T13:19:36.000Z</time>
      </trkpt>
      <trkpt lat="43.91338" lon="3.96355">
        <ele>468.20001220703</ele>
        <time>2021-02-02T13:19:38.000Z</time>
      </trkpt>
      <trkpt lat="43.91342" lon="3.96347">
        <ele>468.79998779297</ele>
        <time>2021-02-02T13:19:42.000Z</time>
      </trkpt>
      <trkpt lat="43.91343" lon="3.96344">
        <ele>468.79998779297</ele>
        <time>2021-02-02T13:19:43.000Z</time>
      </trkpt>
      <trkpt lat="43.91348" lon="3.96331">
        <ele>469.79998779297</ele>
        <time>2021-02-02T13:19:48.000Z</time>
      </trkpt>
      <trkpt lat="43.91352" lon="3.96324">
        <ele>470.79998779297</ele>
        <time>2021-02-02T13:19:51.000Z</time>
      </trkpt>
      <trkpt lat="43.91356" lon="3.96312">
        <ele>472</ele>
        <time>2021-02-02T13:19:56.000Z</time>
      </trkpt>
      <trkpt lat="43.91358" lon="3.96307">
        <ele>472.39999389648</ele>
        <time>2021-02-02T13:19:58.000Z</time>
      </trkpt>
      <trkpt lat="43.91362" lon="3.96295">
        <ele>473</ele>
        <time>2021-02-02T13:20:03.000Z</time>
      </trkpt>
      <trkpt lat="43.91363" lon="3.96291">
        <ele>473.20001220703</ele>
        <time>2021-02-02T13:20:05.000Z</time>
      </trkpt>
      <trkpt lat="43.91364" lon="3.96288">
        <ele>473.39999389648</ele>
        <time>2021-02-02T13:20:06.000Z</time>
      </trkpt>
      <trkpt lat="43.91369" lon="3.96278">
        <ele>473.39999389648</ele>
        <time>2021-02-02T13:20:10.000Z</time>
      </trkpt>
      <trkpt lat="43.91372" lon="3.96275">
        <ele>473.60000610352</ele>
        <time>2021-02-02T13:20:12.000Z</time>
      </trkpt>
      <trkpt lat="43.91381" lon="3.96268">
        <ele>474</ele>
        <time>2021-02-02T13:20:16.000Z</time>
      </trkpt>
      <trkpt lat="43.91385" lon="3.96263">
        <ele>474.20001220703</ele>
        <time>2021-02-02T13:20:18.000Z</time>
      </trkpt>
      <trkpt lat="43.91391" lon="3.96249">
        <ele>474</ele>
        <time>2021-02-02T13:20:22.000Z</time>
      </trkpt>
      <trkpt lat="43.91399" lon="3.96245">
        <ele>473.60000610352</ele>
        <time>2021-02-02T13:20:26.000Z</time>
      </trkpt>
      <trkpt lat="43.91409" lon="3.96238">
        <ele>473.39999389648</ele>
        <time>2021-02-02T13:20:31.000Z</time>
      </trkpt>
      <trkpt lat="43.9142" lon="3.96223">
        <ele>473.20001220703</ele>
        <time>2021-02-02T13:20:37.000Z</time>
      </trkpt>
      <trkpt lat="43.91421" lon="3.96222">
        <ele>473.20001220703</ele>
        <time>2021-02-02T13:20:38.000Z</time>
      </trkpt>
      <trkpt lat="43.91432" lon="3.96211">
        <ele>471.79998779297</ele>
        <time>2021-02-02T13:20:45.000Z</time>
      </trkpt>
      <trkpt lat="43.91433" lon="3.9621">
        <ele>471.60000610352</ele>
        <time>2021-02-02T13:20:46.000Z</time>
      </trkpt>
      <trkpt lat="43.91433" lon="3.9621">
        <ele>471</ele>
        <time>2021-02-02T13:20:48.000Z</time>
      </trkpt>
      <trkpt lat="43.91432" lon="3.96209">
        <ele>470.39999389648</ele>
        <time>2021-02-02T14:05:18.000Z</time>
      </trkpt>
      <trkpt lat="43.91432" lon="3.96209">
        <ele>470.39999389648</ele>
        <time>2021-02-02T14:05:19.000Z</time>
      </trkpt>
      <trkpt lat="43.91432" lon="3.96209">
        <ele>470.39999389648</ele>
        <time>2021-02-02T14:06:40.000Z</time>
      </trkpt>
      <trkpt lat="43.91432" lon="3.96209">
        <ele>470.60000610352</ele>
        <time>2021-02-02T14:06:41.000Z</time>
      </trkpt>
      <trkpt lat="43.91436" lon="3.96209">
        <ele>470</ele>
        <time>2021-02-02T14:11:25.000Z</time>
      </trkpt>
      <trkpt lat="43.91446" lon="3.96204">
        <ele>469.20001220703</ele>
        <time>2021-02-02T14:11:28.000Z</time>
      </trkpt>
      <trkpt lat="43.9145" lon="3.96202">
        <ele>468.60000610352</ele>
        <time>2021-02-02T14:11:29.000Z</time>
      </trkpt>
      <trkpt lat="43.91463" lon="3.96196">
        <ele>467</ele>
        <time>2021-02-02T14:11:31.000Z</time>
      </trkpt>
      <trkpt lat="43.9147" lon="3.96193">
        <ele>465.79998779297</ele>
        <time>2021-02-02T14:11:32.000Z</time>
      </trkpt>
      <trkpt lat="43.91478" lon="3.96193">
        <ele>465.20001220703</ele>
        <time>2021-02-02T14:11:33.000Z</time>
      </trkpt>
      <trkpt lat="43.91492" lon="3.96192">
        <ele>464</ele>
        <time>2021-02-02T14:11:35.000Z</time>
      </trkpt>
      <trkpt lat="43.91498" lon="3.96188">
        <ele>462.39999389648</ele>
        <time>2021-02-02T14:11:36.000Z</time>
      </trkpt>
      <trkpt lat="43.9151" lon="3.96178">
        <ele>461.20001220703</ele>
        <time>2021-02-02T14:11:38.000Z</time>
      </trkpt>
      <trkpt lat="43.9152" lon="3.96166">
        <ele>459.39999389648</ele>
        <time>2021-02-02T14:11:40.000Z</time>
      </trkpt>
      <trkpt lat="43.91524" lon="3.96159">
        <ele>458.39999389648</ele>
        <time>2021-02-02T14:11:41.000Z</time>
      </trkpt>
      <trkpt lat="43.91528" lon="3.96151">
        <ele>456.60000610352</ele>
        <time>2021-02-02T14:11:42.000Z</time>
      </trkpt>
      <trkpt lat="43.91535" lon="3.96133">
        <ele>455.20001220703</ele>
        <time>2021-02-02T14:11:44.000Z</time>
      </trkpt>
      <trkpt lat="43.91536" lon="3.96118">
        <ele>453.39999389648</ele>
        <time>2021-02-02T14:11:46.000Z</time>
      </trkpt>
      <trkpt lat="43.91538" lon="3.96112">
        <ele>451.79998779297</ele>
        <time>2021-02-02T14:11:47.000Z</time>
      </trkpt>
      <trkpt lat="43.91542" lon="3.9611">
        <ele>450.79998779297</ele>
        <time>2021-02-02T14:11:48.000Z</time>
      </trkpt>
      <trkpt lat="43.91547" lon="3.9611">
        <ele>449.79998779297</ele>
        <time>2021-02-02T14:11:49.000Z</time>
      </trkpt>
      <trkpt lat="43.91552" lon="3.96109">
        <ele>448.79998779297</ele>
        <time>2021-02-02T14:11:50.000Z</time>
      </trkpt>
      <trkpt lat="43.91558" lon="3.96106">
        <ele>447.60000610352</ele>
        <time>2021-02-02T14:11:51.000Z</time>
      </trkpt>
      <trkpt lat="43.91563" lon="3.96101">
        <ele>446.20001220703</ele>
        <time>2021-02-02T14:11:52.000Z</time>
      </trkpt>
      <trkpt lat="43.91577" lon="3.96097">
        <ele>443.39999389648</ele>
        <time>2021-02-02T14:11:54.000Z</time>
      </trkpt>
      <trkpt lat="43.91583" lon="3.961">
        <ele>441.20001220703</ele>
        <time>2021-02-02T14:11:55.000Z</time>
      </trkpt>
      <trkpt lat="43.91589" lon="3.96106">
        <ele>440.20001220703</ele>
        <time>2021-02-02T14:11:56.000Z</time>
      </trkpt>
      <trkpt lat="43.91595" lon="3.96112">
        <ele>439.20001220703</ele>
        <time>2021-02-02T14:11:57.000Z</time>
      </trkpt>
      <trkpt lat="43.91601" lon="3.96119">
        <ele>438.79998779297</ele>
        <time>2021-02-02T14:11:58.000Z</time>
      </trkpt>
      <trkpt lat="43.91607" lon="3.96129">
        <ele>437.60000610352</ele>
        <time>2021-02-02T14:11:59.000Z</time>
      </trkpt>
      <trkpt lat="43.91611" lon="3.9614">
        <ele>436.60000610352</ele>
        <time>2021-02-02T14:12:00.000Z</time>
      </trkpt>
      <trkpt lat="43.91623" lon="3.96175">
        <ele>435.39999389648</ele>
        <time>2021-02-02T14:12:03.000Z</time>
      </trkpt>
      <trkpt lat="43.91627" lon="3.96185">
        <ele>434</ele>
        <time>2021-02-02T14:12:04.000Z</time>
      </trkpt>
      <trkpt lat="43.91631" lon="3.96195">
        <ele>432.60000610352</ele>
        <time>2021-02-02T14:12:05.000Z</time>
      </trkpt>
      <trkpt lat="43.91636" lon="3.96205">
        <ele>431.60000610352</ele>
        <time>2021-02-02T14:12:06.000Z</time>
      </trkpt>
      <trkpt lat="43.91642" lon="3.96216">
        <ele>429.20001220703</ele>
        <time>2021-02-02T14:12:07.000Z</time>
      </trkpt>
      <trkpt lat="43.91651" lon="3.96224">
        <ele>425.39999389648</ele>
        <time>2021-02-02T14:12:08.000Z</time>
      </trkpt>
      <trkpt lat="43.91662" lon="3.96231">
        <ele>423.39999389648</ele>
        <time>2021-02-02T14:12:09.000Z</time>
      </trkpt>
      <trkpt lat="43.91674" lon="3.96236">
        <ele>422.20001220703</ele>
        <time>2021-02-02T14:12:10.000Z</time>
      </trkpt>
      <trkpt lat="43.91686" lon="3.96239">
        <ele>420.60000610352</ele>
        <time>2021-02-02T14:12:11.000Z</time>
      </trkpt>
      <trkpt lat="43.91699" lon="3.96238">
        <ele>419</ele>
        <time>2021-02-02T14:12:12.000Z</time>
      </trkpt>
      <trkpt lat="43.91711" lon="3.96236">
        <ele>417.60000610352</ele>
        <time>2021-02-02T14:12:13.000Z</time>
      </trkpt>
      <trkpt lat="43.91722" lon="3.96235">
        <ele>416</ele>
        <time>2021-02-02T14:12:14.000Z</time>
      </trkpt>
      <trkpt lat="43.91732" lon="3.96231">
        <ele>414.60000610352</ele>
        <time>2021-02-02T14:12:15.000Z</time>
      </trkpt>
      <trkpt lat="43.91741" lon="3.96226">
        <ele>412.39999389648</ele>
        <time>2021-02-02T14:12:16.000Z</time>
      </trkpt>
      <trkpt lat="43.91749" lon="3.96222">
        <ele>410.39999389648</ele>
        <time>2021-02-02T14:12:17.000Z</time>
      </trkpt>
      <trkpt lat="43.91757" lon="3.96218">
        <ele>408.60000610352</ele>
        <time>2021-02-02T14:12:18.000Z</time>
      </trkpt>
      <trkpt lat="43.91766" lon="3.96213">
        <ele>406.79998779297</ele>
        <time>2021-02-02T14:12:19.000Z</time>
      </trkpt>
      <trkpt lat="43.91775" lon="3.9621">
        <ele>404.39999389648</ele>
        <time>2021-02-02T14:12:20.000Z</time>
      </trkpt>
      <trkpt lat="43.91785" lon="3.96209">
        <ele>402.79998779297</ele>
        <time>2021-02-02T14:12:21.000Z</time>
      </trkpt>
      <trkpt lat="43.91795" lon="3.96211">
        <ele>401</ele>
        <time>2021-02-02T14:12:22.000Z</time>
      </trkpt>
      <trkpt lat="43.91804" lon="3.96214">
        <ele>399.39999389648</ele>
        <time>2021-02-02T14:12:23.000Z</time>
      </trkpt>
      <trkpt lat="43.91813" lon="3.96219">
        <ele>397.20001220703</ele>
        <time>2021-02-02T14:12:24.000Z</time>
      </trkpt>
      <trkpt lat="43.91822" lon="3.96223">
        <ele>396.20001220703</ele>
        <time>2021-02-02T14:12:25.000Z</time>
      </trkpt>
      <trkpt lat="43.91839" lon="3.96221">
        <ele>395.79998779297</ele>
        <time>2021-02-02T14:12:27.000Z</time>
      </trkpt>
      <trkpt lat="43.91874" lon="3.96206">
        <ele>394.39999389648</ele>
        <time>2021-02-02T14:12:31.000Z</time>
      </trkpt>
      <trkpt lat="43.91884" lon="3.96206">
        <ele>391.39999389648</ele>
        <time>2021-02-02T14:12:32.000Z</time>
      </trkpt>
      <trkpt lat="43.91894" lon="3.96206">
        <ele>387</ele>
        <time>2021-02-02T14:12:33.000Z</time>
      </trkpt>
      <trkpt lat="43.91904" lon="3.96203">
        <ele>385.20001220703</ele>
        <time>2021-02-02T14:12:34.000Z</time>
      </trkpt>
      <trkpt lat="43.91913" lon="3.96199">
        <ele>382.60000610352</ele>
        <time>2021-02-02T14:12:35.000Z</time>
      </trkpt>
      <trkpt lat="43.91921" lon="3.96195">
        <ele>380.39999389648</ele>
        <time>2021-02-02T14:12:36.000Z</time>
      </trkpt>
      <trkpt lat="43.91929" lon="3.96194">
        <ele>378.60000610352</ele>
        <time>2021-02-02T14:12:37.000Z</time>
      </trkpt>
      <trkpt lat="43.91946" lon="3.962">
        <ele>377</ele>
        <time>2021-02-02T14:12:39.000Z</time>
      </trkpt>
      <trkpt lat="43.91955" lon="3.96204">
        <ele>376.39999389648</ele>
        <time>2021-02-02T14:12:40.000Z</time>
      </trkpt>
      <trkpt lat="43.91963" lon="3.96206">
        <ele>374.39999389648</ele>
        <time>2021-02-02T14:12:41.000Z</time>
      </trkpt>
      <trkpt lat="43.91971" lon="3.96207">
        <ele>372.79998779297</ele>
        <time>2021-02-02T14:12:42.000Z</time>
      </trkpt>
      <trkpt lat="43.91978" lon="3.96207">
        <ele>370.60000610352</ele>
        <time>2021-02-02T14:12:43.000Z</time>
      </trkpt>
      <trkpt lat="43.91984" lon="3.96209">
        <ele>368.60000610352</ele>
        <time>2021-02-02T14:12:44.000Z</time>
      </trkpt>
      <trkpt lat="43.91989" lon="3.96213">
        <ele>367</ele>
        <time>2021-02-02T14:12:45.000Z</time>
      </trkpt>
      <trkpt lat="43.91993" lon="3.96221">
        <ele>365</ele>
        <time>2021-02-02T14:12:46.000Z</time>
      </trkpt>
      <trkpt lat="43.92002" lon="3.96236">
        <ele>363.20001220703</ele>
        <time>2021-02-02T14:12:48.000Z</time>
      </trkpt>
      <trkpt lat="43.92009" lon="3.96242">
        <ele>361.20001220703</ele>
        <time>2021-02-02T14:12:49.000Z</time>
      </trkpt>
      <trkpt lat="43.92015" lon="3.9625">
        <ele>360.20001220703</ele>
        <time>2021-02-02T14:12:50.000Z</time>
      </trkpt>
      <trkpt lat="43.9202" lon="3.96259">
        <ele>357.60000610352</ele>
        <time>2021-02-02T14:12:51.000Z</time>
      </trkpt>
      <trkpt lat="43.92025" lon="3.96268">
        <ele>356</ele>
        <time>2021-02-02T14:12:52.000Z</time>
      </trkpt>
      <trkpt lat="43.92031" lon="3.96274">
        <ele>354.79998779297</ele>
        <time>2021-02-02T14:12:53.000Z</time>
      </trkpt>
      <trkpt lat="43.92037" lon="3.96279">
        <ele>354.39999389648</ele>
        <time>2021-02-02T14:12:54.000Z</time>
      </trkpt>
      <trkpt lat="43.92044" lon="3.96283">
        <ele>354.20001220703</ele>
        <time>2021-02-02T14:12:55.000Z</time>
      </trkpt>
      <trkpt lat="43.92059" lon="3.96287">
        <ele>354.79998779297</ele>
        <time>2021-02-02T14:12:58.000Z</time>
      </trkpt>
      <trkpt lat="43.92071" lon="3.96282">
        <ele>355.79998779297</ele>
        <time>2021-02-02T14:13:01.000Z</time>
      </trkpt>
      <trkpt lat="43.92078" lon="3.96279">
        <ele>355.79998779297</ele>
        <time>2021-02-02T14:13:03.000Z</time>
      </trkpt>
      <trkpt lat="43.92094" lon="3.96275">
        <ele>356.20001220703</ele>
        <time>2021-02-02T14:13:07.000Z</time>
      </trkpt>
      <trkpt lat="43.92098" lon="3.96274">
        <ele>357.20001220703</ele>
        <time>2021-02-02T14:13:08.000Z</time>
      </trkpt>
      <trkpt lat="43.92101" lon="3.96273">
        <ele>357.60000610352</ele>
        <time>2021-02-02T14:13:09.000Z</time>
      </trkpt>
      <trkpt lat="43.92115" lon="3.96267">
        <ele>357.39999389648</ele>
        <time>2021-02-02T14:13:13.000Z</time>
      </trkpt>
      <trkpt lat="43.92128" lon="3.96256">
        <ele>357</ele>
        <time>2021-02-02T14:13:17.000Z</time>
      </trkpt>
      <trkpt lat="43.92146" lon="3.96239">
        <ele>358.79998779297</ele>
        <time>2021-02-02T14:13:22.000Z</time>
      </trkpt>
      <trkpt lat="43.92155" lon="3.96233">
        <ele>359.79998779297</ele>
        <time>2021-02-02T14:13:25.000Z</time>
      </trkpt>
      <trkpt lat="43.9216" lon="3.96228">
        <ele>359.60000610352</ele>
        <time>2021-02-02T14:13:27.000Z</time>
      </trkpt>
      <trkpt lat="43.92172" lon="3.96211">
        <ele>359</ele>
        <time>2021-02-02T14:13:32.000Z</time>
      </trkpt>
      <trkpt lat="43.92174" lon="3.96207">
        <ele>358.79998779297</ele>
        <time>2021-02-02T14:13:33.000Z</time>
      </trkpt>
      <trkpt lat="43.92183" lon="3.962">
        <ele>358.79998779297</ele>
        <time>2021-02-02T14:13:36.000Z</time>
      </trkpt>
      <trkpt lat="43.92202" lon="3.96191">
        <ele>360.39999389648</ele>
        <time>2021-02-02T14:13:43.000Z</time>
      </trkpt>
      <trkpt lat="43.92216" lon="3.96184">
        <ele>361.20001220703</ele>
        <time>2021-02-02T14:13:49.000Z</time>
      </trkpt>
      <trkpt lat="43.9222" lon="3.96183">
        <ele>361.39999389648</ele>
        <time>2021-02-02T14:13:51.000Z</time>
      </trkpt>
      <trkpt lat="43.92224" lon="3.96182">
        <ele>361.60000610352</ele>
        <time>2021-02-02T14:13:54.000Z</time>
      </trkpt>
      <trkpt lat="43.92225" lon="3.96181">
        <ele>361.79998779297</ele>
        <time>2021-02-02T14:13:56.000Z</time>
      </trkpt>
      <trkpt lat="43.92229" lon="3.96177">
        <ele>362.60000610352</ele>
        <time>2021-02-02T14:16:04.000Z</time>
      </trkpt>
      <trkpt lat="43.92233" lon="3.96173">
        <ele>362.60000610352</ele>
        <time>2021-02-02T14:16:06.000Z</time>
      </trkpt>
      <trkpt lat="43.92247" lon="3.96164">
        <ele>362.79998779297</ele>
        <time>2021-02-02T14:16:10.000Z</time>
      </trkpt>
      <trkpt lat="43.92252" lon="3.96162">
        <ele>362.20001220703</ele>
        <time>2021-02-02T14:16:11.000Z</time>
      </trkpt>
      <trkpt lat="43.92258" lon="3.9616">
        <ele>361.20001220703</ele>
        <time>2021-02-02T14:16:12.000Z</time>
      </trkpt>
      <trkpt lat="43.92265" lon="3.9616">
        <ele>359</ele>
        <time>2021-02-02T14:16:13.000Z</time>
      </trkpt>
      <trkpt lat="43.92272" lon="3.9616">
        <ele>357.39999389648</ele>
        <time>2021-02-02T14:16:14.000Z</time>
      </trkpt>
      <trkpt lat="43.92286" lon="3.96161">
        <ele>355.60000610352</ele>
        <time>2021-02-02T14:16:16.000Z</time>
      </trkpt>
      <trkpt lat="43.92299" lon="3.96168">
        <ele>354.20001220703</ele>
        <time>2021-02-02T14:16:18.000Z</time>
      </trkpt>
      <trkpt lat="43.92324" lon="3.96173">
        <ele>352</ele>
        <time>2021-02-02T14:16:21.000Z</time>
      </trkpt>
      <trkpt lat="43.92332" lon="3.96173">
        <ele>350</ele>
        <time>2021-02-02T14:16:22.000Z</time>
      </trkpt>
      <trkpt lat="43.92341" lon="3.96173">
        <ele>348.20001220703</ele>
        <time>2021-02-02T14:16:23.000Z</time>
      </trkpt>
      <trkpt lat="43.9235" lon="3.96173">
        <ele>346.39999389648</ele>
        <time>2021-02-02T14:16:24.000Z</time>
      </trkpt>
      <trkpt lat="43.92358" lon="3.96173">
        <ele>344.20001220703</ele>
        <time>2021-02-02T14:16:25.000Z</time>
      </trkpt>
      <trkpt lat="43.92367" lon="3.96172">
        <ele>342.60000610352</ele>
        <time>2021-02-02T14:16:26.000Z</time>
      </trkpt>
      <trkpt lat="43.92375" lon="3.96169">
        <ele>339.79998779297</ele>
        <time>2021-02-02T14:16:27.000Z</time>
      </trkpt>
      <trkpt lat="43.92383" lon="3.96167">
        <ele>337.60000610352</ele>
        <time>2021-02-02T14:16:28.000Z</time>
      </trkpt>
      <trkpt lat="43.92392" lon="3.96165">
        <ele>336.39999389648</ele>
        <time>2021-02-02T14:16:29.000Z</time>
      </trkpt>
      <trkpt lat="43.9241" lon="3.96164">
        <ele>334.60000610352</ele>
        <time>2021-02-02T14:16:31.000Z</time>
      </trkpt>
      <trkpt lat="43.92419" lon="3.96164">
        <ele>333.20001220703</ele>
        <time>2021-02-02T14:16:32.000Z</time>
      </trkpt>
      <trkpt lat="43.92429" lon="3.96163">
        <ele>332</ele>
        <time>2021-02-02T14:16:33.000Z</time>
      </trkpt>
      <trkpt lat="43.92439" lon="3.96162">
        <ele>331</ele>
        <time>2021-02-02T14:16:34.000Z</time>
      </trkpt>
      <trkpt lat="43.92449" lon="3.9616">
        <ele>330</ele>
        <time>2021-02-02T14:16:35.000Z</time>
      </trkpt>
      <trkpt lat="43.92459" lon="3.96158">
        <ele>328.60000610352</ele>
        <time>2021-02-02T14:16:36.000Z</time>
      </trkpt>
      <trkpt lat="43.92468" lon="3.96157">
        <ele>326.79998779297</ele>
        <time>2021-02-02T14:16:37.000Z</time>
      </trkpt>
      <trkpt lat="43.92477" lon="3.96158">
        <ele>325.39999389648</ele>
        <time>2021-02-02T14:16:38.000Z</time>
      </trkpt>
      <trkpt lat="43.92487" lon="3.9616">
        <ele>324.20001220703</ele>
        <time>2021-02-02T14:16:39.000Z</time>
      </trkpt>
      <trkpt lat="43.92496" lon="3.96163">
        <ele>322.39999389648</ele>
        <time>2021-02-02T14:16:40.000Z</time>
      </trkpt>
      <trkpt lat="43.92504" lon="3.96166">
        <ele>320.20001220703</ele>
        <time>2021-02-02T14:16:41.000Z</time>
      </trkpt>
      <trkpt lat="43.92514" lon="3.96168">
        <ele>319</ele>
        <time>2021-02-02T14:16:42.000Z</time>
      </trkpt>
      <trkpt lat="43.92524" lon="3.96169">
        <ele>316.79998779297</ele>
        <time>2021-02-02T14:16:43.000Z</time>
      </trkpt>
      <trkpt lat="43.92533" lon="3.9617">
        <ele>314.60000610352</ele>
        <time>2021-02-02T14:16:44.000Z</time>
      </trkpt>
      <trkpt lat="43.92544" lon="3.96172">
        <ele>312.79998779297</ele>
        <time>2021-02-02T14:16:45.000Z</time>
      </trkpt>
      <trkpt lat="43.92554" lon="3.96172">
        <ele>311.60000610352</ele>
        <time>2021-02-02T14:16:46.000Z</time>
      </trkpt>
      <trkpt lat="43.92565" lon="3.96172">
        <ele>311</ele>
        <time>2021-02-02T14:16:47.000Z</time>
      </trkpt>
      <trkpt lat="43.92576" lon="3.96173">
        <ele>309.39999389648</ele>
        <time>2021-02-02T14:16:48.000Z</time>
      </trkpt>
      <trkpt lat="43.92586" lon="3.96174">
        <ele>305.79998779297</ele>
        <time>2021-02-02T14:16:49.000Z</time>
      </trkpt>
      <trkpt lat="43.92595" lon="3.96172">
        <ele>303.79998779297</ele>
        <time>2021-02-02T14:16:50.000Z</time>
      </trkpt>
      <trkpt lat="43.92605" lon="3.96171">
        <ele>301.79998779297</ele>
        <time>2021-02-02T14:16:51.000Z</time>
      </trkpt>
      <trkpt lat="43.92613" lon="3.96171">
        <ele>300.60000610352</ele>
        <time>2021-02-02T14:16:52.000Z</time>
      </trkpt>
      <trkpt lat="43.92622" lon="3.96171">
        <ele>300</ele>
        <time>2021-02-02T14:16:53.000Z</time>
      </trkpt>
      <trkpt lat="43.9263" lon="3.9617">
        <ele>299.39999389648</ele>
        <time>2021-02-02T14:16:54.000Z</time>
      </trkpt>
      <trkpt lat="43.92637" lon="3.9617">
        <ele>297.79998779297</ele>
        <time>2021-02-02T14:16:55.000Z</time>
      </trkpt>
      <trkpt lat="43.92642" lon="3.96172">
        <ele>296.20001220703</ele>
        <time>2021-02-02T14:16:56.000Z</time>
      </trkpt>
      <trkpt lat="43.92647" lon="3.96176">
        <ele>294.39999389648</ele>
        <time>2021-02-02T14:16:57.000Z</time>
      </trkpt>
      <trkpt lat="43.92659" lon="3.96182">
        <ele>292</ele>
        <time>2021-02-02T14:16:59.000Z</time>
      </trkpt>
      <trkpt lat="43.92665" lon="3.96181">
        <ele>290</ele>
        <time>2021-02-02T14:17:00.000Z</time>
      </trkpt>
      <trkpt lat="43.92671" lon="3.96177">
        <ele>288.39999389648</ele>
        <time>2021-02-02T14:17:01.000Z</time>
      </trkpt>
      <trkpt lat="43.92678" lon="3.96172">
        <ele>287</ele>
        <time>2021-02-02T14:17:02.000Z</time>
      </trkpt>
      <trkpt lat="43.92686" lon="3.96168">
        <ele>286.39999389648</ele>
        <time>2021-02-02T14:17:03.000Z</time>
      </trkpt>
      <trkpt lat="43.92694" lon="3.96165">
        <ele>285.60000610352</ele>
        <time>2021-02-02T14:17:04.000Z</time>
      </trkpt>
      <trkpt lat="43.92702" lon="3.96163">
        <ele>283.60000610352</ele>
        <time>2021-02-02T14:17:05.000Z</time>
      </trkpt>
      <trkpt lat="43.92711" lon="3.96161">
        <ele>282.20001220703</ele>
        <time>2021-02-02T14:17:06.000Z</time>
      </trkpt>
      <trkpt lat="43.92719" lon="3.96158">
        <ele>280.79998779297</ele>
        <time>2021-02-02T14:17:07.000Z</time>
      </trkpt>
      <trkpt lat="43.92728" lon="3.96154">
        <ele>279.39999389648</ele>
        <time>2021-02-02T14:17:08.000Z</time>
      </trkpt>
      <trkpt lat="43.92736" lon="3.9615">
        <ele>276.60000610352</ele>
        <time>2021-02-02T14:17:09.000Z</time>
      </trkpt>
      <trkpt lat="43.92745" lon="3.96146">
        <ele>275</ele>
        <time>2021-02-02T14:17:10.000Z</time>
      </trkpt>
      <trkpt lat="43.92752" lon="3.96141">
        <ele>272.60000610352</ele>
        <time>2021-02-02T14:17:11.000Z</time>
      </trkpt>
      <trkpt lat="43.92759" lon="3.96137">
        <ele>270.20001220703</ele>
        <time>2021-02-02T14:17:12.000Z</time>
      </trkpt>
      <trkpt lat="43.92766" lon="3.96131">
        <ele>267.79998779297</ele>
        <time>2021-02-02T14:17:13.000Z</time>
      </trkpt>
      <trkpt lat="43.92772" lon="3.96123">
        <ele>266.20001220703</ele>
        <time>2021-02-02T14:17:14.000Z</time>
      </trkpt>
      <trkpt lat="43.92777" lon="3.96114">
        <ele>264.60000610352</ele>
        <time>2021-02-02T14:17:15.000Z</time>
      </trkpt>
      <trkpt lat="43.92781" lon="3.96105">
        <ele>263.39999389648</ele>
        <time>2021-02-02T14:17:16.000Z</time>
      </trkpt>
      <trkpt lat="43.92789" lon="3.96087">
        <ele>261.60000610352</ele>
        <time>2021-02-02T14:17:18.000Z</time>
      </trkpt>
      <trkpt lat="43.92791" lon="3.9608">
        <ele>260.20001220703</ele>
        <time>2021-02-02T14:17:19.000Z</time>
      </trkpt>
      <trkpt lat="43.92793" lon="3.96074">
        <ele>257.79998779297</ele>
        <time>2021-02-02T14:17:20.000Z</time>
      </trkpt>
      <trkpt lat="43.92794" lon="3.96069">
        <ele>256.39999389648</ele>
        <time>2021-02-02T14:17:21.000Z</time>
      </trkpt>
      <trkpt lat="43.92795" lon="3.96062">
        <ele>254.60000610352</ele>
        <time>2021-02-02T14:17:23.000Z</time>
      </trkpt>
      <trkpt lat="43.92798" lon="3.96057">
        <ele>253.60000610352</ele>
        <time>2021-02-02T14:17:25.000Z</time>
      </trkpt>
      <trkpt lat="43.928" lon="3.96052">
        <ele>252.39999389648</ele>
        <time>2021-02-02T14:17:27.000Z</time>
      </trkpt>
      <trkpt lat="43.92801" lon="3.96048">
        <ele>251.60000610352</ele>
        <time>2021-02-02T14:17:29.000Z</time>
      </trkpt>
      <trkpt lat="43.928" lon="3.96048">
        <ele>251.39999389648</ele>
        <time>2021-02-02T14:17:31.000Z</time>
      </trkpt>
      <trkpt lat="43.92799" lon="3.96042">
        <ele>250</ele>
        <time>2021-02-02T14:31:10.000Z</time>
      </trkpt>
      <trkpt lat="43.92799" lon="3.96042">
        <ele>250.19999694824</ele>
        <time>2021-02-02T14:31:11.000Z</time>
      </trkpt>
      <trkpt lat="43.928" lon="3.96036">
        <ele>250.19999694824</ele>
        <time>2021-02-02T14:31:20.000Z</time>
      </trkpt>
      <trkpt lat="43.928" lon="3.96033">
        <ele>250.19999694824</ele>
        <time>2021-02-02T14:31:21.000Z</time>
      </trkpt>
      <trkpt lat="43.92797" lon="3.96011">
        <ele>249</ele>
        <time>2021-02-02T14:31:26.000Z</time>
      </trkpt>
      <trkpt lat="43.92797" lon="3.96005">
        <ele>248.60000610352</ele>
        <time>2021-02-02T14:31:27.000Z</time>
      </trkpt>
      <trkpt lat="43.92802" lon="3.95993">
        <ele>248</ele>
        <time>2021-02-02T14:31:29.000Z</time>
      </trkpt>
      <trkpt lat="43.92806" lon="3.95989">
        <ele>247.80000305176</ele>
        <time>2021-02-02T14:31:30.000Z</time>
      </trkpt>
      <trkpt lat="43.92815" lon="3.95988">
        <ele>247.19999694824</ele>
        <time>2021-02-02T14:31:32.000Z</time>
      </trkpt>
      <trkpt lat="43.92824" lon="3.95985">
        <ele>246.80000305176</ele>
        <time>2021-02-02T14:31:34.000Z</time>
      </trkpt>
      <trkpt lat="43.92829" lon="3.95984">
        <ele>246.60000610352</ele>
        <time>2021-02-02T14:31:35.000Z</time>
      </trkpt>
      <trkpt lat="43.92834" lon="3.95983">
        <ele>246</ele>
        <time>2021-02-02T14:31:36.000Z</time>
      </trkpt>
      <trkpt lat="43.92837" lon="3.95984">
        <ele>245.39999389648</ele>
        <time>2021-02-02T14:31:37.000Z</time>
      </trkpt>
      <trkpt lat="43.92842" lon="3.95989">
        <ele>244.39999389648</ele>
        <time>2021-02-02T14:31:39.000Z</time>
      </trkpt>
      <trkpt lat="43.92845" lon="3.95991">
        <ele>243.60000610352</ele>
        <time>2021-02-02T14:31:40.000Z</time>
      </trkpt>
      <trkpt lat="43.9285" lon="3.95992">
        <ele>242.80000305176</ele>
        <time>2021-02-02T14:31:41.000Z</time>
      </trkpt>
      <trkpt lat="43.92855" lon="3.95995">
        <ele>242</ele>
        <time>2021-02-02T14:31:42.000Z</time>
      </trkpt>
      <trkpt lat="43.92884" lon="3.96012">
        <ele>241.19999694824</ele>
        <time>2021-02-02T14:31:48.000Z</time>
      </trkpt>
      <trkpt lat="43.9289" lon="3.96015">
        <ele>240.80000305176</ele>
        <time>2021-02-02T14:31:49.000Z</time>
      </trkpt>
      <trkpt lat="43.92903" lon="3.96023">
        <ele>240.60000610352</ele>
        <time>2021-02-02T14:31:52.000Z</time>
      </trkpt>
      <trkpt lat="43.92907" lon="3.96027">
        <ele>239.80000305176</ele>
        <time>2021-02-02T14:31:53.000Z</time>
      </trkpt>
      <trkpt lat="43.92911" lon="3.9603">
        <ele>239.19999694824</ele>
        <time>2021-02-02T14:31:54.000Z</time>
      </trkpt>
      <trkpt lat="43.92921" lon="3.96034">
        <ele>238.60000610352</ele>
        <time>2021-02-02T14:31:57.000Z</time>
      </trkpt>
      <trkpt lat="43.92938" lon="3.96032">
        <ele>238.60000610352</ele>
        <time>2021-02-02T14:32:02.000Z</time>
      </trkpt>
      <trkpt lat="43.92946" lon="3.96028">
        <ele>238.39999389648</ele>
        <time>2021-02-02T14:32:04.000Z</time>
      </trkpt>
      <trkpt lat="43.92955" lon="3.96022">
        <ele>238.80000305176</ele>
        <time>2021-02-02T14:32:07.000Z</time>
      </trkpt>
      <trkpt lat="43.92966" lon="3.96018">
        <ele>239.80000305176</ele>
        <time>2021-02-02T14:32:11.000Z</time>
      </trkpt>
      <trkpt lat="43.92971" lon="3.96012">
        <ele>240.39999389648</ele>
        <time>2021-02-02T14:32:13.000Z</time>
      </trkpt>
      <trkpt lat="43.92977" lon="3.96004">
        <ele>241</ele>
        <time>2021-02-02T14:32:16.000Z</time>
      </trkpt>
      <trkpt lat="43.9298" lon="3.96">
        <ele>241.80000305176</ele>
        <time>2021-02-02T14:32:18.000Z</time>
      </trkpt>
      <trkpt lat="43.92986" lon="3.9599">
        <ele>242.80000305176</ele>
        <time>2021-02-02T14:32:21.000Z</time>
      </trkpt>
      <trkpt lat="43.92988" lon="3.95986">
        <ele>243</ele>
        <time>2021-02-02T14:32:22.000Z</time>
      </trkpt>
      <trkpt lat="43.9299" lon="3.95975">
        <ele>244</ele>
        <time>2021-02-02T14:32:25.000Z</time>
      </trkpt>
      <trkpt lat="43.92991" lon="3.95971">
        <ele>244.39999389648</ele>
        <time>2021-02-02T14:32:26.000Z</time>
      </trkpt>
      <trkpt lat="43.92992" lon="3.95957">
        <ele>244.60000610352</ele>
        <time>2021-02-02T14:32:30.000Z</time>
      </trkpt>
      <trkpt lat="43.92992" lon="3.95947">
        <ele>245.60000610352</ele>
        <time>2021-02-02T14:32:33.000Z</time>
      </trkpt>
      <trkpt lat="43.92991" lon="3.95941">
        <ele>246</ele>
        <time>2021-02-02T14:32:35.000Z</time>
      </trkpt>
      <trkpt lat="43.92988" lon="3.95926">
        <ele>245.80000305176</ele>
        <time>2021-02-02T14:32:39.000Z</time>
      </trkpt>
      <trkpt lat="43.92984" lon="3.95916">
        <ele>246.60000610352</ele>
        <time>2021-02-02T14:32:42.000Z</time>
      </trkpt>
      <trkpt lat="43.9298" lon="3.95905">
        <ele>247</ele>
        <time>2021-02-02T14:32:45.000Z</time>
      </trkpt>
      <trkpt lat="43.92982" lon="3.9589">
        <ele>247</ele>
        <time>2021-02-02T14:32:50.000Z</time>
      </trkpt>
      <trkpt lat="43.92983" lon="3.9588">
        <ele>247.80000305176</ele>
        <time>2021-02-02T14:32:53.000Z</time>
      </trkpt>
      <trkpt lat="43.92985" lon="3.95874">
        <ele>248.60000610352</ele>
        <time>2021-02-02T14:32:55.000Z</time>
      </trkpt>
      <trkpt lat="43.92993" lon="3.9586">
        <ele>248.19999694824</ele>
        <time>2021-02-02T14:32:59.000Z</time>
      </trkpt>
      <trkpt lat="43.93002" lon="3.95842">
        <ele>248</ele>
        <time>2021-02-02T14:33:04.000Z</time>
      </trkpt>
      <trkpt lat="43.93013" lon="3.95825">
        <ele>247.80000305176</ele>
        <time>2021-02-02T14:33:09.000Z</time>
      </trkpt>
      <trkpt lat="43.93019" lon="3.95814">
        <ele>246.80000305176</ele>
        <time>2021-02-02T14:33:12.000Z</time>
      </trkpt>
      <trkpt lat="43.93024" lon="3.95806">
        <ele>246.19999694824</ele>
        <time>2021-02-02T14:33:14.000Z</time>
      </trkpt>
      <trkpt lat="43.93028" lon="3.95805">
        <ele>245.60000610352</ele>
        <time>2021-02-02T14:33:15.000Z</time>
      </trkpt>
      <trkpt lat="43.93043" lon="3.95797">
        <ele>244.60000610352</ele>
        <time>2021-02-02T14:33:19.000Z</time>
      </trkpt>
      <trkpt lat="43.93046" lon="3.95793">
        <ele>244.39999389648</ele>
        <time>2021-02-02T14:33:20.000Z</time>
      </trkpt>
      <trkpt lat="43.93051" lon="3.95791">
        <ele>244</ele>
        <time>2021-02-02T14:33:21.000Z</time>
      </trkpt>
      <trkpt lat="43.93055" lon="3.95789">
        <ele>242.80000305176</ele>
        <time>2021-02-02T14:33:22.000Z</time>
      </trkpt>
      <trkpt lat="43.9306" lon="3.95788">
        <ele>242</ele>
        <time>2021-02-02T14:33:23.000Z</time>
      </trkpt>
      <trkpt lat="43.93065" lon="3.95788">
        <ele>241.39999389648</ele>
        <time>2021-02-02T14:33:24.000Z</time>
      </trkpt>
      <trkpt lat="43.93078" lon="3.95783">
        <ele>240.19999694824</ele>
        <time>2021-02-02T14:33:27.000Z</time>
      </trkpt>
      <trkpt lat="43.93083" lon="3.95782">
        <ele>240.19999694824</ele>
        <time>2021-02-02T14:33:28.000Z</time>
      </trkpt>
      <trkpt lat="43.93091" lon="3.95787">
        <ele>240.39999389648</ele>
        <time>2021-02-02T14:33:30.000Z</time>
      </trkpt>
      <trkpt lat="43.931" lon="3.95794">
        <ele>240.19999694824</ele>
        <time>2021-02-02T14:33:32.000Z</time>
      </trkpt>
      <trkpt lat="43.93109" lon="3.95798">
        <ele>239.80000305176</ele>
        <time>2021-02-02T14:33:34.000Z</time>
      </trkpt>
      <trkpt lat="43.93115" lon="3.95797">
        <ele>238.80000305176</ele>
        <time>2021-02-02T14:33:35.000Z</time>
      </trkpt>
      <trkpt lat="43.93123" lon="3.95794">
        <ele>237</ele>
        <time>2021-02-02T14:33:37.000Z</time>
      </trkpt>
      <trkpt lat="43.93128" lon="3.9579">
        <ele>236.60000610352</ele>
        <time>2021-02-02T14:33:38.000Z</time>
      </trkpt>
      <trkpt lat="43.93136" lon="3.95782">
        <ele>235.80000305176</ele>
        <time>2021-02-02T14:33:40.000Z</time>
      </trkpt>
      <trkpt lat="43.93146" lon="3.95771">
        <ele>234.39999389648</ele>
        <time>2021-02-02T14:33:42.000Z</time>
      </trkpt>
      <trkpt lat="43.93152" lon="3.95765">
        <ele>231.80000305176</ele>
        <time>2021-02-02T14:33:43.000Z</time>
      </trkpt>
      <trkpt lat="43.93157" lon="3.95761">
        <ele>230</ele>
        <time>2021-02-02T14:33:44.000Z</time>
      </trkpt>
      <trkpt lat="43.93164" lon="3.95756">
        <ele>228.39999389648</ele>
        <time>2021-02-02T14:33:45.000Z</time>
      </trkpt>
      <trkpt lat="43.9317" lon="3.95753">
        <ele>226.60000610352</ele>
        <time>2021-02-02T14:33:46.000Z</time>
      </trkpt>
      <trkpt lat="43.93176" lon="3.95751">
        <ele>223.80000305176</ele>
        <time>2021-02-02T14:33:47.000Z</time>
      </trkpt>
      <trkpt lat="43.93181" lon="3.95749">
        <ele>222.60000610352</ele>
        <time>2021-02-02T14:33:48.000Z</time>
      </trkpt>
      <trkpt lat="43.93187" lon="3.95744">
        <ele>222</ele>
        <time>2021-02-02T14:33:49.000Z</time>
      </trkpt>
      <trkpt lat="43.93192" lon="3.95741">
        <ele>221</ele>
        <time>2021-02-02T14:33:50.000Z</time>
      </trkpt>
      <trkpt lat="43.93206" lon="3.9574">
        <ele>219.80000305176</ele>
        <time>2021-02-02T14:33:52.000Z</time>
      </trkpt>
      <trkpt lat="43.93212" lon="3.9574">
        <ele>219</ele>
        <time>2021-02-02T14:33:53.000Z</time>
      </trkpt>
      <trkpt lat="43.93219" lon="3.95738">
        <ele>218.39999389648</ele>
        <time>2021-02-02T14:33:54.000Z</time>
      </trkpt>
      <trkpt lat="43.93232" lon="3.9573">
        <ele>217.39999389648</ele>
        <time>2021-02-02T14:33:56.000Z</time>
      </trkpt>
      <trkpt lat="43.93238" lon="3.95725">
        <ele>217.39999389648</ele>
        <time>2021-02-02T14:33:57.000Z</time>
      </trkpt>
      <trkpt lat="43.9325" lon="3.95715">
        <ele>214.80000305176</ele>
        <time>2021-02-02T14:33:59.000Z</time>
      </trkpt>
      <trkpt lat="43.93261" lon="3.95705">
        <ele>213.80000305176</ele>
        <time>2021-02-02T14:34:01.000Z</time>
      </trkpt>
      <trkpt lat="43.93267" lon="3.95697">
        <ele>213.60000610352</ele>
        <time>2021-02-02T14:34:02.000Z</time>
      </trkpt>
      <trkpt lat="43.93272" lon="3.95689">
        <ele>212.19999694824</ele>
        <time>2021-02-02T14:34:03.000Z</time>
      </trkpt>
      <trkpt lat="43.93278" lon="3.95681">
        <ele>211</ele>
        <time>2021-02-02T14:34:04.000Z</time>
      </trkpt>
      <trkpt lat="43.93283" lon="3.95674">
        <ele>209.60000610352</ele>
        <time>2021-02-02T14:34:05.000Z</time>
      </trkpt>
      <trkpt lat="43.93288" lon="3.95665">
        <ele>208.60000610352</ele>
        <time>2021-02-02T14:34:06.000Z</time>
      </trkpt>
      <trkpt lat="43.93294" lon="3.95656">
        <ele>207.60000610352</ele>
        <time>2021-02-02T14:34:07.000Z</time>
      </trkpt>
      <trkpt lat="43.93299" lon="3.95648">
        <ele>207</ele>
        <time>2021-02-02T14:34:08.000Z</time>
      </trkpt>
      <trkpt lat="43.93304" lon="3.95638">
        <ele>205.60000610352</ele>
        <time>2021-02-02T14:34:09.000Z</time>
      </trkpt>
      <trkpt lat="43.93308" lon="3.9563">
        <ele>203.19999694824</ele>
        <time>2021-02-02T14:34:10.000Z</time>
      </trkpt>
      <trkpt lat="43.93314" lon="3.95623">
        <ele>201.19999694824</ele>
        <time>2021-02-02T14:34:11.000Z</time>
      </trkpt>
      <trkpt lat="43.9332" lon="3.95617">
        <ele>199.60000610352</ele>
        <time>2021-02-02T14:34:12.000Z</time>
      </trkpt>
      <trkpt lat="43.93326" lon="3.95613">
        <ele>198</ele>
        <time>2021-02-02T14:34:13.000Z</time>
      </trkpt>
      <trkpt lat="43.93334" lon="3.95611">
        <ele>197.19999694824</ele>
        <time>2021-02-02T14:34:14.000Z</time>
      </trkpt>
      <trkpt lat="43.9334" lon="3.95607">
        <ele>196.60000610352</ele>
        <time>2021-02-02T14:34:15.000Z</time>
      </trkpt>
      <trkpt lat="43.93347" lon="3.95604">
        <ele>196.19999694824</ele>
        <time>2021-02-02T14:34:16.000Z</time>
      </trkpt>
      <trkpt lat="43.93369" lon="3.95592">
        <ele>195.39999389648</ele>
        <time>2021-02-02T14:34:19.000Z</time>
      </trkpt>
      <trkpt lat="43.93383" lon="3.95581">
        <ele>194.60000610352</ele>
        <time>2021-02-02T14:34:21.000Z</time>
      </trkpt>
      <trkpt lat="43.93389" lon="3.95577">
        <ele>194</ele>
        <time>2021-02-02T14:34:22.000Z</time>
      </trkpt>
      <trkpt lat="43.93394" lon="3.95571">
        <ele>192.80000305176</ele>
        <time>2021-02-02T14:34:23.000Z</time>
      </trkpt>
      <trkpt lat="43.934" lon="3.95563">
        <ele>191.60000610352</ele>
        <time>2021-02-02T14:34:24.000Z</time>
      </trkpt>
      <trkpt lat="43.93405" lon="3.95555">
        <ele>190.39999389648</ele>
        <time>2021-02-02T14:34:25.000Z</time>
      </trkpt>
      <trkpt lat="43.9341" lon="3.95548">
        <ele>189</ele>
        <time>2021-02-02T14:34:26.000Z</time>
      </trkpt>
      <trkpt lat="43.93415" lon="3.95542">
        <ele>187.39999389648</ele>
        <time>2021-02-02T14:34:27.000Z</time>
      </trkpt>
      <trkpt lat="43.93419" lon="3.95534">
        <ele>186.60000610352</ele>
        <time>2021-02-02T14:34:28.000Z</time>
      </trkpt>
      <trkpt lat="43.93424" lon="3.95527">
        <ele>186</ele>
        <time>2021-02-02T14:34:29.000Z</time>
      </trkpt>
      <trkpt lat="43.93428" lon="3.95518">
        <ele>185.80000305176</ele>
        <time>2021-02-02T14:34:30.000Z</time>
      </trkpt>
      <trkpt lat="43.93436" lon="3.95502">
        <ele>184.39999389648</ele>
        <time>2021-02-02T14:34:32.000Z</time>
      </trkpt>
      <trkpt lat="43.9344" lon="3.95493">
        <ele>183.19999694824</ele>
        <time>2021-02-02T14:34:33.000Z</time>
      </trkpt>
      <trkpt lat="43.93444" lon="3.95485">
        <ele>181.19999694824</ele>
        <time>2021-02-02T14:34:34.000Z</time>
      </trkpt>
      <trkpt lat="43.93448" lon="3.95479">
        <ele>179.39999389648</ele>
        <time>2021-02-02T14:34:35.000Z</time>
      </trkpt>
      <trkpt lat="43.93453" lon="3.95471">
        <ele>178.80000305176</ele>
        <time>2021-02-02T14:34:36.000Z</time>
      </trkpt>
      <trkpt lat="43.93457" lon="3.95464">
        <ele>177.39999389648</ele>
        <time>2021-02-02T14:34:37.000Z</time>
      </trkpt>
      <trkpt lat="43.93461" lon="3.95457">
        <ele>176.19999694824</ele>
        <time>2021-02-02T14:34:38.000Z</time>
      </trkpt>
      <trkpt lat="43.93471" lon="3.95445">
        <ele>174.80000305176</ele>
        <time>2021-02-02T14:34:40.000Z</time>
      </trkpt>
      <trkpt lat="43.93476" lon="3.9544">
        <ele>174.80000305176</ele>
        <time>2021-02-02T14:34:41.000Z</time>
      </trkpt>
      <trkpt lat="43.93488" lon="3.95433">
        <ele>172.19999694824</ele>
        <time>2021-02-02T14:34:43.000Z</time>
      </trkpt>
      <trkpt lat="43.93494" lon="3.95427">
        <ele>171.60000610352</ele>
        <time>2021-02-02T14:34:44.000Z</time>
      </trkpt>
      <trkpt lat="43.935" lon="3.95421">
        <ele>171.19999694824</ele>
        <time>2021-02-02T14:34:45.000Z</time>
      </trkpt>
      <trkpt lat="43.93505" lon="3.95418">
        <ele>169.39999389648</ele>
        <time>2021-02-02T14:34:46.000Z</time>
      </trkpt>
      <trkpt lat="43.9351" lon="3.95418">
        <ele>168</ele>
        <time>2021-02-02T14:34:47.000Z</time>
      </trkpt>
      <trkpt lat="43.93515" lon="3.95416">
        <ele>166.80000305176</ele>
        <time>2021-02-02T14:34:48.000Z</time>
      </trkpt>
      <trkpt lat="43.9352" lon="3.95415">
        <ele>165.80000305176</ele>
        <time>2021-02-02T14:34:49.000Z</time>
      </trkpt>
      <trkpt lat="43.93527" lon="3.95414">
        <ele>164.80000305176</ele>
        <time>2021-02-02T14:34:50.000Z</time>
      </trkpt>
      <trkpt lat="43.93533" lon="3.95413">
        <ele>164</ele>
        <time>2021-02-02T14:34:51.000Z</time>
      </trkpt>
      <trkpt lat="43.93539" lon="3.95413">
        <ele>163.60000610352</ele>
        <time>2021-02-02T14:34:52.000Z</time>
      </trkpt>
      <trkpt lat="43.93559" lon="3.95411">
        <ele>163.39999389648</ele>
        <time>2021-02-02T14:34:55.000Z</time>
      </trkpt>
      <trkpt lat="43.93579" lon="3.95405">
        <ele>162.39999389648</ele>
        <time>2021-02-02T14:34:58.000Z</time>
      </trkpt>
      <trkpt lat="43.93586" lon="3.95406">
        <ele>161.80000305176</ele>
        <time>2021-02-02T14:34:59.000Z</time>
      </trkpt>
      <trkpt lat="43.93593" lon="3.95408">
        <ele>160.80000305176</ele>
        <time>2021-02-02T14:35:00.000Z</time>
      </trkpt>
      <trkpt lat="43.936" lon="3.95411">
        <ele>159.39999389648</ele>
        <time>2021-02-02T14:35:01.000Z</time>
      </trkpt>
      <trkpt lat="43.93605" lon="3.95417">
        <ele>158.39999389648</ele>
        <time>2021-02-02T14:35:02.000Z</time>
      </trkpt>
      <trkpt lat="43.93611" lon="3.9542">
        <ele>158</ele>
        <time>2021-02-02T14:35:03.000Z</time>
      </trkpt>
      <trkpt lat="43.93623" lon="3.95419">
        <ele>158.19999694824</ele>
        <time>2021-02-02T14:35:05.000Z</time>
      </trkpt>
      <trkpt lat="43.93638" lon="3.95409">
        <ele>158.19999694824</ele>
        <time>2021-02-02T14:35:08.000Z</time>
      </trkpt>
      <trkpt lat="43.93643" lon="3.95404">
        <ele>157.60000610352</ele>
        <time>2021-02-02T14:35:09.000Z</time>
      </trkpt>
      <trkpt lat="43.93649" lon="3.954">
        <ele>156.80000305176</ele>
        <time>2021-02-02T14:35:10.000Z</time>
      </trkpt>
      <trkpt lat="43.93661" lon="3.9539">
        <ele>155.80000305176</ele>
        <time>2021-02-02T14:35:12.000Z</time>
      </trkpt>
      <trkpt lat="43.93668" lon="3.95385">
        <ele>155.39999389648</ele>
        <time>2021-02-02T14:35:13.000Z</time>
      </trkpt>
      <trkpt lat="43.93674" lon="3.95379">
        <ele>155</ele>
        <time>2021-02-02T14:35:14.000Z</time>
      </trkpt>
      <trkpt lat="43.9368" lon="3.95372">
        <ele>154.19999694824</ele>
        <time>2021-02-02T14:35:15.000Z</time>
      </trkpt>
      <trkpt lat="43.93686" lon="3.95365">
        <ele>153</ele>
        <time>2021-02-02T14:35:16.000Z</time>
      </trkpt>
      <trkpt lat="43.93693" lon="3.95358">
        <ele>151.60000610352</ele>
        <time>2021-02-02T14:35:17.000Z</time>
      </trkpt>
      <trkpt lat="43.937" lon="3.95352">
        <ele>148.80000305176</ele>
        <time>2021-02-02T14:35:18.000Z</time>
      </trkpt>
      <trkpt lat="43.93707" lon="3.95346">
        <ele>147.80000305176</ele>
        <time>2021-02-02T14:35:19.000Z</time>
      </trkpt>
      <trkpt lat="43.93722" lon="3.95335">
        <ele>146.39999389648</ele>
        <time>2021-02-02T14:35:21.000Z</time>
      </trkpt>
      <trkpt lat="43.9373" lon="3.95329">
        <ele>145.60000610352</ele>
        <time>2021-02-02T14:35:22.000Z</time>
      </trkpt>
      <trkpt lat="43.93749" lon="3.95307">
        <ele>145</ele>
        <time>2021-02-02T14:35:25.000Z</time>
      </trkpt>
      <trkpt lat="43.93761" lon="3.95294">
        <ele>143</ele>
        <time>2021-02-02T14:35:27.000Z</time>
      </trkpt>
      <trkpt lat="43.93772" lon="3.95282">
        <ele>141</ele>
        <time>2021-02-02T14:35:29.000Z</time>
      </trkpt>
      <trkpt lat="43.93777" lon="3.95276">
        <ele>140.39999389648</ele>
        <time>2021-02-02T14:35:30.000Z</time>
      </trkpt>
      <trkpt lat="43.93779" lon="3.95272">
        <ele>138.60000610352</ele>
        <time>2021-02-02T14:35:31.000Z</time>
      </trkpt>
      <trkpt lat="43.93782" lon="3.95268">
        <ele>138.19999694824</ele>
        <time>2021-02-02T14:35:32.000Z</time>
      </trkpt>
      <trkpt lat="43.93784" lon="3.95264">
        <ele>137.39999389648</ele>
        <time>2021-02-02T14:35:33.000Z</time>
      </trkpt>
      <trkpt lat="43.93786" lon="3.9526">
        <ele>136</ele>
        <time>2021-02-02T14:35:34.000Z</time>
      </trkpt>
      <trkpt lat="43.93789" lon="3.95255">
        <ele>135</ele>
        <time>2021-02-02T14:35:35.000Z</time>
      </trkpt>
      <trkpt lat="43.93795" lon="3.95246">
        <ele>133.80000305176</ele>
        <time>2021-02-02T14:35:37.000Z</time>
      </trkpt>
      <trkpt lat="43.93799" lon="3.9524">
        <ele>133.80000305176</ele>
        <time>2021-02-02T14:35:38.000Z</time>
      </trkpt>
      <trkpt lat="43.93807" lon="3.95229">
        <ele>132.60000610352</ele>
        <time>2021-02-02T14:35:40.000Z</time>
      </trkpt>
      <trkpt lat="43.93817" lon="3.9522">
        <ele>131.80000305176</ele>
        <time>2021-02-02T14:35:42.000Z</time>
      </trkpt>
      <trkpt lat="43.93822" lon="3.95216">
        <ele>131.19999694824</ele>
        <time>2021-02-02T14:35:43.000Z</time>
      </trkpt>
      <trkpt lat="43.9383" lon="3.95204">
        <ele>130.60000610352</ele>
        <time>2021-02-02T14:35:45.000Z</time>
      </trkpt>
      <trkpt lat="43.93834" lon="3.95198">
        <ele>130.80000305176</ele>
        <time>2021-02-02T14:35:46.000Z</time>
      </trkpt>
      <trkpt lat="43.93846" lon="3.95182">
        <ele>130.80000305176</ele>
        <time>2021-02-02T14:35:49.000Z</time>
      </trkpt>
      <trkpt lat="43.93852" lon="3.9517">
        <ele>131</ele>
        <time>2021-02-02T14:35:51.000Z</time>
      </trkpt>
      <trkpt lat="43.93862" lon="3.95154">
        <ele>130.19999694824</ele>
        <time>2021-02-02T14:35:54.000Z</time>
      </trkpt>
      <trkpt lat="43.93866" lon="3.95147">
        <ele>130</ele>
        <time>2021-02-02T14:35:55.000Z</time>
      </trkpt>
      <trkpt lat="43.93875" lon="3.95133">
        <ele>129.80000305176</ele>
        <time>2021-02-02T14:35:57.000Z</time>
      </trkpt>
      <trkpt lat="43.93881" lon="3.9512">
        <ele>129.60000610352</ele>
        <time>2021-02-02T14:35:59.000Z</time>
      </trkpt>
      <trkpt lat="43.93883" lon="3.95114">
        <ele>130.19999694824</ele>
        <time>2021-02-02T14:36:00.000Z</time>
      </trkpt>
      <trkpt lat="43.93888" lon="3.95103">
        <ele>130.80000305176</ele>
        <time>2021-02-02T14:36:03.000Z</time>
      </trkpt>
      <trkpt lat="43.93902" lon="3.95084">
        <ele>130.80000305176</ele>
        <time>2021-02-02T14:36:08.000Z</time>
      </trkpt>
      <trkpt lat="43.93919" lon="3.95056">
        <ele>130.39999389648</ele>
        <time>2021-02-02T14:36:14.000Z</time>
      </trkpt>
      <trkpt lat="43.93925" lon="3.95046">
        <ele>129.19999694824</ele>
        <time>2021-02-02T14:36:16.000Z</time>
      </trkpt>
      <trkpt lat="43.9393" lon="3.95037">
        <ele>128</ele>
        <time>2021-02-02T14:36:18.000Z</time>
      </trkpt>
      <trkpt lat="43.93933" lon="3.95032">
        <ele>127.40000152588</ele>
        <time>2021-02-02T14:36:19.000Z</time>
      </trkpt>
      <trkpt lat="43.93936" lon="3.95027">
        <ele>126.80000305176</ele>
        <time>2021-02-02T14:36:20.000Z</time>
      </trkpt>
      <trkpt lat="43.93943" lon="3.95018">
        <ele>125.19999694824</ele>
        <time>2021-02-02T14:36:22.000Z</time>
      </trkpt>
      <trkpt lat="43.93949" lon="3.95008">
        <ele>123.80000305176</ele>
        <time>2021-02-02T14:36:24.000Z</time>
      </trkpt>
      <trkpt lat="43.93959" lon="3.94994">
        <ele>122.19999694824</ele>
        <time>2021-02-02T14:36:27.000Z</time>
      </trkpt>
      <trkpt lat="43.93958" lon="3.94986">
        <ele>121.59999847412</ele>
        <time>2021-02-02T14:36:28.000Z</time>
      </trkpt>
      <trkpt lat="43.93968" lon="3.94974">
        <ele>120.80000305176</ele>
        <time>2021-02-02T14:36:30.000Z</time>
      </trkpt>
      <trkpt lat="43.93972" lon="3.94969">
        <ele>120.80000305176</ele>
        <time>2021-02-02T14:36:31.000Z</time>
      </trkpt>
      <trkpt lat="43.93981" lon="3.94962">
        <ele>120.80000305176</ele>
        <time>2021-02-02T14:36:33.000Z</time>
      </trkpt>
      <trkpt lat="43.93986" lon="3.94957">
        <ele>121</ele>
        <time>2021-02-02T14:36:35.000Z</time>
      </trkpt>
      <trkpt lat="43.93988" lon="3.94956">
        <ele>121</ele>
        <time>2021-02-02T14:36:36.000Z</time>
      </trkpt>
      <trkpt lat="43.93997" lon="3.94949">
        <ele>120.80000305176</ele>
        <time>2021-02-02T14:36:41.000Z</time>
      </trkpt>
      <trkpt lat="43.93997" lon="3.94944">
        <ele>121.40000152588</ele>
        <time>2021-02-02T14:36:46.000Z</time>
      </trkpt>
      <trkpt lat="43.94019" lon="3.94894">
        <ele>119.59999847412</ele>
        <time>2021-02-02T14:36:58.000Z</time>
      </trkpt>
      <trkpt lat="43.94023" lon="3.94889">
        <ele>119.19999694824</ele>
        <time>2021-02-02T14:36:59.000Z</time>
      </trkpt>
      <trkpt lat="43.94029" lon="3.94885">
        <ele>119</ele>
        <time>2021-02-02T14:37:00.000Z</time>
      </trkpt>
      <trkpt lat="43.94039" lon="3.94876">
        <ele>118.59999847412</ele>
        <time>2021-02-02T14:37:02.000Z</time>
      </trkpt>
      <trkpt lat="43.94043" lon="3.94872">
        <ele>118.40000152588</ele>
        <time>2021-02-02T14:37:03.000Z</time>
      </trkpt>
      <trkpt lat="43.94048" lon="3.94868">
        <ele>118</ele>
        <time>2021-02-02T14:37:04.000Z</time>
      </trkpt>
      <trkpt lat="43.9406" lon="3.94866">
        <ele>117.40000152588</ele>
        <time>2021-02-02T14:37:06.000Z</time>
      </trkpt>
      <trkpt lat="43.94066" lon="3.94864">
        <ele>116.80000305176</ele>
        <time>2021-02-02T14:37:07.000Z</time>
      </trkpt>
      <trkpt lat="43.9407" lon="3.94863">
        <ele>116.59999847412</ele>
        <time>2021-02-02T14:37:08.000Z</time>
      </trkpt>
      <trkpt lat="43.94083" lon="3.94858">
        <ele>116.19999694824</ele>
        <time>2021-02-02T14:37:11.000Z</time>
      </trkpt>
      <trkpt lat="43.94088" lon="3.94857">
        <ele>116.19999694824</ele>
        <time>2021-02-02T14:37:12.000Z</time>
      </trkpt>
      <trkpt lat="43.94102" lon="3.94852">
        <ele>116.40000152588</ele>
        <time>2021-02-02T14:37:14.000Z</time>
      </trkpt>
      <trkpt lat="43.94118" lon="3.94854">
        <ele>117.40000152588</ele>
        <time>2021-02-02T14:37:17.000Z</time>
      </trkpt>
      <trkpt lat="43.94126" lon="3.94856">
        <ele>117.40000152588</ele>
        <time>2021-02-02T14:37:19.000Z</time>
      </trkpt>
      <trkpt lat="43.94145" lon="3.94863">
        <ele>117.40000152588</ele>
        <time>2021-02-02T14:37:23.000Z</time>
      </trkpt>
      <trkpt lat="43.94176" lon="3.94869">
        <ele>117.19999694824</ele>
        <time>2021-02-02T14:37:29.000Z</time>
      </trkpt>
      <trkpt lat="43.94202" lon="3.94871">
        <ele>116.59999847412</ele>
        <time>2021-02-02T14:37:35.000Z</time>
      </trkpt>
      <trkpt lat="43.94204" lon="3.94879">
        <ele>116.19999694824</ele>
        <time>2021-02-02T14:37:37.000Z</time>
      </trkpt>
      <trkpt lat="43.94209" lon="3.94888">
        <ele>116</ele>
        <time>2021-02-02T14:37:39.000Z</time>
      </trkpt>
      <trkpt lat="43.94212" lon="3.94892">
        <ele>115.59999847412</ele>
        <time>2021-02-02T14:37:40.000Z</time>
      </trkpt>
      <trkpt lat="43.94216" lon="3.94894">
        <ele>115.40000152588</ele>
        <time>2021-02-02T14:37:42.000Z</time>
      </trkpt>
      <trkpt lat="43.94223" lon="3.94895">
        <ele>114.80000305176</ele>
        <time>2021-02-02T14:37:44.000Z</time>
      </trkpt>
      <trkpt lat="43.94228" lon="3.94898">
        <ele>114.40000152588</ele>
        <time>2021-02-02T14:37:46.000Z</time>
      </trkpt>
      <trkpt lat="43.94229" lon="3.94902">
        <ele>114</ele>
        <time>2021-02-02T14:37:47.000Z</time>
      </trkpt>
      <trkpt lat="43.94232" lon="3.94922">
        <ele>112.80000305176</ele>
        <time>2021-02-02T14:37:51.000Z</time>
      </trkpt>
      <trkpt lat="43.9423" lon="3.94925">
        <ele>112.59999847412</ele>
        <time>2021-02-02T14:37:52.000Z</time>
      </trkpt>
      <trkpt lat="43.94216" lon="3.94928">
        <ele>112</ele>
        <time>2021-02-02T14:37:56.000Z</time>
      </trkpt>
      <trkpt lat="43.94211" lon="3.94929">
        <ele>112</ele>
        <time>2021-02-02T14:37:57.000Z</time>
      </trkpt>
      <trkpt lat="43.94206" lon="3.9493">
        <ele>111.80000305176</ele>
        <time>2021-02-02T14:37:58.000Z</time>
      </trkpt>
      <trkpt lat="43.94192" lon="3.94931">
        <ele>110.80000305176</ele>
        <time>2021-02-02T14:38:01.000Z</time>
      </trkpt>
      <trkpt lat="43.94187" lon="3.94931">
        <ele>110.59999847412</ele>
        <time>2021-02-02T14:38:02.000Z</time>
      </trkpt>
      <trkpt lat="43.9417" lon="3.94926">
        <ele>109.80000305176</ele>
        <time>2021-02-02T14:38:05.000Z</time>
      </trkpt>
      <trkpt lat="43.94165" lon="3.94925">
        <ele>109.40000152588</ele>
        <time>2021-02-02T14:38:06.000Z</time>
      </trkpt>
      <trkpt lat="43.9416" lon="3.94924">
        <ele>109.40000152588</ele>
        <time>2021-02-02T14:38:07.000Z</time>
      </trkpt>
      <trkpt lat="43.94144" lon="3.94924">
        <ele>109.19999694824</ele>
        <time>2021-02-02T14:38:10.000Z</time>
      </trkpt>
      <trkpt lat="43.94138" lon="3.94925">
        <ele>109.19999694824</ele>
        <time>2021-02-02T14:38:11.000Z</time>
      </trkpt>
      <trkpt lat="43.94126" lon="3.94937">
        <ele>108.59999847412</ele>
        <time>2021-02-02T14:38:14.000Z</time>
      </trkpt>
      <trkpt lat="43.94124" lon="3.94941">
        <ele>108.40000152588</ele>
        <time>2021-02-02T14:38:15.000Z</time>
      </trkpt>
      <trkpt lat="43.94117" lon="3.9495">
        <ele>108.40000152588</ele>
        <time>2021-02-02T14:38:19.000Z</time>
      </trkpt>
      <trkpt lat="43.94112" lon="3.94941">
        <ele>108.80000305176</ele>
        <time>2021-02-02T14:38:21.000Z</time>
      </trkpt>
      <trkpt lat="43.94111" lon="3.94938">
        <ele>109</ele>
        <time>2021-02-02T14:38:22.000Z</time>
      </trkpt>
      <trkpt lat="43.94107" lon="3.94936">
        <ele>110</ele>
        <time>2021-02-02T14:38:23.000Z</time>
      </trkpt>
      <trkpt lat="43.94102" lon="3.94932">
        <ele>110.80000305176</ele>
        <time>2021-02-02T14:38:25.000Z</time>
      </trkpt>
      <trkpt lat="43.94101" lon="3.94932">
        <ele>111.59999847412</ele>
        <time>2021-02-02T14:38:26.000Z</time>
      </trkpt>
      <trkpt lat="43.941" lon="3.94928">
        <ele>112.59999847412</ele>
        <time>2021-02-02T14:38:28.000Z</time>
      </trkpt>
      <trkpt lat="43.94096" lon="3.94923">
        <ele>113.40000152588</ele>
        <time>2021-02-02T14:38:30.000Z</time>
      </trkpt>
      <trkpt lat="43.94094" lon="3.94923">
        <ele>113.80000305176</ele>
        <time>2021-02-02T14:38:31.000Z</time>
      </trkpt>
      <trkpt lat="43.94085" lon="3.94924">
        <ele>115.19999694824</ele>
        <time>2021-02-02T14:38:35.000Z</time>
      </trkpt>
      <trkpt lat="43.94077" lon="3.94927">
        <ele>116.19999694824</ele>
        <time>2021-02-02T14:38:39.000Z</time>
      </trkpt>
      <trkpt lat="43.94075" lon="3.94928">
        <ele>116.40000152588</ele>
        <time>2021-02-02T14:38:40.000Z</time>
      </trkpt>
      <trkpt lat="43.94066" lon="3.9493">
        <ele>117.59999847412</ele>
        <time>2021-02-02T14:38:44.000Z</time>
      </trkpt>
      <trkpt lat="43.94062" lon="3.9493">
        <ele>118</ele>
        <time>2021-02-02T14:38:46.000Z</time>
      </trkpt>
      <trkpt lat="43.94059" lon="3.9493">
        <ele>118.19999694824</ele>
        <time>2021-02-02T14:38:47.000Z</time>
      </trkpt>
      <trkpt lat="43.94052" lon="3.94927">
        <ele>118.19999694824</ele>
        <time>2021-02-02T14:38:50.000Z</time>
      </trkpt>
      <trkpt lat="43.9405" lon="3.94927">
        <ele>118.59999847412</ele>
        <time>2021-02-02T14:38:52.000Z</time>
      </trkpt>
      <trkpt lat="43.94045" lon="3.94929">
        <ele>118.80000305176</ele>
        <time>2021-02-02T14:38:54.000Z</time>
      </trkpt>
      <trkpt lat="43.9403" lon="3.94944">
        <ele>119.40000152588</ele>
        <time>2021-02-02T14:38:59.000Z</time>
      </trkpt>
      <trkpt lat="43.9402" lon="3.94965">
        <ele>119.19999694824</ele>
        <time>2021-02-02T14:39:03.000Z</time>
      </trkpt>
      <trkpt lat="43.94016" lon="3.9497">
        <ele>119.19999694824</ele>
        <time>2021-02-02T14:39:04.000Z</time>
      </trkpt>
      <trkpt lat="43.94001" lon="3.94989">
        <ele>118.80000305176</ele>
        <time>2021-02-02T14:39:08.000Z</time>
      </trkpt>
      <trkpt lat="43.93984" lon="3.95022">
        <ele>117.59999847412</ele>
        <time>2021-02-02T14:39:14.000Z</time>
      </trkpt>
      <trkpt lat="43.93971" lon="3.95048">
        <ele>116.19999694824</ele>
        <time>2021-02-02T14:39:18.000Z</time>
      </trkpt>
      <trkpt lat="43.93968" lon="3.95053">
        <ele>115.80000305176</ele>
        <time>2021-02-02T14:39:19.000Z</time>
      </trkpt>
      <trkpt lat="43.93964" lon="3.95057">
        <ele>115.80000305176</ele>
        <time>2021-02-02T14:39:20.000Z</time>
      </trkpt>
      <trkpt lat="43.93959" lon="3.95064">
        <ele>115</ele>
        <time>2021-02-02T14:39:22.000Z</time>
      </trkpt>
      <trkpt lat="43.93956" lon="3.95067">
        <ele>114.19999694824</ele>
        <time>2021-02-02T14:39:23.000Z</time>
      </trkpt>
      <trkpt lat="43.93956" lon="3.95072">
        <ele>113</ele>
        <time>2021-02-02T14:39:24.000Z</time>
      </trkpt>
      <trkpt lat="43.93958" lon="3.95075">
        <ele>111.80000305176</ele>
        <time>2021-02-02T14:39:25.000Z</time>
      </trkpt>
      <trkpt lat="43.93968" lon="3.95075">
        <ele>110.80000305176</ele>
        <time>2021-02-02T14:39:28.000Z</time>
      </trkpt>
      <trkpt lat="43.93977" lon="3.9508">
        <ele>110.59999847412</ele>
        <time>2021-02-02T14:39:30.000Z</time>
      </trkpt>
      <trkpt lat="43.93984" lon="3.95095">
        <ele>110.19999694824</ele>
        <time>2021-02-02T14:39:33.000Z</time>
      </trkpt>
      <trkpt lat="43.93987" lon="3.951">
        <ele>110.19999694824</ele>
        <time>2021-02-02T14:39:34.000Z</time>
      </trkpt>
      <trkpt lat="43.93992" lon="3.95111">
        <ele>109.80000305176</ele>
        <time>2021-02-02T14:39:36.000Z</time>
      </trkpt>
      <trkpt lat="43.93995" lon="3.95117">
        <ele>109.19999694824</ele>
        <time>2021-02-02T14:39:37.000Z</time>
      </trkpt>
      <trkpt lat="43.93998" lon="3.95124">
        <ele>109</ele>
        <time>2021-02-02T14:39:38.000Z</time>
      </trkpt>
      <trkpt lat="43.94002" lon="3.95131">
        <ele>108.59999847412</ele>
        <time>2021-02-02T14:39:39.000Z</time>
      </trkpt>
      <trkpt lat="43.94009" lon="3.95147">
        <ele>108.59999847412</ele>
        <time>2021-02-02T14:39:41.000Z</time>
      </trkpt>
      <trkpt lat="43.94025" lon="3.95178">
        <ele>107.40000152588</ele>
        <time>2021-02-02T14:39:45.000Z</time>
      </trkpt>
      <trkpt lat="43.94028" lon="3.95186">
        <ele>107</ele>
        <time>2021-02-02T14:39:46.000Z</time>
      </trkpt>
      <trkpt lat="43.9403" lon="3.95193">
        <ele>106.80000305176</ele>
        <time>2021-02-02T14:39:47.000Z</time>
      </trkpt>
      <trkpt lat="43.94033" lon="3.95208">
        <ele>106.19999694824</ele>
        <time>2021-02-02T14:39:49.000Z</time>
      </trkpt>
      <trkpt lat="43.94029" lon="3.95219">
        <ele>106.19999694824</ele>
        <time>2021-02-02T14:39:51.000Z</time>
      </trkpt>
      <trkpt lat="43.94012" lon="3.95229">
        <ele>106.19999694824</ele>
        <time>2021-02-02T14:39:55.000Z</time>
      </trkpt>
      <trkpt lat="43.94008" lon="3.95233">
        <ele>106</ele>
        <time>2021-02-02T14:39:56.000Z</time>
      </trkpt>
      <trkpt lat="43.93988" lon="3.9525">
        <ele>105.40000152588</ele>
        <time>2021-02-02T14:40:01.000Z</time>
      </trkpt>
      <trkpt lat="43.93978" lon="3.9526">
        <ele>105.40000152588</ele>
        <time>2021-02-02T14:40:05.000Z</time>
      </trkpt>
      <trkpt lat="43.93977" lon="3.9526">
        <ele>105.40000152588</ele>
        <time>2021-02-02T14:40:07.000Z</time>
      </trkpt>
    </trkseg>
  </trk>
</gpx>